[[{"header":{"parameterUnit":"m.s-1","parameterCategory":1,"la1":31.0,"la2":29.5877,"lo1":-88.7671,"lo2":-86.6584,"dx":0.0162,"dy":0.0185,"nx":115,"ny":88,"refTime":"2022-12-15T06:00:00:Z","depth":0,"parameterNumber":2,"parameterNumberName":"U-component_of_WINDS"},"data":[0.0,0.0,0.0,0.0,0.0,0.0,0.0,0.0,0.0,0.0,0.0,0.0,0.0,0.0,0.0,0.0,0.0,0.0,0.0,0.0,0.0,0.0,0.0,0.0,0.0,0.0,0.0,0.0,0.0,0.0,0.0,0.0,0.0,0.0,0.0,0.0,0.0,0.0,0.0,0.0,0.0,0.0,0.0,0.0,0.0,0.0,0.0,0.0,0.0,0.0,0.0,0.0,0.0,0.0,0.0,0.0,0.0,0.0,0.0,0.0,0.0,0.0,0.0,0.0,0.0,0.0,0.0,0.0,0.0,0.0,0.0,0.0,0.0,0.0,0.0,0.0,0.0,0.0,0.0,0.0,0.0,0.0,0.0,0.0,0.0,0.0,0.0,0.0,0.0,0.0,0.0,0.0,0.0,0.0,0.0,0.0,0.0,0.0,0.0,0.0,0.0,0.0,0.0,0.0,0.0,0.0,0.0,0.0,0.0,0.0,0.0,0.0,0.0,0.0,0.0,0.0,0.0,0.0,0.0,0.0,0.0,0.0,0.0,0.0,0.0,0.0,0.0,0.0,0.0,0.0,0.0,0.0,0.0,0.0,0.0,0.0,0.0,0.0,0.0,0.0,0.0,0.0,0.0,0.0,0.0,0.0,0.0,0.0,0.0,0.0,0.0,0.0,0.0,0.0,0.0,0.0,0.0,0.0,0.0,0.0,0.0,0.0,0.0,0.0,0.0,0.0,0.0,0.0,0.0,0.0,0.0,0.0,0.0,0.0,0.0,0.0,0.0,0.0,0.0,0.0,0.0,0.0,0.0,0.0,0.0,0.0,0.0,0.0,0.0,0.0,0.0,0.0,0.0,0.0,0.0,0.0,0.0,0.0,0.0,0.0,0.0,0.0,0.0,0.0,0.0,0.0,0.0,0.0,0.0,0.0,0.0,0.0,0.0,0.0,0.0,0.0,0.0,0.0,0.0,0.0,0.0,0.0,0.0,0.0,0.0,0.0,0.0,0.0,0.0,0.0,0.0,0.0,0.0,0.0,0.0,0.0,0.0,0.0,0.0,0.0,0.0,0.0,0.0,0.0,0.0,0.0,0.0,0.0,0.0,0.0,0.0,0.0,0.0,0.0,0.0,0.0,0.0,0.0,0.0,0.0,0.0,0.0,0.0,0.0,0.0,0.0,0.0,0.0,0.0,0.0,0.0,0.0,0.0,0.0,0.0,0.0,0.0,0.0,0.0,0.0,0.0,0.0,0.0,0.0,0.0,0.0,0.0,0.0,0.0,0.0,0.0,0.0,0.0,0.0,0.0,0.0,0.0,0.0,0.0,0.0,0.0,0.0,0.0,0.0,0.0,0.0,0.0,0.0,0.0,0.0,0.0,0.0,0.0,0.0,0.0,0.0,0.0,0.0,0.0,0.0,0.0,0.0,0.0,0.0,0.0,0.0,0.0,0.0,0.0,0.0,0.0,0.0,0.0,0.0,0.0,0.0,0.0,0.0,0.0,0.0,0.0,0.0,0.0,0.0,0.0,0.0,0.0,0.0,0.0,0.0,0.0,0.0,0.0,0.0,0.0,0.0,0.0,0.0,0.0,0.0,0.0,0.0,0.0,0.0,0.0,0.0,0.0,0.0,0.0,0.0,0.0,0.0,0.0,0.0,0.0,0.0,0.0,0.0,0.0,0.0,0.0,0.0,0.0,0.0,0.0,0.0,0.0,0.0,0.0,0.0,0.0,0.0,0.0,0.0,0.0,0.0,0.0,0.0,0.0,0.0,0.0,0.0,0.0,0.0,0.0,0.0,0.0,0.0,0.0,0.0,0.0,0.0,0.0,0.0,0.0,0.0,0.0,0.0,0.0,0.0,0.0,0.0,0.0,0.0,0.0,0.0,0.0,0.0,0.0,0.0,0.0,0.0,0.0,0.0,0.0,0.0,0.0,0.0,0.0,0.0,0.0,0.0,0.0,0.0,0.0,0.0,0.0,0.0,0.0,0.0,0.0,0.0,0.0,0.0,0.0,0.0,0.0,0.0,0.0,0.0,0.0,0.0,0.0,0.0,0.0,0.0,0.0,0.0,0.0,0.0,0.0,0.0,0.0,0.0,0.0,0.0,0.0,0.0,0.0,0.0,0.0,0.0,0.0,0.0,0.0,0.0,0.0,0.0,0.0,0.0,0.0,0.0,0.0,0.0,0.0,0.0,0.0,0.0,0.0,0.0,0.0,0.0,0.0,0.0,0.0,0.0,0.0,0.0,0.0,0.0,0.0,0.0,0.0,0.0,0.0,0.0,0.0,0.0,0.0,0.0,0.0,0.0,0.0,0.0,0.0,0.0,0.0,0.0,0.0,0.0,0.0,0.0,0.0,0.0,0.0,0.0,0.0,0.0,0.0,0.0,0.0,0.0,0.0,0.0,0.0,0.0,0.0,0.0,0.0,0.0,0.0,0.0,0.0,0.0,0.0,0.0,0.0,0.0,0.0,0.0,0.0,0.0,0.0,0.0,0.0,0.0,0.0,0.0,0.0,0.0,0.0,0.0,0.0,0.0,0.0,0.0,0.0,0.0,0.0,0.0,0.0,0.0,0.0,0.0,0.0,0.0,0.0,0.0,0.0,0.0,0.0,0.0,0.0,0.0,0.0,0.0,0.0,0.0,0.0,0.0,0.0,0.0,0.0,0.0,0.0,0.0,0.0,0.0,0.0,0.0,0.0,0.0,0.0,0.0,0.0,0.0,0.0,0.0,0.0,0.0,0.0,0.0,0.0,0.0,0.0,0.0,0.0,0.0,0.0,0.0,0.0,0.0,0.0,0.0,0.0,0.0,0.0,0.0,0.0,0.0,0.0,0.0,0.0,0.0,0.0,0.0,0.0,0.0,0.0,0.0,0.0,0.0,0.0,0.0,0.0,0.0,0.0,0.0,0.0,0.0,0.0,0.0,0.0,0.0,0.0,0.0,0.0,0.0,0.0,0.0,0.0,0.0,0.0,0.0,0.0,0.0,0.0,0.0,0.0,0.0,0.0,0.0,0.0,0.0,0.0,0.0,0.0,0.0,0.0,0.0,0.0,0.0,0.0,0.0,0.0,0.0,0.0,0.0,0.0,0.0,0.0,0.0,0.0,0.0,0.0,0.0,0.0,0.0,0.0,0.0,0.0,0.0,0.0,0.0,0.0,0.0,0.0,0.0,0.0,0.0,0.0,0.0,0.0,0.0,0.0,0.0,0.0,0.0,0.0,0.0,0.0,0.0,0.0,0.0,0.0,0.0,0.0,0.0,0.0,0.0,0.0,0.0,0.0,0.0,0.0,0.0,0.0,0.0,0.0,0.0,0.0,0.0,0.0,0.0,0.0,0.0,0.0,0.0,0.0,0.0,0.0,0.0,0.0,0.0,0.0,0.0,0.0,0.0,0.0,0.0,0.0,0.0,0.0,0.0,0.0,0.0,0.0,0.0,0.0,0.0,0.0,0.0,0.0,0.0,0.0,0.0,0.0,0.0,0.0,0.0,0.0,0.0,0.0,0.0,0.0,0.0,0.0,0.0,0.0,0.0,0.0,0.0,0.0,0.0,0.0,0.0,0.0,0.0,0.0,0.0,0.0,0.0,0.0,0.0,0.0,0.0,0.0,0.0,0.0,0.0,0.0,0.0,0.0,0.0,0.0,0.0,0.0,0.0,0.0,0.0,0.0,0.0,0.0,0.0,0.0,0.0,0.0,0.0,0.0,0.0,0.0,0.0,0.0,0.0,0.0,0.0,0.0,0.0,0.0,0.0,0.0,0.0,0.0,0.0,0.0,0.0,0.0,0.0,0.0,0.0,0.0,0.0,0.0,0.0,0.0,0.0,0.0,0.0,0.0,0.0,0.0,0.0,0.0,0.0,0.0,0.0,0.0,0.0,0.0,0.0,0.0,0.0,0.0,0.0,0.0,0.0,0.0,0.0,0.0,0.0,0.0,0.0,0.0,0.0,0.0,0.0,0.0,0.0,0.0,0.0,0.0,0.0,0.0,0.0,0.0,0.0,0.0,0.0,0.0,0.0,0.0,0.0,0.0,0.0,0.0,0.0,0.0,0.0,0.0,0.0,0.0,0.0,0.0,0.0,0.0,0.0,0.0,0.0,0.0,0.0,0.0,0.0,0.0,0.0,0.0,0.0,0.0,0.0,0.0,0.0,0.0,0.0,0.0,0.0,0.0,0.0,0.0,0.0,0.0,0.0,0.0,0.0,0.0,0.0,0.0,0.0,0.0,0.0,0.0,0.0,0.0,0.0,3.224,0.0,0.0,0.0,3.1062,0.0,0.0,0.0,0.0,0.0,0.0,0.0,0.0,0.0,0.0,0.0,0.0,0.0,0.0,0.0,0.0,0.0,0.0,0.0,0.0,0.0,0.0,0.0,0.0,0.0,0.0,0.0,0.0,0.0,0.0,0.0,0.0,0.0,0.0,0.0,0.0,0.0,0.0,0.0,0.0,0.0,0.0,0.0,0.0,0.0,0.0,0.0,0.0,0.0,0.0,0.0,0.0,0.0,0.0,0.0,0.0,0.0,0.0,0.0,0.0,0.0,0.0,0.0,0.0,0.0,0.0,0.0,0.0,0.0,0.0,0.0,0.0,0.0,0.0,0.0,0.0,0.0,0.0,0.0,0.0,0.0,0.0,0.0,0.0,0.0,0.0,0.0,0.0,0.0,0.0,0.0,0.0,0.0,0.0,0.0,0.0,0.0,0.0,0.0,0.0,0.0,0.0,0.0,0.0,0.0,0.0,0.0,0.0,0.0,0.0,3.1942,3.0739,3.2654,3.2985,3.1418,0.0,0.0,0.0,0.0,0.0,0.0,0.0,0.0,0.0,0.0,0.0,0.0,0.0,0.0,0.0,0.0,0.0,0.0,0.0,0.0,0.0,0.0,0.0,0.0,0.0,0.0,0.0,0.0,0.0,0.0,0.0,0.0,0.0,0.0,0.0,0.0,0.0,0.0,0.0,0.0,0.0,0.0,0.0,0.0,0.0,0.0,0.0,0.0,0.0,0.0,0.0,0.0,0.0,0.0,0.0,0.0,0.0,0.0,0.0,0.0,0.0,0.0,0.0,0.0,0.0,0.0,0.0,0.0,0.0,0.0,0.0,0.0,0.0,0.0,0.0,0.0,0.0,0.0,0.0,0.0,0.0,0.0,0.0,0.0,0.0,0.0,0.0,0.0,0.0,0.0,0.0,0.0,0.0,0.0,0.0,0.0,0.0,0.0,0.0,0.0,0.0,0.0,0.0,0.0,0.0,0.0,0.0,0.0,0.0,0.0,0.0,0.0,3.3099,3.358,3.2538,0.0,0.0,0.0,0.0,0.0,0.0,0.0,0.0,0.0,0.0,0.0,0.0,0.0,0.0,0.0,0.0,0.0,0.0,0.0,0.0,0.0,0.0,0.0,0.0,0.0,0.0,0.0,0.0,0.0,0.0,0.0,0.0,0.0,0.0,0.0,0.0,0.0,0.0,0.0,0.0,0.0,0.0,0.0,0.0,0.0,0.0,0.0,0.0,0.0,0.0,0.0,0.0,0.0,0.0,0.0,0.0,0.0,0.0,0.0,0.0,0.0,0.0,0.0,0.0,0.0,0.0,0.0,0.0,0.0,0.0,0.0,0.0,0.0,0.0,0.0,0.0,0.0,0.0,0.0,0.0,0.0,0.0,0.0,0.0,0.0,0.0,0.0,0.0,0.0,0.0,0.0,0.0,0.0,0.0,0.0,0.0,0.0,0.0,0.0,0.0,0.0,0.0,0.0,0.0,0.0,0.0,0.0,0.0,0.0,0.0,3.3148,3.3109,3.5446,0.0,3.4331,0.0,0.0,0.0,0.0,0.0,0.0,0.0,0.0,0.0,0.0,0.0,0.0,0.0,0.0,0.0,0.0,0.0,0.0,0.0,0.0,0.0,0.0,0.0,0.0,0.0,0.0,0.0,0.0,0.0,0.0,0.0,0.0,0.0,0.0,0.0,0.0,0.0,0.0,0.0,0.0,0.0,0.0,0.0,0.0,0.0,0.0,0.0,0.0,0.0,0.0,0.0,0.0,0.0,0.0,0.0,0.0,0.0,0.0,0.0,0.0,0.0,0.0,0.0,0.0,0.0,0.0,0.0,0.0,0.0,0.0,0.0,0.0,0.0,0.0,0.0,0.0,0.0,0.0,0.0,0.0,0.0,0.0,0.0,0.0,0.0,0.0,0.0,0.0,0.0,0.0,0.0,0.0,0.0,0.0,0.0,0.0,0.0,0.0,0.0,0.0,0.0,0.0,0.0,0.0,0.0,0.0,0.0,0.0,0.0,0.0,3.408,3.408,3.5093,3.5042,0.0,0.0,0.0,0.0,0.0,0.0,0.0,0.0,0.0,0.0,0.0,0.0,0.0,0.0,0.0,0.0,0.0,0.0,0.0,0.0,0.0,0.0,0.0,0.0,0.0,0.0,0.0,0.0,0.0,0.0,0.0,0.0,0.0,0.0,0.0,0.0,0.0,0.0,0.0,0.0,0.0,0.0,0.0,0.0,0.0,0.0,0.0,0.0,0.0,0.0,0.0,0.0,0.0,0.0,0.0,0.0,0.0,0.0,0.0,0.0,0.0,0.0,0.0,0.0,0.0,0.0,0.0,0.0,0.0,0.0,0.0,0.0,0.0,0.0,0.0,0.0,0.0,0.0,0.0,0.0,0.0,0.0,0.0,0.0,0.0,0.0,0.0,0.0,0.0,0.0,0.0,0.0,0.0,0.0,0.0,0.0,0.0,0.0,0.0,0.0,0.0,0.0,0.0,0.0,0.0,0.0,0.0,0.0,0.0,0.0,3.4319,3.5248,3.5911,3.5533,3.5013,3.4378,0.0,0.0,0.0,0.0,0.0,0.0,0.0,0.0,0.0,0.0,0.0,0.0,0.0,0.0,0.0,0.0,0.0,0.0,0.0,0.0,0.0,0.0,0.0,0.0,0.0,0.0,0.0,0.0,0.0,0.0,0.0,0.0,0.0,0.0,0.0,0.0,0.0,0.0,0.0,0.0,0.0,0.0,0.0,0.0,0.0,0.0,0.0,0.0,0.0,0.0,0.0,0.0,0.0,0.0,0.0,0.0,0.0,0.0,0.0,0.0,0.0,0.0,0.0,0.0,0.0,0.0,0.0,0.0,0.0,0.0,0.0,0.0,0.0,0.0,0.0,0.0,0.0,0.0,0.0,0.0,0.0,0.0,0.0,0.0,0.0,0.0,0.0,0.0,0.0,0.0,0.0,0.0,0.0,0.0,0.0,0.0,0.0,0.0,0.0,0.0,0.0,0.0,0.0,0.0,0.0,0.0,0.0,0.0,3.5528,3.5723,3.6961,3.9288,3.7926,3.7069,0.0,0.0,0.0,0.0,0.0,0.0,0.0,0.0,0.0,0.0,0.0,0.0,0.0,0.0,0.0,0.0,0.0,0.0,0.0,0.0,0.0,0.0,0.0,0.0,0.0,0.0,0.0,0.0,0.0,0.0,0.0,0.0,0.0,0.0,0.0,0.0,0.0,0.0,0.0,0.0,0.0,0.0,0.0,0.0,0.0,0.0,0.0,0.0,0.0,0.0,0.0,0.0,0.0,0.0,0.0,0.0,0.0,0.0,0.0,0.0,0.0,0.0,0.0,0.0,0.0,0.0,0.0,0.0,0.0,0.0,0.0,0.0,0.0,0.0,0.0,0.0,0.0,0.0,0.0,0.0,0.0,0.0,0.0,0.0,0.0,0.0,0.0,0.0,0.0,0.0,0.0,0.0,0.0,0.0,0.0,0.0,0.0,0.0,0.0,0.0,0.0,0.0,0.0,0.0,0.0,0.0,0.0,0.0,0.0,3.6618,3.7778,3.9062,4.0481,3.9457,3.8603,0.0,0.0,0.0,0.0,0.0,0.0,0.0,0.0,0.0,0.0,0.0,0.0,0.0,0.0,0.0,0.0,0.0,0.0,0.0,0.0,0.0,0.0,0.0,0.0,0.0,0.0,0.0,0.0,0.0,0.0,0.0,0.0,0.0,0.0,0.0,0.0,0.0,0.0,0.0,0.0,0.0,0.0,0.0,0.0,0.0,0.0,0.0,0.0,0.0,0.0,0.0,0.0,0.0,0.0,0.0,0.0,0.0,0.0,0.0,0.0,0.0,0.0,0.0,0.0,0.0,0.0,0.0,0.0,0.0,0.0,0.0,0.0,0.0,0.0,0.0,0.0,0.0,0.0,0.0,0.0,0.0,0.0,0.0,0.0,0.0,0.0,0.0,0.0,0.0,0.0,0.0,0.0,0.0,0.0,0.0,0.0,0.0,0.0,0.0,0.0,0.0,0.0,0.0,0.0,0.0,0.0,0.0,0.0,0.0,3.838,4.0124,4.1299,4.1861,4.1065,4.0187,0.0,0.0,0.0,0.0,0.0,0.0,0.0,0.0,0.0,0.0,0.0,0.0,0.0,0.0,0.0,0.0,0.0,0.0,0.0,0.0,0.0,0.0,0.0,0.0,0.0,0.0,0.0,0.0,0.0,0.0,0.0,0.0,0.0,0.0,0.0,0.0,0.0,0.0,0.0,0.0,0.0,0.0,0.0,0.0,0.0,0.0,0.0,0.0,0.0,0.0,0.0,0.0,0.0,0.0,0.0,0.0,0.0,0.0,0.0,0.0,0.0,0.0,0.0,0.0,0.0,0.0,0.0,0.0,0.0,0.0,0.0,0.0,0.0,0.0,0.0,0.0,0.0,0.0,0.0,0.0,0.0,0.0,0.0,0.0,0.0,0.0,0.0,0.0,0.0,0.0,0.0,0.0,0.0,0.0,0.0,0.0,0.0,0.0,0.0,0.0,0.0,0.0,0.0,0.0,0.0,0.0,0.0,0.0,3.7672,4.0879,4.258,4.34,4.3573,4.2722,4.1914,0.0,0.0,0.0,0.0,0.0,0.0,0.0,0.0,0.0,0.0,0.0,0.0,0.0,0.0,0.0,0.0,0.0,0.0,0.0,0.0,0.0,0.0,0.0,0.0,0.0,0.0,0.0,0.0,0.0,0.0,0.0,0.0,0.0,0.0,0.0,0.0,0.0,0.0,0.0,0.0,0.0,0.0,0.0,0.0,0.0,0.0,0.0,0.0,0.0,0.0,0.0,0.0,0.0,0.0,0.0,0.0,0.0,0.0,0.0,0.0,0.0,0.0,0.0,0.0,0.0,0.0,0.0,0.0,0.0,0.0,0.0,0.0,0.0,0.0,0.0,0.0,0.0,0.0,0.0,0.0,0.0,0.0,0.0,0.0,0.0,0.0,0.0,0.0,0.0,0.0,0.0,0.0,0.0,0.0,0.0,0.0,0.0,0.0,0.0,0.0,0.0,0.0,0.0,0.0,0.0,0.0,0.0,0.0,0.0,4.2846,4.3356,4.363,4.3667,4.3392,4.2605,0.0,0.0,0.0,0.0,0.0,0.0,0.0,0.0,0.0,0.0,0.0,0.0,0.0,0.0,0.0,0.0,0.0,0.0,0.0,0.0,0.0,0.0,0.0,0.0,0.0,0.0,0.0,0.0,0.0,0.0,0.0,0.0,0.0,0.0,0.0,0.0,0.0,0.0,0.0,0.0,0.0,0.0,0.0,0.0,0.0,0.0,0.0,0.0,0.0,0.0,0.0,0.0,0.0,0.0,0.0,0.0,0.0,0.0,0.0,0.0,0.0,0.0,0.0,0.0,0.0,0.0,0.0,0.0,0.0,0.0,0.0,0.0,0.0,0.0,0.0,0.0,0.0,0.0,0.0,0.0,0.0,0.0,0.0,0.0,0.0,0.0,0.0,0.0,0.0,0.0,0.0,0.0,0.0,0.0,0.0,0.0,0.0,0.0,0.0,0.0,0.0,0.0,0.0,0.0,0.0,0.0,0.0,0.0,0.0,4.5597,4.5597,4.5597,4.5594,4.5012,4.3997,4.2591,0.0,0.0,0.0,0.0,0.0,0.0,0.0,0.0,0.0,0.0,0.0,0.0,0.0,0.0,0.0,0.0,0.0,0.0,0.0,0.0,0.0,0.0,0.0,0.0,0.0,0.0,0.0,0.0,0.0,0.0,0.0,0.0,0.0,0.0,0.0,0.0,0.0,0.0,0.0,0.0,0.0,0.0,0.0,0.0,0.0,0.0,0.0,0.0,0.0,0.0,0.0,0.0,0.0,0.0,0.0,0.0,0.0,0.0,0.0,0.0,0.0,0.0,0.0,0.0,0.0,0.0,0.0,0.0,0.0,0.0,0.0,0.0,0.0,0.0,0.0,0.0,0.0,0.0,0.0,0.0,0.0,0.0,0.0,0.0,0.0,0.0,0.0,0.0,0.0,0.0,0.0,0.0,0.0,0.0,0.0,0.0,0.0,0.0,0.0,0.0,0.0,0.0,0.0,0.0,0.0,0.0,0.0,0.0,4.8915,4.8993,4.8915,4.872,4.7198,4.5909,0.0,0.0,0.0,0.0,0.0,0.0,0.0,0.0,0.0,0.0,0.0,0.0,0.0,0.0,0.0,0.0,0.0,0.0,0.0,0.0,0.0,0.0,0.0,0.0,0.0,0.0,0.0,0.0,0.0,0.0,0.0,0.0,0.0,0.0,0.0,0.0,0.0,0.0,0.0,0.0,0.0,0.0,0.0,0.0,0.0,0.0,0.0,0.0,0.0,0.0,0.0,0.0,0.0,0.0,0.0,0.0,0.0,0.0,0.0,0.0,0.0,0.0,0.0,0.0,0.0,0.0,0.0,0.0,0.0,0.0,0.0,0.0,0.0,0.0,0.0,0.0,0.0,0.0,0.0,0.0,0.0,0.0,0.0,0.0,0.0,0.0,0.0,0.0,0.0,0.0,0.0,0.0,0.0,0.0,0.0,0.0,0.0,0.0,0.0,0.0,0.0,0.0,0.0,0.0,0.0,0.0,0.0,0.0,0.0,5.0633,5.1336,5.075,4.8876,4.7783,4.6261,0.0,0.0,0.0,0.0,0.0,0.0,0.0,0.0,0.0,0.0,0.0,0.0,0.0,0.0,0.0,0.0,0.0,0.0,0.0,0.0,0.0,0.0,0.0,0.0,0.0,0.0,0.0,0.0,0.0,0.0,0.0,0.0,0.0,0.0,0.0,0.0,0.0,0.0,0.0,0.0,0.0,0.0,0.0,0.0,0.0,0.0,0.0,0.0,0.0,0.0,0.0,0.0,0.0,0.0,0.0,0.0,0.0,0.0,0.0,0.0,0.0,0.0,0.0,0.0,0.0,0.0,0.0,0.0,0.0,0.0,0.0,0.0,0.0,0.0,0.0,0.0,0.0,0.0,0.0,0.0,0.0,0.0,0.0,0.0,0.0,0.0,0.0,0.0,0.0,0.0,0.0,0.0,0.0,0.0,0.0,0.0,0.0,0.0,0.0,0.0,0.0,0.0,0.0,0.0,0.0,0.0,0.0,0.0,5.0282,5.2468,5.2975,5.2351,5.0477,4.9657,4.7978,0.0,0.0,0.0,0.0,0.0,0.0,0.0,0.0,0.0,0.0,0.0,0.0,0.0,0.0,0.0,0.0,0.0,0.0,0.0,0.0,0.0,0.0,0.0,0.0,0.0,0.0,0.0,0.0,0.0,0.0,0.0,0.0,0.0,0.0,0.0,0.0,0.0,0.0,0.0,0.0,0.0,0.0,0.0,0.0,0.0,0.0,0.0,0.0,0.0,0.0,0.0,0.0,0.0,0.0,0.0,0.0,0.0,0.0,0.0,0.0,0.0,0.0,0.0,0.0,0.0,0.0,0.0,0.0,0.0,0.0,0.0,0.0,0.0,0.0,0.0,0.0,0.0,0.0,0.0,0.0,0.0,0.0,0.0,0.0,0.0,0.0,0.0,0.0,0.0,0.0,0.0,0.0,0.0,0.0,0.0,0.0,0.0,0.0,0.0,0.0,0.0,0.0,0.0,0.0,0.0,0.0,0.0,0.0,5.2429,5.4225,5.4186,5.3756,5.2975,5.2038,5.0282,0.0,0.0,0.0,0.0,0.0,0.0,0.0,0.0,0.0,0.0,0.0,0.0,0.0,0.0,0.0,0.0,0.0,0.0,0.0,0.0,0.0,0.0,0.0,0.0,0.0,0.0,0.0,0.0,0.0,0.0,0.0,0.0,0.0,0.0,0.0,0.0,0.0,0.0,0.0,0.0,0.0,0.0,0.0,0.0,0.0,0.0,0.0,0.0,0.0,0.0,0.0,0.0,0.0,0.0,0.0,0.0,0.0,0.0,0.0,0.0,0.0,0.0,0.0,0.0,0.0,0.0,0.0,0.0,0.0,0.0,0.0,0.0,0.0,0.0,0.0,0.0,0.0,0.0,0.0,0.0,0.0,0.0,0.0,0.0,0.0,0.0,0.0,0.0,0.0,0.0,0.0,0.0,0.0,0.0,0.0,0.0,0.0,0.0,0.0,0.0,0.0,0.0,0.0,0.0,0.0,0.0,0.0,0.0,5.36,5.5942,5.5357,5.4927,5.4732,5.3249,5.0906,0.0,0.0,0.0,0.0,0.0,0.0,0.0,0.0,0.0,0.0,0.0,0.0,0.0,0.0,0.0,0.0,0.0,0.0,0.0,0.0,0.0,0.0,0.0,0.0,0.0,0.0,0.0,0.0,0.0,0.0,0.0,0.0,0.0,0.0,0.0,0.0,0.0,0.0,0.0,0.0,0.0,0.0,0.0,0.0,0.0,0.0,0.0,0.0,4.0999,0.0,0.0,0.0,0.0,0.0,0.0,0.0,0.0,0.0,0.0,0.0,0.0,0.0,0.0,0.0,0.0,0.0,0.0,0.0,0.0,0.0,0.0,0.0,0.0,0.0,0.0,0.0,0.0,0.0,0.0,0.0,0.0,0.0,0.0,0.0,0.0,0.0,0.0,0.0,0.0,0.0,0.0,0.0,0.0,0.0,0.0,0.0,0.0,0.0,0.0,0.0,0.0,0.0,0.0,0.0,0.0,0.0,0.0,0.0,5.5591,5.766,5.6918,5.6294,5.5903,5.5005,5.2897,0.0,0.0,0.0,0.0,0.0,0.0,0.0,0.0,0.0,0.0,0.0,0.0,0.0,0.0,0.0,0.0,0.0,0.0,0.0,0.0,0.0,0.0,0.0,0.0,0.0,0.0,0.0,0.0,0.0,0.0,0.0,0.0,0.0,0.0,0.0,0.0,0.0,0.0,0.0,0.0,0.0,0.0,0.0,0.0,0.0,0.0,0.0,0.0,0.0,0.0,0.0,0.0,0.0,0.0,0.0,0.0,0.0,0.0,0.0,0.0,0.0,0.0,0.0,0.0,0.0,0.0,0.0,0.0,0.0,0.0,0.0,0.0,0.0,0.0,0.0,0.0,0.0,0.0,0.0,0.0,0.0,0.0,0.0,0.0,0.0,0.0,0.0,0.0,0.0,0.0,0.0,0.0,0.0,0.0,0.0,0.0,0.0,0.0,0.0,0.0,0.0,0.0,0.0,0.0,0.0,0.0,0.0,5.5864,5.7465,5.9183,5.8441,5.7621,5.6801,5.6645,5.5083,5.1921,0.0,0.0,0.0,0.0,0.0,0.0,0.0,0.0,0.0,0.0,0.0,0.0,0.0,0.0,0.0,0.0,0.0,0.0,0.0,0.0,0.0,0.0,0.0,0.0,0.0,0.0,0.0,0.0,0.0,0.0,0.0,0.0,0.0,0.0,0.0,0.0,0.0,0.0,3.7572,3.9165,0.0,0.0,0.0,0.0,0.0,0.0,0.0,0.0,4.3537,0.0,0.0,0.0,0.0,0.0,0.0,0.0,0.0,0.0,0.0,0.0,0.0,0.0,0.0,0.0,0.0,0.0,0.0,0.0,0.0,0.0,0.0,0.0,0.0,0.0,0.0,0.0,0.0,0.0,0.0,0.0,0.0,0.0,0.0,0.0,0.0,0.0,0.0,0.0,0.0,0.0,0.0,0.0,0.0,0.0,0.0,0.0,0.0,0.0,0.0,0.0,0.0,0.0,0.0,0.0,0.0,5.6098,5.645,5.7738,6.0119,5.9339,5.848,5.7621,5.6957,5.563,5.36,0.0,0.0,0.0,0.0,0.0,0.0,0.0,0.0,0.0,0.0,0.0,0.0,0.0,0.0,0.0,0.0,0.0,0.0,0.0,0.0,0.0,0.0,0.0,0.0,0.0,0.0,0.0,0.0,0.0,0.0,0.0,0.0,0.0,0.0,0.0,0.0,0.0,0.0,0.0,4.2235,4.3524,0.0,0.0,0.0,0.0,0.0,0.0,0.0,0.0,4.5021,0.0,0.0,0.0,0.0,0.0,0.0,0.0,0.0,0.0,0.0,0.0,0.0,0.0,0.0,0.0,0.0,0.0,0.0,0.0,0.0,0.0,0.0,0.0,0.0,0.0,0.0,0.0,0.0,0.0,0.0,0.0,0.0,0.0,0.0,0.0,0.0,0.0,0.0,0.0,0.0,0.0,0.0,0.0,0.0,0.0,0.0,0.0,0.0,0.0,0.0,0.0,0.0,0.0,0.0,0.0,5.645,5.7894,5.9378,6.0978,6.0198,5.9339,5.8519,5.8089,5.6684,0.0,0.0,0.0,0.0,0.0,0.0,0.0,0.0,0.0,0.0,0.0,0.0,0.0,0.0,0.0,0.0,0.0,0.0,0.0,0.0,0.0,0.0,0.0,0.0,0.0,0.0,0.0,0.0,0.0,0.0,0.0,0.0,0.0,0.0,0.0,0.0,0.0,0.0,0.0,0.0,4.3704,4.5046,4.7303,0.0,0.0,0.0,0.0,0.0,0.0,4.8428,4.7303,0.0,0.0,0.0,0.0,0.0,0.0,0.0,0.0,0.0,0.0,0.0,0.0,0.0,0.0,0.0,0.0,0.0,0.0,0.0,0.0,0.0,0.0,0.0,0.0,0.0,0.0,0.0,0.0,0.0,0.0,0.0,0.0,0.0,0.0,0.0,0.0,0.0,0.0,0.0,0.0,0.0,0.0,0.0,0.0,0.0,0.0,0.0,0.0,0.0,0.0,0.0,0.0,0.0,0.0,0.0,5.6567,5.8909,6.0744,6.1876,6.1291,6.0432,5.9417,5.9534,5.7855,0.0,0.0,0.0,0.0,0.0,0.0,0.0,0.0,0.0,0.0,0.0,0.0,0.0,0.0,0.0,0.0,0.0,0.0,0.0,0.0,0.0,0.0,0.0,0.0,0.0,0.0,0.0,0.0,0.0,0.0,0.0,0.0,0.0,0.0,0.0,0.0,0.0,0.0,0.0,0.0,0.0,4.6629,4.9061,5.0703,0.0,0.0,0.0,0.0,5.1076,5.0246,0.0,0.0,0.0,0.0,0.0,0.0,0.0,0.0,0.0,0.0,0.0,0.0,0.0,0.0,0.0,0.0,0.0,0.0,0.0,0.0,0.0,0.0,0.0,0.0,0.0,0.0,0.0,0.0,0.0,0.0,0.0,0.0,0.0,0.0,0.0,0.0,0.0,0.0,0.0,0.0,0.0,0.0,0.0,0.0,0.0,0.0,0.0,0.0,0.0,0.0,0.0,0.0,0.0,0.0,0.0,0.0,5.6528,5.8363,6.0432,6.2696,6.2774,6.1915,6.0315,6.1017,5.9065,0.0,0.0,0.0,0.0,0.0,0.0,0.0,0.0,0.0,0.0,0.0,0.0,0.0,0.0,0.0,0.0,0.0,0.0,0.0,0.0,0.0,0.0,0.0,0.0,0.0,0.0,0.0,0.0,0.0,0.0,0.0,0.0,0.0,0.0,0.0,0.0,0.0,0.0,0.0,0.0,0.0,4.9099,5.0859,5.1943,5.2755,0.0,0.0,5.3672,5.3593,5.2839,0.0,0.0,0.0,0.0,0.0,0.0,0.0,0.0,0.0,0.0,0.0,0.0,0.0,0.0,0.0,0.0,0.0,0.0,0.0,0.0,0.0,0.0,0.0,0.0,0.0,0.0,0.0,0.0,0.0,0.0,0.0,0.0,0.0,0.0,0.0,0.0,0.0,0.0,0.0,0.0,0.0,0.0,0.0,0.0,0.0,0.0,0.0,0.0,0.0,0.0,0.0,0.0,0.0,0.0,0.0,5.481,5.727,5.9924,6.211,6.3672,6.375,6.2891,6.1174,6.1993,6.0471,0.0,0.0,0.0,0.0,0.0,0.0,0.0,0.0,0.0,0.0,0.0,0.0,0.0,0.0,0.0,0.0,0.0,0.0,0.0,0.0,0.0,0.0,0.0,0.0,0.0,0.0,0.0,0.0,0.0,0.0,0.0,0.0,0.0,0.0,0.0,0.0,0.0,0.0,0.0,0.0,0.0,0.0,5.1836,5.3318,0.0,0.0,0.0,5.5148,5.4176,0.0,0.0,0.0,0.0,0.0,0.0,0.0,0.0,0.0,0.0,0.0,0.0,0.0,0.0,0.0,0.0,0.0,0.0,0.0,0.0,0.0,0.0,0.0,0.0,0.0,0.0,0.0,0.0,0.0,0.0,0.0,0.0,0.0,0.0,0.0,0.0,0.0,0.0,0.0,0.0,0.0,0.0,0.0,0.0,0.0,0.0,0.0,0.0,0.0,0.0,0.0,0.0,0.0,0.0,0.0,0.0,0.0,5.8128,6.133,6.3633,6.4843,6.4726,6.4023,6.2735,6.3125,0.0,0.0,0.0,0.0,0.0,0.0,0.0,0.0,0.0,0.0,0.0,0.0,0.0,0.0,0.0,0.0,0.0,0.0,0.0,0.0,0.0,0.0,0.0,0.0,0.0,0.0,0.0,3.7009,0.0,0.0,0.0,0.0,0.0,0.0,0.0,0.0,0.0,0.0,0.0,0.0,0.0,0.0,5.0779,5.3319,5.4803,5.554,0.0,0.0,5.6692,5.5218,5.6067,5.6415,0.0,0.0,0.0,0.0,0.0,0.0,0.0,0.0,0.0,0.0,0.0,0.0,0.0,0.0,0.0,0.0,0.0,0.0,0.0,0.0,0.0,0.0,0.0,0.0,0.0,0.0,0.0,0.0,0.0,0.0,0.0,0.0,0.0,0.0,0.0,0.0,0.0,0.0,0.0,0.0,0.0,0.0,0.0,0.0,0.0,0.0,0.0,0.0,0.0,0.0,0.0,0.0,0.0,0.0,5.7348,5.9026,6.1642,6.4219,6.6522,6.5897,6.5468,6.5351,6.4609,6.2579,0.0,0.0,0.0,0.0,0.0,0.0,0.0,0.0,0.0,0.0,0.0,0.0,0.0,0.0,0.0,0.0,0.0,0.0,0.0,0.0,0.0,0.0,0.0,0.0,0.0,0.0,0.0,0.0,0.0,0.0,0.0,0.0,0.0,0.0,0.0,0.0,0.0,0.0,0.0,0.0,0.0,5.3373,5.5966,5.6426,5.7044,0.0,5.8853,5.8652,5.7781,5.7738,5.7504,5.6563,0.0,0.0,0.0,0.0,0.0,0.0,0.0,0.0,0.0,0.0,0.0,0.0,0.0,0.0,0.0,0.0,0.0,0.0,0.0,0.0,0.0,0.0,0.0,0.0,0.0,0.0,0.0,0.0,0.0,0.0,0.0,0.0,0.0,0.0,0.0,0.0,0.0,0.0,0.0,0.0,0.0,0.0,0.0,0.0,0.0,0.0,0.0,0.0,0.0,0.0,0.0,0.0,0.0,5.9261,5.9924,6.3477,6.6092,6.7537,6.781,6.742,6.6366,6.5546,6.4219,0.0,0.0,0.0,0.0,0.0,0.0,0.0,0.0,0.0,0.0,0.0,0.0,0.0,0.0,0.0,0.0,0.0,0.0,0.0,0.0,0.0,0.0,0.0,0.0,0.0,0.0,0.0,0.0,4.3762,4.4231,4.4036,0.0,0.0,0.0,0.0,0.0,0.0,0.0,0.0,0.0,0.0,5.4849,5.6383,5.7938,0.0,0.0,6.0011,6.0397,5.9573,6.0783,6.1213,5.9256,6.0115,0.0,0.0,0.0,0.0,0.0,0.0,0.0,0.0,0.0,0.0,0.0,0.0,0.0,0.0,0.0,0.0,0.0,0.0,0.0,0.0,0.0,0.0,0.0,0.0,0.0,0.0,0.0,0.0,0.0,0.0,0.0,0.0,0.0,0.0,0.0,0.0,0.0,0.0,0.0,0.0,0.0,0.0,0.0,0.0,0.0,0.0,0.0,0.0,0.0,0.0,0.0,0.0,6.0783,6.0822,6.4765,6.7342,6.8474,6.9059,6.8942,6.7966,6.6678,6.5663,0.0,0.0,0.0,0.0,0.0,0.0,0.0,0.0,0.0,0.0,0.0,0.0,0.0,0.0,0.0,0.0,0.0,0.0,0.0,0.0,0.0,0.0,0.0,0.0,0.0,0.0,0.0,0.0,4.6066,4.7002,4.6924,0.0,0.0,0.0,0.0,0.0,0.0,0.0,0.0,0.0,0.0,5.6758,5.7621,5.969,6.1056,6.07,6.211,6.293,6.2071,6.3282,6.3672,6.1837,0.0,0.0,0.0,0.0,0.0,0.0,0.0,0.0,0.0,0.0,0.0,0.0,0.0,0.0,0.0,0.0,0.0,0.0,0.0,0.0,0.0,0.0,0.0,0.0,0.0,0.0,0.0,4.3528,0.0,0.0,4.3372,0.0,0.0,0.0,0.0,0.0,0.0,0.0,0.0,0.0,0.0,0.0,0.0,0.0,0.0,0.0,0.0,0.0,0.0,0.0,0.0,0.0,0.0,6.172,6.1759,6.5116,6.7654,6.9294,6.9411,6.9801,7.0465,6.8122,6.6756,6.6678,0.0,0.0,0.0,0.0,0.0,0.0,0.0,0.0,0.0,0.0,0.0,0.0,0.0,0.0,0.0,0.0,0.0,0.0,0.0,0.0,0.0,0.0,0.0,0.0,0.0,0.0,4.3997,4.6807,4.9423,0.0,0.0,0.0,0.0,0.0,0.0,0.0,0.0,0.0,5.8675,5.9026,5.9339,6.0198,6.1837,6.3243,6.4023,6.5585,6.6405,6.5546,6.4882,6.4297,0.0,0.0,0.0,0.0,0.0,0.0,0.0,0.0,0.0,0.0,0.0,0.0,0.0,0.0,0.0,0.0,0.0,0.0,0.0,0.0,0.0,0.0,0.0,0.0,0.0,0.0,0.0,4.7939,4.7861,0.0,0.0,0.0,0.0,0.0,0.0,0.0,0.0,0.0,0.0,0.0,5.6255,5.7894,0.0,0.0,0.0,0.0,0.0,0.0,0.0,0.0,0.0,0.0,0.0,0.0,6.4843,6.4453,6.7107,6.9098,7.023,7.0816,7.0972,7.0699,6.9294,6.7966,6.6795,0.0,0.0,0.0,0.0,0.0,0.0,0.0,0.0,0.0,0.0,0.0,0.0,0.0,0.0,0.0,0.0,0.0,0.0,0.0,0.0,0.0,0.0,0.0,0.0,0.0,4.8646,0.0,0.0,0.0,0.0,0.0,0.0,0.0,0.0,0.0,0.0,0.0,5.7231,5.887,6.008,6.0939,6.1213,6.3711,6.5429,0.0,0.0,0.0,0.0,0.0,0.0,0.0,0.0,0.0,0.0,0.0,0.0,0.0,0.0,6.2969,6.1564,6.1056,6.0934,6.1252,0.0,0.0,0.0,0.0,0.0,0.0,0.0,0.0,0.0,0.0,0.0,0.0,0.0,0.0,5.2351,5.2273,5.1453,0.0,0.0,0.0,0.0,0.0,0.0,0.0,0.0,5.887,5.93,5.9339,6.0978,6.133,6.0627,6.1681,6.1056,0.0,0.0,0.0,0.0,0.0,0.0,0.0,0.0,6.7146,6.617,6.8552,7.0113,7.0699,7.1558,7.1714,7.1167,7.0309,6.9176,6.7732,6.6327,6.5546,0.0,0.0,0.0,0.0,0.0,0.0,0.0,0.0,0.0,0.0,0.0,0.0,0.0,0.0,0.0,0.0,0.0,0.0,0.0,0.0,0.0,0.0,0.0,5.3405,0.0,0.0,0.0,0.0,0.0,0.0,0.0,0.0,0.0,5.7309,5.8089,5.9339,6.0705,6.1915,6.2579,6.2618,0.0,0.0,0.0,0.0,0.0,0.0,0.0,7.0972,6.9255,6.945,6.9528,6.8708,6.7849,6.7459,6.8044,0.0,0.0,6.5116,6.4531,6.4414,6.4726,6.3867,6.3516,6.4882,6.5234,6.578,0.0,0.0,0.0,0.0,5.6523,0.0,0.0,0.0,5.6723,5.6762,0.0,5.5942,0.0,0.0,0.0,0.0,6.0354,6.0315,0.0,0.0,6.3711,6.4258,6.4258,6.4219,6.4687,6.5507,6.5468,6.5507,6.539,6.3086,0.0,0.0,0.0,0.0,0.0,0.0,6.863,6.7107,6.9411,7.0699,7.0816,7.1636,7.2026,7.2026,7.1201,7.0381,6.945,6.7141,6.5736,6.5619,6.2344,0.0,0.0,0.0,0.0,0.0,0.0,0.0,0.0,0.0,0.0,0.0,0.0,0.0,0.0,0.0,0.0,0.0,0.0,0.0,0.0,5.5201,0.0,0.0,0.0,0.0,0.0,0.0,0.0,0.0,0.0,6.1525,6.0744,6.1915,6.3321,6.4179,0.0,0.0,0.0,0.0,6.82,6.8239,7.0426,7.2065,7.2065,7.1441,7.0933,7.0855,0.0,0.0,6.945,6.8864,6.8903,7.0504,7.0113,6.9255,6.8474,6.7498,6.7107,6.7849,6.7966,6.7849,6.7303,6.8239,6.9137,5.9257,0.0,0.0,0.0,0.0,5.8858,5.9332,6.0237,6.0237,6.0588,6.1134,6.09,0.0,0.0,0.0,0.0,0.0,0.0,6.2618,6.4726,6.3828,6.4023,6.5194,6.4609,6.4453,6.4687,6.5312,6.5897,6.6444,6.6327,6.6522,6.699,0.0,0.0,0.0,0.0,7.0074,6.9684,7.0309,7.1324,7.2534,7.2807,7.2924,7.2924,7.2517,7.1945,7.1039,6.964,6.8253,6.6907,6.5414,0.0,0.0,0.0,0.0,0.0,0.0,0.0,0.0,0.0,0.0,0.0,0.0,0.0,0.0,0.0,0.0,0.0,0.0,0.0,5.5318,5.8363,6.0549,0.0,0.0,0.0,0.0,0.0,0.0,0.0,0.0,0.0,6.4921,6.3789,6.3555,0.0,0.0,6.5663,6.6834,6.8708,7.0191,7.0777,7.2534,0.0,7.3783,7.4095,7.4134,7.351,7.2963,7.2768,7.3002,7.2378,7.2143,7.3197,7.2729,7.226,7.2456,7.0426,6.8903,6.902,6.9528,7.0113,7.0465,7.0972,7.1558,6.1957,6.1439,6.1036,6.1313,6.2031,6.2082,6.2679,6.3631,6.3631,6.3962,6.4492,6.4492,6.4219,6.3711,6.3711,0.0,0.0,0.0,6.4765,6.6522,6.5155,6.5077,6.6014,6.5897,6.5975,6.6327,6.6873,6.7537,6.8357,6.8552,6.8981,6.9645,0.0,7.0191,7.1206,7.1558,7.1753,7.1714,7.1753,7.2417,7.3744,7.3783,7.3732,7.3696,7.3602,7.3235,7.2627,7.1373,7.016,6.9026,6.7842,6.6376,0.0,0.0,0.0,0.0,0.0,0.0,0.0,0.0,0.0,0.0,0.0,5.196,5.2616,0.0,0.0,0.0,5.7465,5.8128,5.9534,6.1837,0.0,0.0,0.0,0.0,0.0,0.0,0.0,6.293,6.4687,6.6249,6.6717,6.578,6.5429,6.6444,6.6873,6.7576,6.8942,0.0,7.1909,7.2456,7.3939,7.5032,7.5032,7.5735,7.6125,7.5618,7.554,7.554,7.554,7.511,7.4993,7.5345,7.511,7.4954,7.5423,7.3822,7.2182,7.1558,7.1831,7.2378,7.2885,7.3236,7.3822,6.4535,6.4508,6.3415,6.3761,6.507,6.507,6.562,6.6574,6.6585,6.6681,6.679,6.6873,6.6951,6.699,6.699,0.0,6.9255,6.7693,6.742,6.8161,6.7381,6.7029,6.7146,6.7849,6.863,6.9372,6.9411,6.984,7.0621,6.9957,7.0465,7.2065,7.2143,7.2182,7.2143,7.2885,7.3315,7.3315,7.3354,7.3816,7.4675,7.4753,7.471,7.4599,7.4548,7.4403,7.4049,7.2517,7.1571,7.1337,6.9705,6.8374,6.7526,0.0,0.0,0.0,0.0,0.0,0.0,0.0,0.0,0.0,0.0,0.0,0.0,0.0,0.0,6.0822,6.2345,0.0,6.4219,6.5155,0.0,0.0,0.0,6.6756,6.6717,6.6756,6.6249,6.4765,0.0,0.0,6.7107,6.781,6.8357,6.8513,6.9098,6.9879,7.0855,7.2456,7.3549,7.3822,7.511,7.6125,7.632,7.6906,7.7375,7.7335,7.7296,7.7296,7.7296,7.7179,7.7179,7.7296,7.7257,7.7218,7.7257,7.714,7.6828,7.5188,7.4837,7.4798,7.4915,7.554,7.6125,6.7431,6.8059,6.7745,6.691,6.5698,6.578,6.6045,6.6373,6.6513,6.6605,6.6711,6.7475,6.8161,6.8786,6.8786,6.863,6.8435,6.8669,6.8903,6.9059,6.8864,6.9137,6.9762,6.9333,6.9176,6.9372,6.9411,6.984,7.0699,7.1167,7.1948,7.2963,7.3588,7.3588,7.3041,7.3197,7.3315,7.3315,7.39,7.4889,7.6214,7.6877,7.717,7.6971,7.6827,7.6105,7.4801,7.4229,7.3022,7.1146,7.0581,6.9706,6.8381,6.7807,0.0,0.0,0.0,0.0,0.0,0.0,0.0,0.0,0.0,6.0744,6.0505,0.0,6.5038,0.0,6.5312,6.5468,6.4414,6.5624,0.0,0.0,6.6444,6.6561,6.5936,6.6405,6.6873,6.7185,6.7537,6.8279,6.9606,6.9957,7.0582,7.1831,7.1089,7.1167,7.3236,7.4486,7.5696,7.6945,7.8038,7.878,7.8819,7.8936,7.9131,7.9092,7.9092,7.9092,7.9092,7.8507,7.8311,7.8858,7.8507,7.839,7.9014,7.9092,7.8975,7.8507,7.7921,7.7492,7.7492,7.8155,7.8741,6.8196,6.8648,6.8717,6.7985,6.6872,6.7782,6.8243,6.8414,6.8524,6.8606,6.8681,6.9239,6.986,7.0419,7.0419,7.02,6.9879,6.9957,6.9996,6.9957,6.9996,7.023,7.0738,7.1011,7.1128,7.1167,7.1519,7.1909,7.2378,7.2885,7.3354,7.3822,7.429,7.4642,7.4954,7.4603,7.4798,7.5579,7.6399,7.7238,7.8087,7.8555,7.9013,7.9465,7.8669,7.8031,7.7703,7.6178,7.4976,7.4322,7.3553,7.2608,7.1414,7.0902,7.0606,0.0,0.0,0.0,0.0,0.0,0.0,0.0,0.0,0.0,0.0,0.0,6.82,6.7381,6.699,6.6405,6.5507,6.66,6.7342,6.7303,6.8044,6.8513,6.8435,6.8513,6.8864,6.9723,6.9489,6.9918,7.1597,7.1831,7.2495,7.4173,7.4251,7.4642,7.5969,7.6984,7.8038,7.9366,8.0302,8.1161,8.1825,8.1981,8.1942,8.1981,8.1981,8.1981,8.1942,8.1591,8.1435,8.1825,8.1591,8.1356,8.1864,8.1981,8.1981,8.1903,8.1591,8.0849,7.9834,8.0263,8.0927,6.8547,6.8547,6.861,6.864,6.8755,7.0341,7.0853,7.0632,7.0681,7.0783,7.1048,7.124,7.149,7.1833,7.195,7.2043,7.2041,7.1409,7.1058,7.098,7.1111,7.1156,7.1234,7.2723,7.3471,7.351,7.429,7.4681,7.4681,7.4876,7.4993,7.4993,7.511,7.5969,7.7492,7.6867,7.714,7.8546,7.9522,8.0055,8.0111,8.0228,8.083,8.1892,8.0474,8.0144,8.097,7.813,7.7053,7.8207,7.6861,7.5553,7.4591,7.4091,7.2745,0.0,7.0283,0.0,0.0,0.0,0.0,0.0,0.0,0.0,0.0,6.9606,7.027,6.9606,6.8279,6.742,6.7303,6.8005,6.8747,6.9489,7.023,7.105,7.1831,7.1324,7.1206,7.2065,7.148,7.1714,7.3549,7.3861,7.4603,7.6516,7.8038,7.8975,7.9287,7.9795,8.0498,8.1356,8.2098,8.3035,8.4206,8.4636,8.4597,8.4714,8.4558,8.4831,8.4636,8.4636,8.4714,8.4714,8.4519,8.4636,8.4792,8.4714,8.4714,8.4558,8.448,8.3816,8.2176,8.2098,8.284,7.2024,7.2024,7.2057,7.2057,7.2095,7.2401,7.1076,6.8751,6.8847,6.9413,7.027,7.1042,7.1831,7.2578,7.3262,7.32,7.2609,7.3153,7.2998,7.2375,7.3196,7.3631,7.3641,7.407,7.4251,7.433,7.5149,7.554,7.5579,7.6984,7.7648,7.7687,7.835,7.9209,8.0224,0.0,0.0,0.0,8.1005,8.1948,8.2293,8.2993,8.3656,8.4203,8.3278,0.0,8.1093,7.9823,7.8592,7.7553,7.6553,0.0,0.0,0.0,0.0,0.0,0.0,0.0,0.0,0.0,0.0,0.0,7.0304,6.9918,6.8279,6.9059,6.9879,7.0387,7.0777,7.0738,7.0035,7.0113,7.027,7.0465,7.0582,7.105,7.187,7.187,7.2065,7.2924,7.2924,7.3744,7.6008,7.6984,7.8311,8.0498,8.1903,8.2801,8.3426,8.2996,8.3113,8.3894,8.4206,8.4441,8.4753,8.4948,8.5143,8.4831,8.4831,8.4909,8.4987,8.4948,8.487,8.4948,8.4831,8.4909,8.4909,8.4831,8.5026,8.4831,8.487,8.4675,8.4167,8.4206,8.4362,7.2979,7.2979,7.2979,7.2979,0.0,7.2979,7.2286,7.1121,7.0814,7.1014,7.1544,7.2018,7.2577,7.3098,7.3562,7.3588,7.3362,7.3777,7.4039,7.4211,7.5105,7.5824,7.634,7.6809,7.7062,7.7101,7.7531,7.7726,7.7765,7.8585,7.9053,7.9053,7.9483,8.0537,8.2215,8.2999,8.2543,8.0865,8.2114,8.2793,8.2941,8.3738,8.4676,8.5574,8.4416,0.0,0.0,0.0,0.0,0.0,0.0,0.0,0.0,7.6169,0.0,7.3053,7.3245,7.3091,7.2283,7.2283,7.2206,7.1876,7.2069,7.1594,6.9991,7.0387,7.0855,7.1324,7.1753,7.1831,7.1402,7.1714,7.1987,7.1987,7.2339,7.2924,7.3705,7.3861,7.4408,7.5618,7.6203,7.7179,7.878,7.9795,8.0966,8.2645,8.4011,8.5104,8.5768,8.4948,8.448,8.5338,8.6275,8.6744,8.6783,8.7134,8.7329,8.7368,8.7368,8.7368,8.7368,8.7368,8.7368,8.7368,8.7368,8.7368,8.7368,8.7368,8.7368,8.7368,8.7368,8.7368,8.729,8.6353,8.5729,7.3896,7.3896,7.3896,7.3896,7.3896,7.3858,7.424,7.4813,7.3892,0.0,0.0,7.3686,7.3914,7.4125,7.4306,7.4509,7.4771,7.4751,7.5271,7.6222,7.6858,7.7611,7.8477,7.9236,7.9674,7.983,7.9986,8.0142,8.0259,8.0415,8.0493,8.0493,8.0493,8.1546,8.3575,8.5039,8.4699,8.2723,8.3414,8.3804,8.3775,8.457,8.5584,8.6799,8.533,8.4947,8.5786,8.2939,8.1631,8.2208,8.0708,7.9092,7.763,7.7669,7.6284,7.3206,7.3014,7.2706,7.1898,7.2476,7.2965,7.3108,7.3403,7.3114,7.2015,7.2104,7.2221,7.2221,7.2495,7.269,7.269,7.3471,7.4056,7.4173,7.4798,7.554,7.636,7.6633,7.7296,7.8663,7.9522,8.0615,8.1747,8.2528,8.3426,8.4558,8.6041,8.7017,8.7486,8.6783,8.6197,8.69,8.7993,8.8852,8.9008,8.932,8.9984,8.9711,8.9828,8.9984,8.9984,8.9984,8.9984,8.9711,8.9984,8.9867,8.9945,8.975,8.9984,8.9984,8.9984,8.9984,8.9828,8.8305,8.7368,7.7258,7.7296,7.7296,7.7296,7.7296,7.7296,7.7373,7.7335,7.5876,7.5255,7.5293,7.6087,7.6459,7.6562,7.7354,7.7724,7.7776,7.7834,7.7929,7.8128,7.837,7.8602,7.874,7.9038,7.9576,8.0314,8.1014,8.1714,8.2452,8.317,8.3559,8.352,8.3559,8.3714,8.4142,8.5077,8.5289,8.4776,8.5755,8.651,8.7023,8.7862,8.8306,8.8348,8.7391,8.6313,8.5093,8.3208,8.217,8.2247,8.0708,7.9361,7.8438,7.9015,7.8246,7.5745,7.6169,7.6207,7.5322,7.5399,7.5505,7.5495,7.5716,7.4995,7.3048,7.3002,7.3119,7.3197,7.4447,7.5266,7.5305,7.6047,7.6789,7.7453,7.7765,7.8194,7.9053,7.9756,8.0341,8.0771,8.1396,8.2918,8.4831,8.5456,8.6392,8.8383,8.8891,8.9437,8.9516,8.9477,8.932,8.9398,8.9633,8.9828,8.9828,8.9906,9.014,8.9984,9.0101,9.0179,9.0218,9.0218,9.0218,9.0062,9.0179,9.014,9.0101,8.9984,9.014,9.0179,9.0218,9.014,9.0179,8.9672,8.9516,7.8939,7.9321,7.936,7.936,7.9398,7.9856,8.0086,8.0047,7.974,7.8553,7.6985,7.7364,7.7517,7.7628,7.8467,7.8952,7.9051,7.944,8.0023,8.0635,8.069,8.1028,8.1562,8.1695,8.1969,8.2378,8.2786,8.3194,8.3621,8.401,8.4204,8.4243,8.467,8.4842,8.4809,8.556,8.6133,8.6392,8.6984,8.7371,8.7549,8.8359,8.8798,8.8671,8.8286,8.7748,8.6978,8.5286,8.4132,8.3747,8.2054,8.0592,7.9323,7.9592,7.8861,7.6899,7.7092,7.6938,7.6053,7.6438,7.689,7.7304,7.7553,7.7235,7.6224,7.6015,7.5959,7.608,7.7218,7.7921,7.7921,7.8272,7.8663,7.9053,7.9131,7.9834,8.1435,8.2098,8.2879,8.4245,8.5221,8.6236,8.7368,8.7915,8.8501,8.9867,9.0335,9.0804,9.1272,9.1311,9.0999,9.0257,9.0374,9.0687,9.0726,9.1116,9.1311,9.135,9.135,9.135,9.135,9.135,9.1311,9.135,9.135,9.135,9.1311,9.135,9.135,9.135,9.135,9.135,9.135,9.135,9.1194,8.0506,8.1041,8.1041,8.1041,8.1117,8.1767,8.2073,8.2149,8.2684,8.1538,7.9321,7.913,7.913,7.9207,7.9855,8.0269,8.0481,8.0953,8.1733,8.2603,8.2584,8.3017,8.3708,8.3885,8.4025,8.418,8.4305,8.4444,8.4599,8.4599,8.4638,8.4715,8.5491,8.586,8.5699,8.6693,8.7464,8.7902,8.8321,8.8352,8.7979,8.8632,8.8979,8.8979,8.8944,8.8863,8.8632,8.6983,8.5791,8.5132,8.3516,8.2016,8.0785,8.0669,8.0054,7.8861,7.8707,7.8438,7.7823,7.8314,7.8998,7.9576,7.9785,7.9915,7.99,7.9615,7.9234,7.9088,7.965,8.0243,8.053,8.0771,8.0849,8.0849,8.0849,8.1825,8.3699,8.4245,8.5182,8.7368,8.8461,8.8969,8.9359,8.9867,9.0335,9.0648,9.1155,9.1819,9.2365,9.2482,9.1897,9.1155,9.1155,9.1507,9.1624,9.2014,9.2365,9.2482,9.2443,9.2326,9.2365,9.2443,9.2482,9.2365,9.2404,9.2326,9.2443,9.2443,9.2404,9.2326,9.2287,9.2404,9.2326,9.2365,9.2287,8.2684,8.276,8.276,8.276,8.276,8.2875,8.2913,8.2913,8.299,8.2875,8.2455,8.2531,8.2455,8.2569,8.2682,8.2758,8.2794,8.3019,8.3093,8.3239,8.3269,8.3341,8.3561,8.3657,8.4042,8.4766,8.4882,8.5337,8.5915,8.5953,8.5921,8.6037,8.6807,8.716,8.7214,8.8632,8.9517,8.9604,9.0479,9.0514,8.971,8.9748,8.9787,8.9787,8.9719,8.9374,8.8786,8.6987,8.5992,8.5863,8.4401,8.3433,8.3247,8.3208,8.3163,8.2901,8.2901,8.2978,8.2855,8.2964,8.2887,8.3118,8.2971,8.3054,8.3208,8.3266,8.2492,8.118,8.1337,8.2123,8.3068,8.3692,8.3919,8.3834,8.3997,8.4753,8.5683,8.6549,8.7446,8.8422,8.9477,9.014,9.0804,9.1077,9.1428,9.1936,9.2092,9.2287,9.2443,9.2482,9.2482,9.2248,9.2326,9.2326,9.2326,9.2404,9.2482,9.2482,9.2482,9.2482,9.2482,9.2482,9.2482,9.2482,9.2482,9.2482,9.2482,9.2482,9.2482,9.2482,9.2482,9.2482,9.2482,9.2482,9.2404,8.4059,8.448,8.448,8.448,8.448,8.448,8.448,8.448,8.448,8.448,8.4556,8.5015,8.4441,8.3066,8.3563,8.3869,8.3907,8.4366,8.4595,8.4595,8.4633,8.4632,8.4709,8.5317,8.5775,8.612,8.6726,8.7218,8.7487,8.7598,8.7632,8.7671,8.8017,8.8132,8.8175,8.879,8.9367,8.9799,9.0181,9.0411,9.0528,9.0601,9.0671,9.0671,9.0636,9.0521,9.0056,8.8521,8.7598,8.7517,8.5978,8.4863,8.4401,8.4401,8.4132,8.367,8.3593,8.3593,8.3593,8.3587,8.3587,8.3593,8.3599,8.3676,8.3715,8.3719,8.3552,8.348,8.3328,8.3509,8.3934,8.435,8.4568,8.4546,8.4974,8.5916,8.7331,8.8178,8.9213,9.068,9.1233,9.1546,9.1897,9.2014,9.2131,9.2443,9.2482,9.2482,9.2482,9.2482,9.2482,9.2482,9.2482,9.2482,9.2482,9.2482,9.2482,9.2482,9.2482,9.2482,9.2482,9.2482,9.2482,9.2482,9.2482,9.2482,9.2482,9.2482,9.2482,9.2482,9.2482,9.2482,9.2482,9.2482,9.2482,8.5664,8.6199,8.6199,8.6199,8.6199,8.6199,8.6199,8.6199,8.6237,8.6199,8.6275,8.6887,8.6161,8.4632,8.5053,8.532,8.5435,8.597,8.6199,8.6199,8.6239,8.6239,8.6315,8.6968,8.7313,8.7466,8.8038,8.8457,8.8493,8.8602,8.8637,8.8709,8.894,8.8983,8.8986,8.914,8.9566,8.9994,9.0108,9.0378,9.0839,9.1066,9.1139,9.1139,9.1103,9.1064,9.11,8.9717,8.8948,8.8983,8.7594,8.644,8.567,8.5593,8.5209,8.4401,8.4286,8.4286,8.4286,8.4286,8.4286,8.4297,8.445,8.4643,8.4681,8.483,8.5337,8.597,8.5694,8.5413,8.4962,8.5049,8.5127,8.5253,8.5983,8.7098,8.8733,8.9551,9.0454,9.2039,9.2105,9.2344,9.2403,9.2364,9.2412,9.2475,9.2482,9.2482,9.2482,9.2482,9.2482,9.2482,9.2482,9.2482,9.2482,9.2482,9.2482,9.2482,9.2482,9.2482,9.2482,9.2482,9.2482,9.2482,9.2482,9.2482,9.2482,9.2482,9.26,9.2522,9.2561,9.26,9.2482,9.2522,9.2639,8.7957,8.7957,8.7957,8.788,8.7957,8.7918,8.7918,8.7804,8.788,8.7918,8.7842,8.7995,8.7957,8.7727,8.7766,8.788,8.788,8.7804,8.7804,8.7804,8.7923,8.8039,8.8116,8.8232,8.8309,8.8309,8.8538,8.8614,8.8646,8.857,8.8563,8.8786,8.9412,8.9685,8.9688,9.0302,9.0723,9.0606,9.0685,9.0839,9.0877,9.0915,9.0915,9.0915,9.0799,9.0799,9.08,9.0033,8.961,8.9722,8.8902,8.8089,8.7363,8.7281,8.6858,8.6094,8.6017,8.5978,8.5978,8.5978,8.5978,8.6094,8.6637,8.7175,8.706,8.7594,8.8012,8.8435,8.8155,8.7746,8.6816,8.6651,8.6943,8.7523,8.7836,8.8711,9.0227,9.0461,9.0965,9.1763,9.2013,9.2137,9.2224,9.221,9.2323,9.2468,9.2482,9.2482,9.2482,9.2482,9.2482,9.2482,9.2482,9.2482,9.2522,9.2482,9.2482,9.2482,9.2482,9.2522,9.2522,9.2482,9.2522,9.2561,9.2678,9.2678,9.2561,9.26,9.2756,9.2834,9.2912,9.2912,9.3146,9.2717,9.2912,8.811,8.811,8.811,8.811,8.811,8.811,8.811,8.811,8.811,8.811,8.8186,8.8644,8.8874,8.8912,8.9447,8.9103,8.8148,8.811,8.811,8.811,8.8112,8.8112,8.815,8.8688,8.8995,8.9072,8.9571,8.9957,9.0033,9.0033,9.0071,9.0146,9.0378,9.0493,9.0494,9.0724,9.0838,9.0719,9.0759,9.0719,9.0755,9.0717,9.0717,9.0717,9.0798,9.0838,9.0877,9.0072,8.9649,8.9799,8.9021,8.8474,8.8286,8.8209,8.8094,8.7825,8.7786,8.7748,8.7743,8.7743,8.7743,8.7781,8.8017,8.8214,8.8291,8.8483,8.8671,8.8709,8.8709,8.8412,8.8219,8.8106,8.8275,8.8489,8.9189,8.9874,9.0537,9.1178,9.1802,9.2198,9.23,9.2312,9.244,9.2393,9.2412,9.2475,9.2522,9.2561,9.2522,9.2522,9.26,9.2522,9.2522,9.2717,9.3302,9.2795,9.2482,9.2482,9.2522,9.2561,9.26,9.2717,9.2756,9.3341,9.3341,9.3497,9.3615,9.3849,9.3849,9.3888,9.3927,9.3771,9.42,9.381,9.4044,8.8912,8.8912,8.8912,8.8912,8.8912,8.8912,8.8912,8.8912,8.8912,8.8912,8.9027,8.9485,8.9714,8.9829,9.0364,9.0058,8.895,8.8912,8.8912,8.8912,8.8912,8.8912,8.8988,8.9485,8.9867,9.0211,9.1059,9.1561,9.1604,9.1604,9.1643,9.1721,9.1681,9.1681,9.1604,9.1642,9.1523,9.1521,9.1521,9.1479,9.1395,9.1395,9.1395,9.1395,9.1521,9.1296,9.0836,9.0224,8.9995,9.0032,8.9566,8.921,8.9094,8.8825,8.8671,8.8671,8.8671,8.8705,8.8666,8.87,8.8666,8.8705,8.894,8.9098,8.9102,8.9329,8.9594,8.9825,8.994,8.9979,9.0283,9.0449,9.0134,8.9503,9.0122,9.0921,9.1218,9.2138,9.2735,9.3032,9.3146,9.3158,9.3213,9.3261,9.3348,9.3295,9.3341,9.3341,9.3341,9.3341,9.3341,9.3341,9.3458,9.3693,9.4083,9.3888,9.3646,9.3646,9.3458,9.3263,9.3146,9.3185,9.338,9.3966,9.4356,9.4591,9.4825,9.5059,9.5137,9.5176,9.4864,9.4591,9.4825,9.4942,9.5137,9.0555,9.0478,9.0593,9.044,9.0402,9.0364,9.0517,9.0402,9.044,9.0326,9.0287,9.0517,9.0478,9.0555,9.0555,9.0555,9.0402,9.0402,9.0402,9.0364,9.0478,9.0517,9.0517,9.0555,9.0861,9.1434,9.2504,9.2928,9.2863,9.2901,9.3019,9.3253,9.3019,9.2901,9.3131,9.2933,9.2962,9.2886,9.2847,9.2924,9.3077,9.2924,9.2886,9.2924,9.2924,9.2279,9.0822,9.0753,9.0834,9.0836,9.0875,9.0559,9.0059,8.9483,8.894,8.9133,8.894,8.8863,8.894,8.9094,8.9286,8.9329,8.9675,9.0213,9.0367,9.0829,9.1518,9.2056,9.2249,9.2595,9.3133,9.3246,9.2438,9.0556,9.1,9.1798,9.2426,9.3166,9.3803,9.3955,9.4086,9.4446,9.4645,9.4496,9.4459,9.4627,9.4731,9.4739,9.4669,9.4669,9.4942,9.4942,9.4669,9.4591,9.4864,9.5098,9.5091,9.5052,9.4786,9.4591,9.4395,9.4395,9.4512,9.4981,9.5449,9.5684,9.5723,9.5918,9.5762,9.5723,9.5488,9.5527,9.5723,9.5918,9.5957,9.0631,9.0631,9.0631,9.0631,9.0631,9.0631,9.0631,9.0631,9.0631,9.0631,9.0631,9.0631,9.0631,9.0631,9.0631,9.0631,9.0669,9.1128,9.1128,9.0822,9.1166,9.1434,9.1434,9.1434,9.1281,9.1166,9.1816,9.2236,9.2432,9.289,9.32,9.3162,9.32,9.312,9.3196,9.3115,9.3115,9.3115,9.3115,9.3115,9.3115,9.3115,9.3115,9.3115,9.3115,9.2809,9.2351,9.2355,9.2397,9.2404,9.2444,9.245,9.233,9.2215,9.21,9.2133,9.2133,9.2168,9.213,9.2053,9.2014,9.213,9.2326,9.2518,9.2518,9.2672,9.2979,9.3287,9.3326,9.348,9.3633,9.3672,9.3326,9.2595,9.2916,9.3238,9.3585,9.3998,9.4163,9.4302,9.4357,9.4423,9.4524,9.4582,9.479,9.4966,9.503,9.5054,9.5113,9.5239,9.5098,9.5098,9.5137,9.5407,9.56,9.5797,9.5823,9.581,9.5699,9.5573,9.5465,9.5527,9.5645,9.5918,9.6386,9.6621,9.6699,9.666,9.6542,9.6699,9.6777,9.6816,9.6855,9.6855,9.6816,9.0631,9.0631,9.0631,9.0631,9.0631,9.0631,9.0631,9.0631,9.0631,9.0631,9.0631,9.0631,9.0784,9.1013,9.1052,9.1243,9.1548,9.2083,9.2007,9.1625,9.2007,9.2274,9.2351,9.2656,9.2542,9.2274,9.2847,9.3191,9.3229,9.3726,9.4032,9.4032,9.4032,9.407,9.4032,9.4032,9.4032,9.4032,9.407,9.4032,9.4032,9.4032,9.4032,9.4032,9.4032,9.4032,9.4032,9.4032,9.3769,9.3277,9.3204,9.3287,9.3447,9.3486,9.3639,9.3676,9.3672,9.3633,9.3708,9.3515,9.3708,9.3672,9.371,9.3674,9.3674,9.371,9.3787,9.4095,9.4172,9.4326,9.4595,9.4672,9.4672,9.4672,9.4463,9.4628,9.4814,9.5089,9.5222,9.5325,9.5383,9.5351,9.5351,9.5373,9.5416,9.5572,9.5608,9.5625,9.5771,9.5823,9.5758,9.5758,9.5952,9.6164,9.6326,9.6446,9.6565,9.652,9.6444,9.6343,9.6263,9.644,9.6582,9.6777,9.7167,9.7167,9.7245,9.7362,9.7323,9.7675,9.7675,9.7518,9.7323,9.7401,9.7401,9.0631,9.0631,9.0631,9.0631,9.0631,9.0708,9.0784,9.0746,9.0861,9.0937,9.0899,9.0975,9.1281,9.1778,9.1892,9.2236,9.2962,9.3115,9.3153,9.3115,9.3268,9.3306,9.3268,9.3803,9.3917,9.4032,9.4758,9.5216,9.4949,9.5216,9.5598,9.5407,9.5331,9.5522,9.5369,9.5522,9.5407,9.5331,9.5446,9.5407,9.5446,9.5484,9.5446,9.5446,9.5407,9.5407,9.5331,9.5331,9.4758,9.3497,9.3506,9.3583,9.3464,9.3598,9.387,9.3984,9.3905,9.4018,9.3941,9.4134,9.4095,9.4136,9.4099,9.383,9.406,9.4212,9.4441,9.498,9.5057,9.5365,9.5942,9.6057,9.6095,9.6134,9.5516,9.5476,9.6132,9.6332,9.6259,9.6396,9.6773,9.6881,9.6655,9.6655,9.6679,9.6749,9.671,9.6655,9.6719,9.6663,9.6893,9.6836,9.6624,9.6564,9.6599,9.6555,9.6625,9.6552,9.6599,9.668,9.6756,9.6965,9.7134,9.7377,9.7597,9.7675,9.7675,9.7675,9.7675,9.7675,9.7675,9.7675,9.7714,9.7714,9.7792,9.0631,9.0631,9.0631,9.0631,9.0708,9.1204,9.1472,9.1548,9.216,9.2274,9.2389,9.2427,9.2504,9.2733,9.2771,9.2924,9.3268,9.3803,9.407,9.4185,9.472,9.4567,9.4185,9.4261,9.4108,9.3764,9.449,9.472,9.4758,9.5331,9.5598,9.5598,9.5598,9.5598,9.5598,9.5598,9.5598,9.5598,9.5598,9.5598,9.5598,9.5598,9.5598,9.5598,9.5598,9.5598,9.5598,9.5598,9.5484,9.5025,9.4954,9.5079,9.5048,9.5172,9.5252,9.5406,9.552,9.5595,9.5557,9.5557,9.5557,9.5597,9.5405,9.5597,9.5597,9.5595,9.5711,9.5942,9.5942,9.6019,9.6249,9.6288,9.6288,9.6288,9.6019,9.598,9.6211,9.6361,9.6394,9.639,9.6492,9.6519,9.6519,9.6552,9.6576,9.6687,9.6732,9.6759,9.6863,9.6912,9.6888,9.6959,9.6849,9.6771,9.6734,9.6693,9.6619,9.6474,9.6551,9.6732,9.6856,9.7115,9.7213,9.7357,9.7572,9.7675,9.7675,9.7675,9.7675,9.7792,9.7831,9.7909,9.7792,9.7753,9.7909,9.0631,9.0631,9.0631,9.0784,9.109,9.1243,9.1472,9.1854,9.2312,9.2542,9.2618,9.2962,9.3306,9.365,9.365,9.3879,9.4223,9.4681,9.4872,9.4949,9.5331,9.5293,9.4987,9.4911,9.4605,9.4261,9.4643,9.4911,9.4987,9.5369,9.556,9.5598,9.5598,9.5598,9.5598,9.5598,9.5598,9.5598,9.5598,9.5598,9.5598,9.5598,9.5598,9.5598,9.5598,9.5598,9.5598,9.5598,9.5598,9.5598,9.5598,9.5691,9.5821,9.5862,9.5981,9.6213,9.6251,9.6249,9.6288,9.6288,9.6288,9.6288,9.6288,9.6288,9.6249,9.6288,9.6288,9.6249,9.6288,9.6288,9.6288,9.6288,9.6288,9.6288,9.6288,9.6288,9.6288,9.6288,9.6288,9.6288,9.6288,9.6288,9.6288,9.6288,9.6358,9.6459,9.6448,9.6545,9.6637,9.6687,9.6743,9.6771,9.6771,9.6628,9.6576,9.6513,9.6513,9.6394,9.639,9.6598,9.6863,9.7071,9.7238,9.7316,9.7544,9.7714,9.7792,9.787,9.7987,9.8065,9.8104,9.8377,9.8494,9.8416,9.8455,9.0669,9.0746,9.0631,9.1128,9.1739,9.1204,9.1548,9.2045,9.2465,9.2504,9.2656,9.3115,9.3917,9.4529,9.4529,9.4872,9.5484,9.5446,9.5522,9.5522,9.5598,9.5522,9.5484,9.5446,9.5407,9.5369,9.556,9.556,9.5484,9.556,9.5598,9.5598,9.5598,9.5598,9.5598,9.5598,9.5598,9.5598,9.5598,9.5598,9.5598,9.5598,9.5598,9.5598,9.5598,9.5598,9.5598,9.5598,9.5598,9.5598,9.5598,9.5691,9.5783,9.5862,9.5981,9.6098,9.6251,9.6288,9.6288,9.6288,9.6288,9.6288,9.6288,9.6288,9.6288,9.6288,9.6288,9.6288,9.6288,9.6288,9.6288,9.6288,9.6288,9.6288,9.6288,9.6288,9.6288,9.6288,9.6288,9.6288,9.6288,9.6288,9.6288,9.6288,9.6288,9.6358,9.632,9.639,9.6459,9.6454,9.6459,9.6425,9.639,9.6322,9.6322,9.6286,9.6322,9.6325,9.6325,9.6454,9.6715,9.6936,9.711,9.7325,9.7669,9.7944,9.8104,9.8182,9.8455,9.8768,9.908,9.9509,9.9861,9.9627,9.9548,9.0975,9.151,9.0899,9.1472,9.2656,9.2656,9.3038,9.3803,9.4452,9.449,9.4758,9.4949,9.5102,9.5293,9.5293,9.5484,9.5598,9.5598,9.5598,9.5598,9.5598,9.5598,9.5598,9.5598,9.5598,9.5598,9.5598,9.5598,9.5598,9.5598,9.5598,9.5598,9.5598,9.5598,9.5598,9.5598,9.5598,9.5598,9.5598,9.5598,9.5598,9.5598,9.5598,9.5598,9.5598,9.5598,9.5598,9.5598,9.5598,9.5598,9.5598,9.5648,9.5776,9.5859,9.5941,9.6098,9.6213,9.6288,9.6288,9.6288,9.6288,9.6288,9.6288,9.6288,9.6288,9.6288,9.6288,9.6288,9.6288,9.6288,9.6288,9.6288,9.6288,9.6288,9.6288,9.6288,9.6288,9.6288,9.6288,9.6288,9.6288,9.6288,9.6288,9.6288,9.6288,9.6288,9.6288,9.6288,9.6288,9.6288,9.6288,9.6288,9.6288,9.6288,9.6365,9.6442,9.6596,9.6711,9.6749,9.6788,9.7015,9.7035,9.7328,9.7634,9.7917,9.8201,9.8607,9.9197,9.9588,9.9822,10.0056,10.0329,10.0563,10.0524,10.0642,9.109,9.1739,9.1357,9.216,9.3497,9.3306,9.3612,9.4376,9.4834,9.5025,9.514,9.5407,9.5598,9.5598,9.5598,9.5598,9.5598,9.5598,9.5598,9.5598,9.5598,9.5598,9.5598,9.5598,9.5598,9.5598,9.5598,9.5598,9.5598,9.5598,9.5598,9.5598,9.5598,9.5598,9.5598,9.5598,9.5598,9.5598,9.5598,9.5598,9.5598,9.5598,9.5598,9.5598,9.5598,9.5598,9.5598,9.5598,9.5598,9.5598,9.5598,9.5681,9.5768,9.5814,9.5938,9.6098,9.6136,9.6251,9.6251,9.6288,9.6288,9.6288,9.6288,9.6288,9.6288,9.6288,9.6288,9.6288,9.6288,9.6288,9.6288,9.6288,9.6288,9.6288,9.6288,9.6288,9.6288,9.6288,9.6288,9.6288,9.6288,9.6288,9.6288,9.6288,9.6288,9.6288,9.6288,9.6288,9.6288,9.6288,9.6288,9.6288,9.6288,9.6326,9.6403,9.6634,9.698,9.725,9.7557,9.7711,9.7935,9.7838,9.7704,9.8014,9.8373,9.8985,9.9449,10.009,10.0595,10.0759,10.0915,10.111,10.1344,10.1618,10.1735,9.1319,9.216,9.2045,9.3,9.4299,9.3688,9.3841,9.4567,9.4567,9.4796,9.472,9.5331,9.5598,9.5598,9.5598,9.5598,9.5598,9.5598,9.5598,9.5598,9.5598,9.5598,9.5598,9.5598,9.5598,9.5598,9.5598,9.5598,9.5598,9.5598,9.5598,9.5598,9.5598,9.5598,9.5598,9.5598,9.5598,9.5598,9.5598,9.5598,9.5598,9.5598,9.5598,9.5598,9.5598,9.5598,9.5598,9.5598,9.5598,9.5598,9.5598,9.5637,9.5757,9.5806,9.5895,9.6058,9.6058,9.6136,9.6251,9.6251,9.6288,9.6288,9.6288,9.6288,9.6288,9.6288,9.6288,9.6288,9.6288,9.6288,9.6288,9.6288,9.6288,9.6288,9.6288,9.6288,9.6288,9.6288,9.6288,9.6288,9.6288,9.6288,9.6288,9.6288,9.6288,9.6326,9.6365,9.6403,9.648,9.6557,9.6711,9.7019,9.7211,9.7288,9.7365,9.7365,9.7673,9.7904,9.8288,9.8481,9.8711,9.8785,9.8653,9.8554,9.893,9.958,10.0247,10.0775,10.1211,10.1523,10.1735,10.1852,10.2242,10.2711,10.2633,9.2504,9.3917,9.3191,9.3879,9.514,9.4529,9.4681,9.5331,9.5446,9.5407,9.5446,9.556,9.5675,9.5637,9.5598,9.5598,9.5598,9.5598,9.5598,9.5598,9.5598,9.5598,9.5598,9.5598,9.5598,9.5598,9.5598,9.5598,9.5598,9.5598,9.5598,9.5598,9.5598,9.5598,9.5598,9.5598,9.5598,9.5598,9.5598,9.5598,9.5598,9.5598,9.5598,9.5598,9.5598,9.5598,9.5598,9.5598,9.5598,9.5598,9.5598,9.5598,9.5681,9.5724,9.581,9.5856,9.6019,9.6098,9.6136,9.6251,9.6288,9.6288,9.6288,9.6288,9.6288,9.6288,9.6288,9.6288,9.6288,9.6288,9.6288,9.6288,9.6288,9.6288,9.6365,9.6365,9.6365,9.648,9.6557,9.6673,9.6519,9.6403,9.6519,9.6634,9.6711,9.6826,9.6942,9.7134,9.7326,9.7442,9.7596,9.8019,9.8481,9.8519,9.8519,9.8481,9.8596,9.8634,9.8904,9.9019,9.9288,9.9635,9.9666,9.9558,9.9735,10.0366,10.096,10.1439,10.1802,10.2035,10.2314,10.2585,10.2655,10.2724,10.2789,9.3229,9.4338,9.3955,9.449,9.5484,9.5675,9.5904,9.6286,9.6706,9.6898,9.6783,9.6477,9.6286,9.6172,9.5713,9.5598,9.5637,9.5598,9.5598,9.5598,9.5598,9.5598,9.5598,9.5598,9.5598,9.5598,9.5598,9.5598,9.5598,9.5598,9.5598,9.5598,9.5598,9.5598,9.5598,9.5598,9.5598,9.5598,9.5598,9.5598,9.5598,9.5598,9.5598,9.5598,9.5598,9.5598,9.5598,9.5598,9.5598,9.5598,9.5598,9.5598,9.5643,9.5643,9.5768,9.5772,9.5938,9.6058,9.6098,9.6213,9.6288,9.6288,9.6288,9.6288,9.6288,9.6288,9.6326,9.6326,9.6288,9.6288,9.6288,9.6365,9.6288,9.6365,9.6673,9.6903,9.7019,9.7326,9.7403,9.7288,9.6865,9.6749,9.698,9.7096,9.725,9.7365,9.748,9.7788,9.8096,9.8288,9.8404,9.875,9.9135,9.9135,9.925,9.9404,9.9442,9.9481,9.9635,9.975,9.9942,10.0327,10.0481,10.0476,10.0833,10.1042,10.1336,10.1712,10.2129,10.2445,10.2465,10.2542,10.2605,10.2694,10.2733,9.4108,9.4911,9.5102,9.5522,9.6172,9.6821,9.7127,9.7241,9.7547,9.77,9.7738,9.7012,9.6668,9.6745,9.6439,9.6172,9.6095,9.6172,9.6133,9.5942,9.5942,9.5866,9.5637,9.5598,9.5598,9.5598,9.5598,9.5598,9.5598,9.5598,9.5598,9.5598,9.5598,9.5598,9.5598,9.5598,9.5598,9.5598,9.5598,9.5598,9.5598,9.5598,9.5598,9.5598,9.5598,9.5598,9.5598,9.5598,9.5598,9.5598,9.5598,9.5598,9.5598,9.5598,9.5643,9.5729,9.5856,9.5938,9.6058,9.6174,9.6249,9.6288,9.6288,9.6288,9.6403,9.648,9.6596,9.6557,9.6826,9.6942,9.7057,9.6865,9.6903,9.7019,9.7442,9.7788,9.7904,9.8134,9.8365,9.8019,9.7326,9.7326,9.775,9.7788,9.7942,9.8019,9.8173,9.8596,9.8904,9.9019,9.9173,9.9404,9.9596,9.9635,9.9827,10.0173,10.025,10.0327,10.0481,10.0673,10.0866,10.1135,10.1097,10.0981,10.1169,10.1335,10.1688,10.1863,10.2117,10.2265,10.2379,10.2514,10.2644,10.2714,10.2781,9.5828,9.6668,9.7356,9.7738,9.7738,9.7891,9.7929,9.7853,9.7394,9.705,9.7318,9.6324,9.6363,9.6898,9.7547,9.77,9.77,9.7547,9.7203,9.6783,9.6745,9.6401,9.5789,9.5598,9.5789,9.5828,9.5713,9.5598,9.5598,9.5598,9.5598,9.5598,9.5598,9.5598,9.5598,9.5598,9.5598,9.5598,9.5598,9.5598,9.5598,9.5598,9.5598,9.5598,9.5598,9.5675,9.5751,9.5789,9.5751,9.5789,9.5713,9.5637,9.5598,9.5598,9.5598,9.5643,9.5729,9.5856,9.6056,9.6213,9.6442,9.6557,9.6519,9.6326,9.6673,9.7096,9.7365,9.7403,9.7942,9.825,9.8173,9.8365,9.8442,9.8404,9.8442,9.8596,9.8711,9.9135,9.9365,9.9288,9.8711,9.8596,9.8788,9.8711,9.8673,9.875,9.8904,9.9327,9.9673,9.9827,9.9981,10.0212,10.0327,10.0327,10.0289,10.0673,10.0789,10.0943,10.1096,10.1289,10.1289,10.1289,10.1289,10.1251,10.1365,10.1437,10.1572,10.1787,10.1971,10.214,10.2285,10.2514,10.2763,10.2781,10.2789,9.7241,9.7585,9.7967,9.8082,9.8082,9.8082,9.8082,9.8044,9.7776,9.7853,9.8082,9.7394,9.7241,9.7662,9.8006,9.8082,9.8082,9.8158,9.7967,9.7662,9.7547,9.7356,9.7165,9.6974,9.6898,9.6363,9.6248,9.6019,9.5828,9.5675,9.5598,9.5598,9.5598,9.5598,9.5598,9.5598,9.5598,9.5598,9.5598,9.5598,9.5598,9.5637,9.5637,9.5637,9.5675,9.5904,9.6248,9.6324,9.6592,9.6859,9.7012,9.7012,9.7012,9.705,9.705,9.7183,9.7183,9.704,9.6744,9.6789,9.7058,9.7556,9.7634,9.7788,9.7788,9.798,9.825,9.825,9.8557,9.8827,9.8865,9.8788,9.8788,9.8904,9.9327,9.9481,9.9635,10.0135,10.0366,10.025,10.0135,9.9942,9.975,9.9635,9.9712,9.9981,10.0058,10.0327,10.0596,10.0712,10.0866,10.1019,10.1058,10.1096,10.1019,10.1135,10.1058,10.1135,10.1173,10.1289,10.1289,10.1289,10.1289,10.1289,10.1328,10.1402,10.1473,10.1538,10.1703,10.1957,10.2178,10.2413,10.2644,10.2781,10.2789,9.8082,9.8082,9.8082,9.8082,9.8082,9.8082,9.8082,9.8082,9.7815,9.8235,9.8808,9.8541,9.8388,9.8541,9.8693,9.8923,9.8808,9.8732,9.8579,9.8502,9.8388,9.8235,9.7967,9.7929,9.77,9.7203,9.7203,9.6936,9.6515,9.6248,9.621,9.5637,9.5598,9.5598,9.5598,9.5637,9.5675,9.6019,9.6019,9.6133,9.6324,9.6363,9.6324,9.6286,9.6324,9.6554,9.7089,9.7203,9.7547,9.7815,9.7929,9.7853,9.7853,9.7853,9.7853,9.7943,9.7987,9.8074,9.7856,9.7863,9.8173,9.8519,9.8788,9.8519,9.8673,9.8904,9.9096,9.9135,9.9481,9.9519,9.9442,9.9519,9.9635,9.9865,10.0096,10.025,10.0404,10.0712,10.0904,10.0827,10.0789,10.0943,10.075,10.0558,10.0712,10.1135,10.1289,10.1289,10.1289,10.1289,10.1289,10.1289,10.1289,10.1289,10.1289,10.1289,10.1289,10.1289,10.1289,10.1289,10.1289,10.1289,10.1289,10.1289,10.1289,10.1328,10.1402,10.1365,10.1402,10.1817,10.2162,10.2342,10.2514,10.2694,10.2781,9.8082,9.8082,9.8082,9.8082,9.8082,9.8082,9.8082,9.8044,9.7356,9.7585,9.8502,9.8923,9.9305,9.9419,9.9878,10.0183,10.0336,10.0413,9.9878,9.9458,9.9266,9.8923,9.8655,9.8426,9.8235,9.8044,9.8044,9.7967,9.7815,9.7471,9.6821,9.5866,9.6057,9.5789,9.5789,9.6057,9.6324,9.6668,9.6821,9.7127,9.7509,9.77,9.77,9.7738,9.7853,9.7967,9.8044,9.8044,9.8197,9.8395,9.8464,9.8464,9.8579,9.8541,9.8541,9.8631,9.872,9.8959,9.9163,9.8859,9.8711,9.8789,9.8942,9.9173,9.9288,9.9712,9.9942,10.0019,10.0366,10.075,10.0904,10.1096,10.0712,10.0712,10.0712,10.0789,10.0904,10.1019,10.1212,10.125,10.1289,10.1289,10.1289,10.0981,10.0904,10.125,10.1289,10.1289,10.1289,10.1289,10.1289,10.1289,10.1289,10.1289,10.1289,10.1289,10.1289,10.1289,10.1289,10.1289,10.1289,10.1289,10.1289,10.1289,10.1289,10.1289,10.1289,10.1328,10.1473,10.1863,10.214,10.2225,10.2445,10.2704,10.2781,9.705,9.663,9.7127,9.7662,9.8082,9.7585,9.7662,9.7929,9.728,9.77,9.8923,9.9725,10.0145,10.026,10.0375,10.0604,10.0604,10.0604,10.0336,10.026,10.0069,9.9916,9.9649,9.9458,9.9458,9.9037,9.8884,9.8541,9.8082,9.8273,9.7891,9.728,9.7127,9.7165,9.7165,9.6974,9.728,9.7471,9.7662,9.7853,9.7967,9.8082,9.8082,9.8082,9.8082,9.8426,9.877,9.8884,9.919,9.9458,9.9534,9.9496,9.9496,9.9496,9.9542,9.9587,9.972,10.0037,10.0279,9.9936,9.971,10.025,10.0327,10.025,10.0173,10.0635,10.0789,10.0943,10.1058,10.1289,10.1289,10.125,10.1173,10.1289,10.1289,10.1289,10.1289,10.1289,10.1289,10.1289,10.1289,10.1289,10.1289,10.125,10.125,10.1289,10.1289,10.1289,10.1289,10.1289,10.1289,10.1289,10.1289,10.1289,10.1289,10.1289,10.1289,10.1289,10.1289,10.1289,10.1289,10.1289,10.1289,10.1289,10.1289,10.1289,10.1289,10.1289,10.1473,10.1778,10.1971,10.2046,10.2322,10.2704,10.2772,9.6401,9.5713,9.6248,9.7012,9.7662,9.7394,9.7585,9.7967,9.7547,9.8044,9.9458,10.0222,10.0604,10.0604,10.0604,10.0604,10.0604,10.0604,10.0604,10.0527,10.0527,10.0604,10.0604,10.0489,10.0145,9.984,9.9725,9.9419,9.9075,9.8884,9.8884,9.8884,9.8808,9.8655,9.8006,9.812,9.8235,9.8426,9.8502,9.8693,9.8808,9.8923,9.8923,9.8961,9.8999,9.9228,9.9649,9.9763,9.9954,10.026,10.0451,10.0527,10.0566,10.0604,10.065,10.0742,10.0913,10.1043,10.0973,10.0824,10.0633,10.1019,10.1135,10.1173,10.1289,10.1289,10.1173,10.1212,10.1289,10.1289,10.1289,10.1289,10.1289,10.1289,10.1289,10.1289,10.1289,10.1289,10.1289,10.1289,10.1289,10.1289,10.1289,10.1289,10.1289,10.1289,10.1289,10.1289,10.1289,10.1289,10.1289,10.1289,10.1289,10.1289,10.1289,10.1289,10.1289,10.1289,10.1289,10.1289,10.1289,10.1289,10.1289,10.1289,10.1289,10.1289,10.1289,10.1289,10.1437,10.1664,10.1863,10.2117,10.2342,10.2683,10.2772,9.6439,9.5637,9.5751,9.6286,9.7241,9.7776,9.8082,9.8273,9.8235,9.8693,9.9572,10.0298,10.0604,10.0604,10.0604,10.0604,10.0604,10.0604,10.0604,10.0604,10.0604,10.0604,10.0604,10.0566,10.0527,10.0566,10.0413,10.0298,10.0336,10.0107,10.0222,10.026,9.9992,9.9649,9.8273,9.8158,9.8579,9.9228,9.9343,9.9725,10.0069,10.0183,10.0145,10.0107,10.0107,10.0222,10.026,10.0336,10.0451,10.0527,10.0604,10.0604,10.0604,10.0604,10.0604,10.065,10.0831,10.1,10.1004,10.1131,10.1211,10.1289,10.1289,10.1289,10.1289,10.1289,10.1289,10.1289,10.1289,10.1289,10.1289,10.1289,10.1289,10.1289,10.1289,10.1289,10.1289,10.1289,10.1289,10.1289,10.1289,10.1289,10.1289,10.1289,10.1289,10.1289,10.1289,10.1289,10.1289,10.1289,10.1289,10.1289,10.1289,10.1289,10.1289,10.1289,10.1289,10.1289,10.1289,10.1289,10.1289,10.1289,10.1289,10.1289,10.1289,10.1289,10.1289,10.1289,10.14,10.1572,10.2021,10.2304,10.2484,10.2608,10.2704,9.7547,9.7318,9.7891,9.8273,9.8426,9.7623,9.7891,9.8961,9.9496,9.9916,10.0183,10.0527,10.0604,10.0604,10.0604,10.0604,10.0604,10.0604,10.0604,10.0604,10.0604,10.0604,10.0604,10.0604,10.0604,10.0604,10.0604,10.0604,10.0527,10.0604,10.0604,10.0566,10.0566,10.0298,9.9916,9.9763,9.9992,10.0145,10.0222,10.0336,10.0566,10.0604,10.0604,10.0604,10.0604,10.0604,10.0604,10.0604,10.0604,10.0604,10.0604,10.0604,10.0604,10.0604,10.0604,10.0604,10.0787,10.0957,10.1085,10.121,10.1289,10.1289,10.1289,10.1289,10.1289,10.1289,10.1289,10.1289,10.1289,10.1289,10.1289,10.1289,10.1289,10.1289,10.1289,10.1289,10.1289,10.1289,10.1289,10.1289,10.1289,10.1289,10.1289,10.1289,10.1289,10.1289,10.1289,10.1289,10.1289,10.1289,10.1289,10.1289,10.1289,10.1289,10.1289,10.1289,10.1289,10.1289,10.1289,10.1289,10.1289,10.1289,10.1289,10.1289,10.1289,10.1289,10.1289,10.1289,10.1328,10.1543,10.1835,10.2117,10.2264,10.2396,10.2608,9.8388,9.8197,9.8693,9.9114,9.9266,9.8502,9.8846,9.984,10.0375,10.0604,10.0566,10.0566,10.0604,10.0604,10.0604,10.0604,10.0604,10.0604,10.0604,10.0604,10.0604,10.0604,10.0604,10.0604,10.0604,10.0604,10.0604,10.0604,10.0604,10.0604,10.0604,10.0604,10.0604,10.0527,10.0489,10.0451,10.0489,10.0489,10.0489,10.0527,10.0604,10.0604,10.0604,10.0604,10.0604,10.0604,10.0604,10.0604,10.0604,10.0604,10.0604,10.0604,10.0604,10.0604,10.0604,10.065,10.0787,10.1,10.1126,10.1248,10.1289,10.1289,10.1289,10.1289,10.1289,10.1289,10.1289,10.1289,10.1289,10.1289,10.1289,10.1289,10.1289,10.1289,10.1289,10.1289,10.1289,10.1289,10.1289,10.1289,10.1289,10.1289,10.1289,10.1289,10.1289,10.1289,10.1289,10.1289,10.1289,10.1289,10.1289,10.1289,10.1289,10.1289,10.1289,10.1289,10.1289,10.1289,10.1289,10.1289,10.1289,10.1289,10.1289,10.1289,10.1289,10.1289,10.1289,10.1289,10.1328,10.1366,10.1473,10.1727,10.1918,10.2183,10.2484,9.8923,9.8235,9.8197,9.877,9.9458,10.0069,10.0451,10.0566,10.0604,10.0604,10.0604,10.0604,10.0604,10.0604,10.0604,10.0604,10.0604,10.0604,10.0604,10.0604,10.0604,10.0604,10.0604,10.0604,10.0604,10.0604,10.0604,10.0604,10.0604,10.0604,10.0604,10.0604,10.0604,10.0604,10.0604,10.0604,10.0604,10.0604,10.0604,10.0604,10.0604,10.0604,10.0604,10.0604,10.0604,10.0604,10.0604,10.0604,10.0604,10.0604,10.0604,10.0604,10.0604,10.0604,10.0604,10.065,10.0869,10.1,10.1126,10.1248,10.1289,10.1289,10.1289,10.1289,10.1289,10.1289,10.1289,10.1289,10.1289,10.1289,10.1289,10.1289,10.1289,10.1289,10.1289,10.1289,10.1289,10.1289,10.1289,10.1289,10.1289,10.1289,10.1289,10.1289,10.1289,10.1289,10.1289,10.1289,10.1289,10.1289,10.1289,10.1289,10.1289,10.1289,10.1289,10.1289,10.1289,10.1289,10.1289,10.1289,10.1289,10.1289,10.1289,10.1289,10.1289,10.1289,10.1289,10.1289,10.1289,10.1328,10.1404,10.1543,10.1787,10.2046,10.2324,10.0107,9.9878,9.9878,10.0031,10.026,10.0489,10.0604,10.0604,10.0604,10.0604,10.0604,10.0604,10.0604,10.0604,10.0604,10.0604,10.0604,10.0604,10.0604,10.0604,10.0604,10.0604,10.0604,10.0604,10.0604,10.0604,10.0604,10.0604,10.0604,10.0604,10.0604,10.0604,10.0604,10.0604,10.0604,10.0604,10.0604,10.0604,10.0604,10.0604,10.0604,10.0604,10.0604,10.0604,10.0604,10.0604,10.0604,10.0604,10.0604,10.0604,10.0604,10.0604,10.0604,10.0604,10.0604,10.0604,10.0742,10.0875,10.1004,10.1131,10.125,10.1289,10.1289,10.1289,10.1289,10.1289,10.1289,10.1289,10.1289,10.1289,10.1289,10.1289,10.1289,10.1289,10.1289,10.1289,10.1289,10.1289,10.1289,10.1289,10.1289,10.1289,10.1289,10.1289,10.1289,10.1289,10.1289,10.1289,10.1289,10.1289,10.1289,10.1289,10.1289,10.1289,10.1289,10.1289,10.1289,10.1289,10.1289,10.1289,10.1289,10.1289,10.1289,10.1289,10.1289,10.1289,10.1289,10.1289,10.1289,10.1289,10.1328,10.1473,10.1671,10.1891,10.214,10.0604,10.0604,10.0604,10.0604,10.0604,10.0604,10.0604,10.0604,10.0604,10.0604,10.0604,10.0604,10.0604,10.0604,10.0604,10.0604,10.0604,10.0604,10.0604,10.0604,10.0604,10.0604,10.0604,10.0604,10.0604,10.0604,10.0604,10.0604,10.0604,10.0604,10.0604,10.0604,10.0604,10.0604,10.0604,10.0604,10.0604,10.0604,10.0604,10.0604,10.0604,10.0604,10.0604,10.0604,10.0604,10.0604,10.0604,10.0604,10.0604,10.0604,10.0604,10.0604,10.0604,10.0604,10.0604,10.0604,10.0742,10.0875,10.1004,10.1131,10.1211,10.1289,10.1289,10.1289,10.1289,10.1289,10.1289,10.1289,10.1289,10.1289,10.1289,10.1289,10.1289,10.1289,10.1289,10.1289,10.1289,10.1289,10.1289,10.1289,10.1289,10.1289,10.1289,10.1289,10.1289,10.1289,10.1289,10.1289,10.1289,10.1289,10.1289,10.1289,10.1289,10.1289,10.1289,10.1289,10.1289,10.1289,10.1289,10.1289,10.1289,10.1289,10.1289,10.1289,10.1289,10.1289,10.1289,10.1289,10.1289,10.1289,10.1289,10.1365,10.1508,10.1664,10.1944,10.0604,10.0604,10.0604,10.0604,10.0604,10.0604,10.0604,10.0604,10.0604,10.0604,10.0604,10.0604,10.0604,10.0604,10.0604,10.0604,10.0604,10.0604,10.0604,10.0604,10.0604,10.0604,10.0604,10.0604,10.0604,10.0604,10.0604,10.0604,10.0604,10.0604,10.0604,10.0604,10.0604,10.0604,10.0604,10.0604,10.0604,10.0604,10.0604,10.0604,10.0604,10.0604,10.0604,10.0604,10.0604,10.0604,10.0604,10.0604,10.0604,10.0604,10.0604,10.0604,10.0604,10.0604,10.0604,10.0604,10.0696,10.0831,10.0962,10.1091,10.1171,10.125,10.1289,10.1289,10.1289,10.1289,10.1289,10.1289,10.1289,10.1289,10.1289,10.1289,10.1289,10.1289,10.1289,10.1289,10.1289,10.1289,10.1289,10.1289,10.1289,10.1289,10.1289,10.1289,10.1289,10.1289,10.1289,10.1289,10.1289,10.1289,10.1289,10.1289,10.1289,10.1289,10.1289,10.1289,10.1289,10.1289,10.1289,10.1289,10.1289,10.1289,10.1289,10.1289,10.1289,10.1289,10.1289,10.1289,10.1289,10.1289,10.1289,10.1289,10.1402,10.1543,10.1727,10.0604,10.0604,10.0604,10.0604,10.0604,10.0604,10.0604,10.0604,10.0604,10.0604,10.0604,10.0604,10.0604,10.0604,10.0604,10.0604,10.0604,10.0604,10.0604,10.0604,10.0604,10.0604,10.0604,10.0604,10.0604,10.0604,10.0604,10.0604,10.0604,10.0604,10.0604,10.0604,10.0604,10.0604,10.0604,10.0604,10.0604,10.0604,10.0604,10.0604,10.0604,10.0604,10.0604,10.0604,10.0604,10.0604,10.0604,10.0604,10.0604,10.0604,10.0604,10.0604,10.0604,10.0604,10.0604,10.0604,10.065,10.0787,10.0919,10.1046,10.1129,10.125,10.1289,10.1289,10.1289,10.1289,10.1289,10.1289,10.1289,10.1289,10.1289,10.1289,10.1289,10.1289,10.1289,10.1289,10.1289,10.1289,10.1289,10.1289,10.1289,10.1289,10.1289,10.1289,10.1289,10.1289,10.1289,10.1289,10.1289,10.1289,10.1289,10.1289,10.1289,10.1289,10.1289,10.1289,10.1289,10.1289,10.1289,10.1289,10.1289,10.1289,10.1289,10.1289,10.1289,10.1289,10.1289,10.1289,10.1289,10.1289,10.1289,10.1289,10.1289,10.1402,10.1538,10.0604,10.0604,10.0604,10.0604,10.0604,10.0604,10.0604,10.0604,10.0604,10.0604,10.0604,10.0604,10.0604,10.0604,10.0604,10.0604,10.0604,10.0604,10.0604,10.0604,10.0604,10.0604,10.0604,10.0604,10.0604,10.0604,10.0604,10.0604,10.0604,10.0604,10.0604,10.0604,10.0604,10.0604,10.0604,10.0604,10.0604,10.0604,10.0604,10.0604,10.0604,10.0604,10.0604,10.0604,10.0604,10.0604,10.0604,10.0604,10.0604,10.0604,10.0604,10.0604,10.0604,10.0604,10.0604,10.0604,10.065,10.0696,10.0831,10.1,10.1046,10.121,10.1289,10.1289,10.1289,10.1289,10.1289,10.1289,10.1289,10.1289,10.1289,10.1289,10.1289,10.1289,10.1289,10.1289,10.1289,10.1289,10.1289,10.1289,10.1289,10.1289,10.1289,10.1289,10.1289,10.1289,10.1289,10.1289,10.1289,10.1289,10.1289,10.1289,10.1289,10.1289,10.1289,10.1289,10.1289,10.1289,10.1289,10.1289,10.1289,10.1289,10.1289,10.1289,10.1289,10.1289,10.1289,10.1289,10.1289,10.1289,10.1289,10.1289,10.1289,10.1289,10.1402,10.0604,10.0604,10.0604,10.0604,10.0604,10.0604,10.0604,10.0604,10.0604,10.0604,10.0604,10.0604,10.0604,10.0604,10.0604,10.0604,10.0604,10.0604,10.0604,10.0604,10.0604,10.0604,10.0604,10.0604,10.0604,10.0604,10.0604,10.0604,10.0604,10.0604,10.0604,10.0604,10.0604,10.0604,10.0604,10.0604,10.0604,10.0604,10.0604,10.0604,10.0604,10.0604,10.0604,10.0604,10.0604,10.0604,10.0604,10.0604,10.0604,10.0604,10.0604,10.0604,10.0604,10.0604,10.0604,10.0604,10.0604,10.0696,10.0787,10.0913,10.1046,10.1171,10.125,10.1289,10.1289,10.1289,10.1289,10.1289,10.1289,10.1289,10.1289,10.1289,10.1289,10.1289,10.1289,10.1289,10.1289,10.1289,10.1289,10.1289,10.1289,10.1289,10.1289,10.1289,10.1289,10.1289,10.1289,10.1289,10.1289,10.1289,10.1289,10.1289,10.1289,10.1289,10.1289,10.1289,10.1289,10.1289,10.1289,10.1289,10.1289,10.1289,10.1289,10.1289,10.1289,10.1289,10.1289,10.1289,10.1289,10.1289,10.1289,10.1289,10.1289,10.1289,10.1289,10.0604,10.0604,10.0604,10.0604,10.0604,10.0604,10.0604,10.0604,10.0604,10.0604,10.0604,10.0604,10.0604,10.0604,10.0604,10.0604,10.0604,10.0604,10.0604,10.0604,10.0604,10.0604,10.0604,10.0604,10.0604,10.0604,10.0604,10.0604,10.0604,10.0604,10.0604,10.0604,10.0604,10.0604,10.0604,10.0604,10.0604,10.0604,10.0604,10.0604,10.0604,10.0604,10.0604,10.0604,10.0604,10.0604,10.0604,10.0604,10.0604,10.0604,10.0604,10.0604,10.0604,10.0604,10.0604,10.0604,10.0604,10.065,10.078,10.0856,10.0957,10.1014,10.1133,10.1211,10.125,10.1289,10.1289,10.1289,10.1289,10.1289,10.1289,10.1289,10.1289,10.1289,10.1289,10.1289,10.1289,10.1289,10.1289,10.1289,10.1289,10.1289,10.1289,10.1289,10.1289,10.1289,10.1289,10.1289,10.1289,10.1289,10.1289,10.1289,10.1289,10.1289,10.1289,10.1289,10.1289,10.1289,10.1289,10.1289,10.1289,10.1289,10.1289,10.1289,10.1289,10.1289,10.1289,10.1289,10.1289,10.1289,10.1289,10.1289,10.1289,10.1289,10.1289]},{"header":{"parameterUnit":"m.s-1","parameterCategory":1,"la1":31.0,"la2":29.5877,"lo1":-88.7671,"lo2":-86.6584,"dx":0.0162,"dy":0.0185,"nx":115,"ny":88,"refTime":"2022-12-15T06:00:00:Z","depth":0,"parameterNumber":3,"parameterNumberName":"V-component_of_WINDS"},"data":[0.0,0.0,0.0,0.0,0.0,0.0,0.0,0.0,0.0,0.0,0.0,0.0,0.0,0.0,0.0,0.0,0.0,0.0,0.0,0.0,0.0,0.0,0.0,0.0,0.0,0.0,0.0,0.0,0.0,0.0,0.0,0.0,0.0,0.0,0.0,0.0,0.0,0.0,0.0,0.0,0.0,0.0,0.0,0.0,0.0,0.0,0.0,0.0,0.0,0.0,0.0,0.0,0.0,0.0,0.0,0.0,0.0,0.0,0.0,0.0,0.0,0.0,0.0,0.0,0.0,0.0,0.0,0.0,0.0,0.0,0.0,0.0,0.0,0.0,0.0,0.0,0.0,0.0,0.0,0.0,0.0,0.0,0.0,0.0,0.0,0.0,0.0,0.0,0.0,0.0,0.0,0.0,0.0,0.0,0.0,0.0,0.0,0.0,0.0,0.0,0.0,0.0,0.0,0.0,0.0,0.0,0.0,0.0,0.0,0.0,0.0,0.0,0.0,0.0,0.0,0.0,0.0,0.0,0.0,0.0,0.0,0.0,0.0,0.0,0.0,0.0,0.0,0.0,0.0,0.0,0.0,0.0,0.0,0.0,0.0,0.0,0.0,0.0,0.0,0.0,0.0,0.0,0.0,0.0,0.0,0.0,0.0,0.0,0.0,0.0,0.0,0.0,0.0,0.0,0.0,0.0,0.0,0.0,0.0,0.0,0.0,0.0,0.0,0.0,0.0,0.0,0.0,0.0,0.0,0.0,0.0,0.0,0.0,0.0,0.0,0.0,0.0,0.0,0.0,0.0,0.0,0.0,0.0,0.0,0.0,0.0,0.0,0.0,0.0,0.0,0.0,0.0,0.0,0.0,0.0,0.0,0.0,0.0,0.0,0.0,0.0,0.0,0.0,0.0,0.0,0.0,0.0,0.0,0.0,0.0,0.0,0.0,0.0,0.0,0.0,0.0,0.0,0.0,0.0,0.0,0.0,0.0,0.0,0.0,0.0,0.0,0.0,0.0,0.0,0.0,0.0,0.0,0.0,0.0,0.0,0.0,0.0,0.0,0.0,0.0,0.0,0.0,0.0,0.0,0.0,0.0,0.0,0.0,0.0,0.0,0.0,0.0,0.0,0.0,0.0,0.0,0.0,0.0,0.0,0.0,0.0,0.0,0.0,0.0,0.0,0.0,0.0,0.0,0.0,0.0,0.0,0.0,0.0,0.0,0.0,0.0,0.0,0.0,0.0,0.0,0.0,0.0,0.0,0.0,0.0,0.0,0.0,0.0,0.0,0.0,0.0,0.0,0.0,0.0,0.0,0.0,0.0,0.0,0.0,0.0,0.0,0.0,0.0,0.0,0.0,0.0,0.0,0.0,0.0,0.0,0.0,0.0,0.0,0.0,0.0,0.0,0.0,0.0,0.0,0.0,0.0,0.0,0.0,0.0,0.0,0.0,0.0,0.0,0.0,0.0,0.0,0.0,0.0,0.0,0.0,0.0,0.0,0.0,0.0,0.0,0.0,0.0,0.0,0.0,0.0,0.0,0.0,0.0,0.0,0.0,0.0,0.0,0.0,0.0,0.0,0.0,0.0,0.0,0.0,0.0,0.0,0.0,0.0,0.0,0.0,0.0,0.0,0.0,0.0,0.0,0.0,0.0,0.0,0.0,0.0,0.0,0.0,0.0,0.0,0.0,0.0,0.0,0.0,0.0,0.0,0.0,0.0,0.0,0.0,0.0,0.0,0.0,0.0,0.0,0.0,0.0,0.0,0.0,0.0,0.0,0.0,0.0,0.0,0.0,0.0,0.0,0.0,0.0,0.0,0.0,0.0,0.0,0.0,0.0,0.0,0.0,0.0,0.0,0.0,0.0,0.0,0.0,0.0,0.0,0.0,0.0,0.0,0.0,0.0,0.0,0.0,0.0,0.0,0.0,0.0,0.0,0.0,0.0,0.0,0.0,0.0,0.0,0.0,0.0,0.0,0.0,0.0,0.0,0.0,0.0,0.0,0.0,0.0,0.0,0.0,0.0,0.0,0.0,0.0,0.0,0.0,0.0,0.0,0.0,0.0,0.0,0.0,0.0,0.0,0.0,0.0,0.0,0.0,0.0,0.0,0.0,0.0,0.0,0.0,0.0,0.0,0.0,0.0,0.0,0.0,0.0,0.0,0.0,0.0,0.0,0.0,0.0,0.0,0.0,0.0,0.0,0.0,0.0,0.0,0.0,0.0,0.0,0.0,0.0,0.0,0.0,0.0,0.0,0.0,0.0,0.0,0.0,0.0,0.0,0.0,0.0,0.0,0.0,0.0,0.0,0.0,0.0,0.0,0.0,0.0,0.0,0.0,0.0,0.0,0.0,0.0,0.0,0.0,0.0,0.0,0.0,0.0,0.0,0.0,0.0,0.0,0.0,0.0,0.0,0.0,0.0,0.0,0.0,0.0,0.0,0.0,0.0,0.0,0.0,0.0,0.0,0.0,0.0,0.0,0.0,0.0,0.0,0.0,0.0,0.0,0.0,0.0,0.0,0.0,0.0,0.0,0.0,0.0,0.0,0.0,0.0,0.0,0.0,0.0,0.0,0.0,0.0,0.0,0.0,0.0,0.0,0.0,0.0,0.0,0.0,0.0,0.0,0.0,0.0,0.0,0.0,0.0,0.0,0.0,0.0,0.0,0.0,0.0,0.0,0.0,0.0,0.0,0.0,0.0,0.0,0.0,0.0,0.0,0.0,0.0,0.0,0.0,0.0,0.0,0.0,0.0,0.0,0.0,0.0,0.0,0.0,0.0,0.0,0.0,0.0,0.0,0.0,0.0,0.0,0.0,0.0,0.0,0.0,0.0,0.0,0.0,0.0,0.0,0.0,0.0,0.0,0.0,0.0,0.0,0.0,0.0,0.0,0.0,0.0,0.0,0.0,0.0,0.0,0.0,0.0,0.0,0.0,0.0,0.0,0.0,0.0,0.0,0.0,0.0,0.0,0.0,0.0,0.0,0.0,0.0,0.0,0.0,0.0,0.0,0.0,0.0,0.0,0.0,0.0,0.0,0.0,0.0,0.0,0.0,0.0,0.0,0.0,0.0,0.0,0.0,0.0,0.0,0.0,0.0,0.0,0.0,0.0,0.0,0.0,0.0,0.0,0.0,0.0,0.0,0.0,0.0,0.0,0.0,0.0,0.0,0.0,0.0,0.0,0.0,0.0,0.0,0.0,0.0,0.0,0.0,0.0,0.0,0.0,0.0,0.0,0.0,0.0,0.0,0.0,0.0,0.0,0.0,0.0,0.0,0.0,0.0,0.0,0.0,0.0,0.0,0.0,0.0,0.0,0.0,0.0,0.0,0.0,0.0,0.0,0.0,0.0,0.0,0.0,0.0,0.0,0.0,0.0,0.0,0.0,0.0,0.0,0.0,0.0,0.0,0.0,0.0,0.0,0.0,0.0,0.0,0.0,0.0,0.0,0.0,0.0,0.0,0.0,0.0,0.0,0.0,0.0,0.0,0.0,0.0,0.0,0.0,0.0,0.0,0.0,0.0,0.0,0.0,0.0,0.0,0.0,0.0,0.0,0.0,0.0,0.0,0.0,0.0,0.0,0.0,0.0,0.0,0.0,0.0,0.0,0.0,0.0,0.0,0.0,0.0,0.0,0.0,0.0,0.0,0.0,0.0,0.0,0.0,0.0,0.0,0.0,0.0,0.0,0.0,0.0,0.0,0.0,0.0,0.0,0.0,0.0,0.0,0.0,0.0,0.0,0.0,0.0,0.0,0.0,0.0,0.0,0.0,0.0,0.0,0.0,0.0,0.0,0.0,0.0,0.0,0.0,0.0,0.0,0.0,0.0,0.0,0.0,0.0,0.0,0.0,0.0,0.0,0.0,0.0,0.0,0.0,0.0,0.0,0.0,0.0,0.0,0.0,0.0,0.0,0.0,0.0,0.0,0.0,0.0,0.0,0.0,0.0,0.0,0.0,0.0,0.0,0.0,0.0,0.0,0.0,0.0,0.0,0.0,0.0,0.0,0.0,0.0,0.0,0.0,0.0,0.0,0.0,0.0,0.0,0.0,0.0,0.0,0.0,0.0,0.0,0.0,0.0,0.0,0.0,0.0,0.0,0.0,0.0,0.0,0.0,0.0,0.0,0.0,0.0,0.0,0.0,0.0,0.0,0.0,0.0,0.0,0.0,0.0,0.0,0.0,0.0,0.0,0.0,0.0,0.0,0.0,0.0,0.0,0.0,0.0,0.0,0.0,0.0,0.0,0.0,0.0,0.0,0.0,-0.4101,0.0,0.0,0.0,-0.4365,0.0,0.0,0.0,0.0,0.0,0.0,0.0,0.0,0.0,0.0,0.0,0.0,0.0,0.0,0.0,0.0,0.0,0.0,0.0,0.0,0.0,0.0,0.0,0.0,0.0,0.0,0.0,0.0,0.0,0.0,0.0,0.0,0.0,0.0,0.0,0.0,0.0,0.0,0.0,0.0,0.0,0.0,0.0,0.0,0.0,0.0,0.0,0.0,0.0,0.0,0.0,0.0,0.0,0.0,0.0,0.0,0.0,0.0,0.0,0.0,0.0,0.0,0.0,0.0,0.0,0.0,0.0,0.0,0.0,0.0,0.0,0.0,0.0,0.0,0.0,0.0,0.0,0.0,0.0,0.0,0.0,0.0,0.0,0.0,0.0,0.0,0.0,0.0,0.0,0.0,0.0,0.0,0.0,0.0,0.0,0.0,0.0,0.0,0.0,0.0,0.0,0.0,0.0,0.0,0.0,0.0,0.0,0.0,0.0,0.0,-0.3639,-0.3502,-0.3937,-0.4123,-0.4066,0.0,0.0,0.0,0.0,0.0,0.0,0.0,0.0,0.0,0.0,0.0,0.0,0.0,0.0,0.0,0.0,0.0,0.0,0.0,0.0,0.0,0.0,0.0,0.0,0.0,0.0,0.0,0.0,0.0,0.0,0.0,0.0,0.0,0.0,0.0,0.0,0.0,0.0,0.0,0.0,0.0,0.0,0.0,0.0,0.0,0.0,0.0,0.0,0.0,0.0,0.0,0.0,0.0,0.0,0.0,0.0,0.0,0.0,0.0,0.0,0.0,0.0,0.0,0.0,0.0,0.0,0.0,0.0,0.0,0.0,0.0,0.0,0.0,0.0,0.0,0.0,0.0,0.0,0.0,0.0,0.0,0.0,0.0,0.0,0.0,0.0,0.0,0.0,0.0,0.0,0.0,0.0,0.0,0.0,0.0,0.0,0.0,0.0,0.0,0.0,0.0,0.0,0.0,0.0,0.0,0.0,0.0,0.0,0.0,0.0,0.0,0.0,-0.3479,-0.3752,-0.3923,0.0,0.0,0.0,0.0,0.0,0.0,0.0,0.0,0.0,0.0,0.0,0.0,0.0,0.0,0.0,0.0,0.0,0.0,0.0,0.0,0.0,0.0,0.0,0.0,0.0,0.0,0.0,0.0,0.0,0.0,0.0,0.0,0.0,0.0,0.0,0.0,0.0,0.0,0.0,0.0,0.0,0.0,0.0,0.0,0.0,0.0,0.0,0.0,0.0,0.0,0.0,0.0,0.0,0.0,0.0,0.0,0.0,0.0,0.0,0.0,0.0,0.0,0.0,0.0,0.0,0.0,0.0,0.0,0.0,0.0,0.0,0.0,0.0,0.0,0.0,0.0,0.0,0.0,0.0,0.0,0.0,0.0,0.0,0.0,0.0,0.0,0.0,0.0,0.0,0.0,0.0,0.0,0.0,0.0,0.0,0.0,0.0,0.0,0.0,0.0,0.0,0.0,0.0,0.0,0.0,0.0,0.0,0.0,0.0,0.0,-0.2973,-0.2969,-0.3569,0.0,-0.4063,0.0,0.0,0.0,0.0,0.0,0.0,0.0,0.0,0.0,0.0,0.0,0.0,0.0,0.0,0.0,0.0,0.0,0.0,0.0,0.0,0.0,0.0,0.0,0.0,0.0,0.0,0.0,0.0,0.0,0.0,0.0,0.0,0.0,0.0,0.0,0.0,0.0,0.0,0.0,0.0,0.0,0.0,0.0,0.0,0.0,0.0,0.0,0.0,0.0,0.0,0.0,0.0,0.0,0.0,0.0,0.0,0.0,0.0,0.0,0.0,0.0,0.0,0.0,0.0,0.0,0.0,0.0,0.0,0.0,0.0,0.0,0.0,0.0,0.0,0.0,0.0,0.0,0.0,0.0,0.0,0.0,0.0,0.0,0.0,0.0,0.0,0.0,0.0,0.0,0.0,0.0,0.0,0.0,0.0,0.0,0.0,0.0,0.0,0.0,0.0,0.0,0.0,0.0,0.0,0.0,0.0,0.0,0.0,0.0,0.0,-0.2607,-0.2607,-0.2685,-0.2835,0.0,0.0,0.0,0.0,0.0,0.0,0.0,0.0,0.0,0.0,0.0,0.0,0.0,0.0,0.0,0.0,0.0,0.0,0.0,0.0,0.0,0.0,0.0,0.0,0.0,0.0,0.0,0.0,0.0,0.0,0.0,0.0,0.0,0.0,0.0,0.0,0.0,0.0,0.0,0.0,0.0,0.0,0.0,0.0,0.0,0.0,0.0,0.0,0.0,0.0,0.0,0.0,0.0,0.0,0.0,0.0,0.0,0.0,0.0,0.0,0.0,0.0,0.0,0.0,0.0,0.0,0.0,0.0,0.0,0.0,0.0,0.0,0.0,0.0,0.0,0.0,0.0,0.0,0.0,0.0,0.0,0.0,0.0,0.0,0.0,0.0,0.0,0.0,0.0,0.0,0.0,0.0,0.0,0.0,0.0,0.0,0.0,0.0,0.0,0.0,0.0,0.0,0.0,0.0,0.0,0.0,0.0,0.0,0.0,0.0,-0.255,-0.2697,-0.2747,-0.2563,-0.2141,-0.1576,0.0,0.0,0.0,0.0,0.0,0.0,0.0,0.0,0.0,0.0,0.0,0.0,0.0,0.0,0.0,0.0,0.0,0.0,0.0,0.0,0.0,0.0,0.0,0.0,0.0,0.0,0.0,0.0,0.0,0.0,0.0,0.0,0.0,0.0,0.0,0.0,0.0,0.0,0.0,0.0,0.0,0.0,0.0,0.0,0.0,0.0,0.0,0.0,0.0,0.0,0.0,0.0,0.0,0.0,0.0,0.0,0.0,0.0,0.0,0.0,0.0,0.0,0.0,0.0,0.0,0.0,0.0,0.0,0.0,0.0,0.0,0.0,0.0,0.0,0.0,0.0,0.0,0.0,0.0,0.0,0.0,0.0,0.0,0.0,0.0,0.0,0.0,0.0,0.0,0.0,0.0,0.0,0.0,0.0,0.0,0.0,0.0,0.0,0.0,0.0,0.0,0.0,0.0,0.0,0.0,0.0,0.0,0.0,-0.3108,-0.3125,-0.3315,-0.361,-0.3485,-0.243,0.0,0.0,0.0,0.0,0.0,0.0,0.0,0.0,0.0,0.0,0.0,0.0,0.0,0.0,0.0,0.0,0.0,0.0,0.0,0.0,0.0,0.0,0.0,0.0,0.0,0.0,0.0,0.0,0.0,0.0,0.0,0.0,0.0,0.0,0.0,0.0,0.0,0.0,0.0,0.0,0.0,0.0,0.0,0.0,0.0,0.0,0.0,0.0,0.0,0.0,0.0,0.0,0.0,0.0,0.0,0.0,0.0,0.0,0.0,0.0,0.0,0.0,0.0,0.0,0.0,0.0,0.0,0.0,0.0,0.0,0.0,0.0,0.0,0.0,0.0,0.0,0.0,0.0,0.0,0.0,0.0,0.0,0.0,0.0,0.0,0.0,0.0,0.0,0.0,0.0,0.0,0.0,0.0,0.0,0.0,0.0,0.0,0.0,0.0,0.0,0.0,0.0,0.0,0.0,0.0,0.0,0.0,0.0,0.0,-0.2721,-0.3388,-0.3503,-0.2919,-0.2413,-0.1517,0.0,0.0,0.0,0.0,0.0,0.0,0.0,0.0,0.0,0.0,0.0,0.0,0.0,0.0,0.0,0.0,0.0,0.0,0.0,0.0,0.0,0.0,0.0,0.0,0.0,0.0,0.0,0.0,0.0,0.0,0.0,0.0,0.0,0.0,0.0,0.0,0.0,0.0,0.0,0.0,0.0,0.0,0.0,0.0,0.0,0.0,0.0,0.0,0.0,0.0,0.0,0.0,0.0,0.0,0.0,0.0,0.0,0.0,0.0,0.0,0.0,0.0,0.0,0.0,0.0,0.0,0.0,0.0,0.0,0.0,0.0,0.0,0.0,0.0,0.0,0.0,0.0,0.0,0.0,0.0,0.0,0.0,0.0,0.0,0.0,0.0,0.0,0.0,0.0,0.0,0.0,0.0,0.0,0.0,0.0,0.0,0.0,0.0,0.0,0.0,0.0,0.0,0.0,0.0,0.0,0.0,0.0,0.0,0.0,-0.2095,-0.2982,-0.2978,-0.2102,-0.1524,-0.0789,0.0,0.0,0.0,0.0,0.0,0.0,0.0,0.0,0.0,0.0,0.0,0.0,0.0,0.0,0.0,0.0,0.0,0.0,0.0,0.0,0.0,0.0,0.0,0.0,0.0,0.0,0.0,0.0,0.0,0.0,0.0,0.0,0.0,0.0,0.0,0.0,0.0,0.0,0.0,0.0,0.0,0.0,0.0,0.0,0.0,0.0,0.0,0.0,0.0,0.0,0.0,0.0,0.0,0.0,0.0,0.0,0.0,0.0,0.0,0.0,0.0,0.0,0.0,0.0,0.0,0.0,0.0,0.0,0.0,0.0,0.0,0.0,0.0,0.0,0.0,0.0,0.0,0.0,0.0,0.0,0.0,0.0,0.0,0.0,0.0,0.0,0.0,0.0,0.0,0.0,0.0,0.0,0.0,0.0,0.0,0.0,0.0,0.0,0.0,0.0,0.0,0.0,0.0,0.0,0.0,0.0,0.0,0.0,-0.1316,-0.1249,-0.1766,-0.18,-0.1331,-0.1025,-0.0183,0.0,0.0,0.0,0.0,0.0,0.0,0.0,0.0,0.0,0.0,0.0,0.0,0.0,0.0,0.0,0.0,0.0,0.0,0.0,0.0,0.0,0.0,0.0,0.0,0.0,0.0,0.0,0.0,0.0,0.0,0.0,0.0,0.0,0.0,0.0,0.0,0.0,0.0,0.0,0.0,0.0,0.0,0.0,0.0,0.0,0.0,0.0,0.0,0.0,0.0,0.0,0.0,0.0,0.0,0.0,0.0,0.0,0.0,0.0,0.0,0.0,0.0,0.0,0.0,0.0,0.0,0.0,0.0,0.0,0.0,0.0,0.0,0.0,0.0,0.0,0.0,0.0,0.0,0.0,0.0,0.0,0.0,0.0,0.0,0.0,0.0,0.0,0.0,0.0,0.0,0.0,0.0,0.0,0.0,0.0,0.0,0.0,0.0,0.0,0.0,0.0,0.0,0.0,0.0,0.0,0.0,0.0,0.0,0.0,0.0654,0.0568,0.0476,0.0667,0.0757,0.1023,0.0,0.0,0.0,0.0,0.0,0.0,0.0,0.0,0.0,0.0,0.0,0.0,0.0,0.0,0.0,0.0,0.0,0.0,0.0,0.0,0.0,0.0,0.0,0.0,0.0,0.0,0.0,0.0,0.0,0.0,0.0,0.0,0.0,0.0,0.0,0.0,0.0,0.0,0.0,0.0,0.0,0.0,0.0,0.0,0.0,0.0,0.0,0.0,0.0,0.0,0.0,0.0,0.0,0.0,0.0,0.0,0.0,0.0,0.0,0.0,0.0,0.0,0.0,0.0,0.0,0.0,0.0,0.0,0.0,0.0,0.0,0.0,0.0,0.0,0.0,0.0,0.0,0.0,0.0,0.0,0.0,0.0,0.0,0.0,0.0,0.0,0.0,0.0,0.0,0.0,0.0,0.0,0.0,0.0,0.0,0.0,0.0,0.0,0.0,0.0,0.0,0.0,0.0,0.0,0.0,0.0,0.0,0.0,0.0,0.1592,0.1592,0.1592,0.1692,0.1572,0.1536,0.1487,0.0,0.0,0.0,0.0,0.0,0.0,0.0,0.0,0.0,0.0,0.0,0.0,0.0,0.0,0.0,0.0,0.0,0.0,0.0,0.0,0.0,0.0,0.0,0.0,0.0,0.0,0.0,0.0,0.0,0.0,0.0,0.0,0.0,0.0,0.0,0.0,0.0,0.0,0.0,0.0,0.0,0.0,0.0,0.0,0.0,0.0,0.0,0.0,0.0,0.0,0.0,0.0,0.0,0.0,0.0,0.0,0.0,0.0,0.0,0.0,0.0,0.0,0.0,0.0,0.0,0.0,0.0,0.0,0.0,0.0,0.0,0.0,0.0,0.0,0.0,0.0,0.0,0.0,0.0,0.0,0.0,0.0,0.0,0.0,0.0,0.0,0.0,0.0,0.0,0.0,0.0,0.0,0.0,0.0,0.0,0.0,0.0,0.0,0.0,0.0,0.0,0.0,0.0,0.0,0.0,0.0,0.0,0.0,0.1708,0.1711,0.1708,0.1701,0.1648,0.1603,0.0,0.0,0.0,0.0,0.0,0.0,0.0,0.0,0.0,0.0,0.0,0.0,0.0,0.0,0.0,0.0,0.0,0.0,0.0,0.0,0.0,0.0,0.0,0.0,0.0,0.0,0.0,0.0,0.0,0.0,0.0,0.0,0.0,0.0,0.0,0.0,0.0,0.0,0.0,0.0,0.0,0.0,0.0,0.0,0.0,0.0,0.0,0.0,0.0,0.0,0.0,0.0,0.0,0.0,0.0,0.0,0.0,0.0,0.0,0.0,0.0,0.0,0.0,0.0,0.0,0.0,0.0,0.0,0.0,0.0,0.0,0.0,0.0,0.0,0.0,0.0,0.0,0.0,0.0,0.0,0.0,0.0,0.0,0.0,0.0,0.0,0.0,0.0,0.0,0.0,0.0,0.0,0.0,0.0,0.0,0.0,0.0,0.0,0.0,0.0,0.0,0.0,0.0,0.0,0.0,0.0,0.0,0.0,0.0,0.1768,0.1793,0.1772,0.1707,0.1669,0.1615,0.0,0.0,0.0,0.0,0.0,0.0,0.0,0.0,0.0,0.0,0.0,0.0,0.0,0.0,0.0,0.0,0.0,0.0,0.0,0.0,0.0,0.0,0.0,0.0,0.0,0.0,0.0,0.0,0.0,0.0,0.0,0.0,0.0,0.0,0.0,0.0,0.0,0.0,0.0,0.0,0.0,0.0,0.0,0.0,0.0,0.0,0.0,0.0,0.0,0.0,0.0,0.0,0.0,0.0,0.0,0.0,0.0,0.0,0.0,0.0,0.0,0.0,0.0,0.0,0.0,0.0,0.0,0.0,0.0,0.0,0.0,0.0,0.0,0.0,0.0,0.0,0.0,0.0,0.0,0.0,0.0,0.0,0.0,0.0,0.0,0.0,0.0,0.0,0.0,0.0,0.0,0.0,0.0,0.0,0.0,0.0,0.0,0.0,0.0,0.0,0.0,0.0,0.0,0.0,0.0,0.0,0.0,0.0,0.1756,0.1832,0.185,0.1828,0.1763,0.1734,0.1675,0.0,0.0,0.0,0.0,0.0,0.0,0.0,0.0,0.0,0.0,0.0,0.0,0.0,0.0,0.0,0.0,0.0,0.0,0.0,0.0,0.0,0.0,0.0,0.0,0.0,0.0,0.0,0.0,0.0,0.0,0.0,0.0,0.0,0.0,0.0,0.0,0.0,0.0,0.0,0.0,0.0,0.0,0.0,0.0,0.0,0.0,0.0,0.0,0.0,0.0,0.0,0.0,0.0,0.0,0.0,0.0,0.0,0.0,0.0,0.0,0.0,0.0,0.0,0.0,0.0,0.0,0.0,0.0,0.0,0.0,0.0,0.0,0.0,0.0,0.0,0.0,0.0,0.0,0.0,0.0,0.0,0.0,0.0,0.0,0.0,0.0,0.0,0.0,0.0,0.0,0.0,0.0,0.0,0.0,0.0,0.0,0.0,0.0,0.0,0.0,0.0,0.0,0.0,0.0,0.0,0.0,0.0,0.0,0.1831,0.1894,0.1892,0.1877,0.185,0.1817,0.1756,0.0,0.0,0.0,0.0,0.0,0.0,0.0,0.0,0.0,0.0,0.0,0.0,0.0,0.0,0.0,0.0,0.0,0.0,0.0,0.0,0.0,0.0,0.0,0.0,0.0,0.0,0.0,0.0,0.0,0.0,0.0,0.0,0.0,0.0,0.0,0.0,0.0,0.0,0.0,0.0,0.0,0.0,0.0,0.0,0.0,0.0,0.0,0.0,0.0,0.0,0.0,0.0,0.0,0.0,0.0,0.0,0.0,0.0,0.0,0.0,0.0,0.0,0.0,0.0,0.0,0.0,0.0,0.0,0.0,0.0,0.0,0.0,0.0,0.0,0.0,0.0,0.0,0.0,0.0,0.0,0.0,0.0,0.0,0.0,0.0,0.0,0.0,0.0,0.0,0.0,0.0,0.0,0.0,0.0,0.0,0.0,0.0,0.0,0.0,0.0,0.0,0.0,0.0,0.0,0.0,0.0,0.0,0.0,0.1872,0.1954,0.1933,0.1918,0.1911,0.1859,0.1778,0.0,0.0,0.0,0.0,0.0,0.0,0.0,0.0,0.0,0.0,0.0,0.0,0.0,0.0,0.0,0.0,0.0,0.0,0.0,0.0,0.0,0.0,0.0,0.0,0.0,0.0,0.0,0.0,0.0,0.0,0.0,0.0,0.0,0.0,0.0,0.0,0.0,0.0,0.0,0.0,0.0,0.0,0.0,0.0,0.0,0.0,0.0,0.0,-0.3317,0.0,0.0,0.0,0.0,0.0,0.0,0.0,0.0,0.0,0.0,0.0,0.0,0.0,0.0,0.0,0.0,0.0,0.0,0.0,0.0,0.0,0.0,0.0,0.0,0.0,0.0,0.0,0.0,0.0,0.0,0.0,0.0,0.0,0.0,0.0,0.0,0.0,0.0,0.0,0.0,0.0,0.0,0.0,0.0,0.0,0.0,0.0,0.0,0.0,0.0,0.0,0.0,0.0,0.0,0.0,0.0,0.0,0.0,0.0,0.1941,0.2014,0.1988,0.1966,0.1952,0.1921,0.1847,0.0,0.0,0.0,0.0,0.0,0.0,0.0,0.0,0.0,0.0,0.0,0.0,0.0,0.0,0.0,0.0,0.0,0.0,0.0,0.0,0.0,0.0,0.0,0.0,0.0,0.0,0.0,0.0,0.0,0.0,0.0,0.0,0.0,0.0,0.0,0.0,0.0,0.0,0.0,0.0,0.0,0.0,0.0,0.0,0.0,0.0,0.0,0.0,0.0,0.0,0.0,0.0,0.0,0.0,0.0,0.0,0.0,0.0,0.0,0.0,0.0,0.0,0.0,0.0,0.0,0.0,0.0,0.0,0.0,0.0,0.0,0.0,0.0,0.0,0.0,0.0,0.0,0.0,0.0,0.0,0.0,0.0,0.0,0.0,0.0,0.0,0.0,0.0,0.0,0.0,0.0,0.0,0.0,0.0,0.0,0.0,0.0,0.0,0.0,0.0,0.0,0.0,0.0,0.0,0.0,0.0,0.0,0.1951,0.2007,0.2067,0.2041,0.2012,0.1984,0.1978,0.1924,0.1813,0.0,0.0,0.0,0.0,0.0,0.0,0.0,0.0,0.0,0.0,0.0,0.0,0.0,0.0,0.0,0.0,0.0,0.0,0.0,0.0,0.0,0.0,0.0,0.0,0.0,0.0,0.0,0.0,0.0,0.0,0.0,0.0,0.0,0.0,0.0,0.0,0.0,0.0,-0.5197,-0.5069,0.0,0.0,0.0,0.0,0.0,0.0,0.0,0.0,-0.3426,0.0,0.0,0.0,0.0,0.0,0.0,0.0,0.0,0.0,0.0,0.0,0.0,0.0,0.0,0.0,0.0,0.0,0.0,0.0,0.0,0.0,0.0,0.0,0.0,0.0,0.0,0.0,0.0,0.0,0.0,0.0,0.0,0.0,0.0,0.0,0.0,0.0,0.0,0.0,0.0,0.0,0.0,0.0,0.0,0.0,0.0,0.0,0.0,0.0,0.0,0.0,0.0,0.0,0.0,0.0,0.0,0.1959,0.1971,0.2016,0.2099,0.2072,0.2042,0.2012,0.1989,0.1943,0.1872,0.0,0.0,0.0,0.0,0.0,0.0,0.0,0.0,0.0,0.0,0.0,0.0,0.0,0.0,0.0,0.0,0.0,0.0,0.0,0.0,0.0,0.0,0.0,0.0,0.0,0.0,0.0,0.0,0.0,0.0,0.0,0.0,0.0,0.0,0.0,0.0,0.0,0.0,0.0,-0.3974,-0.2471,0.0,0.0,0.0,0.0,0.0,0.0,0.0,0.0,-0.1277,0.0,0.0,0.0,0.0,0.0,0.0,0.0,0.0,0.0,0.0,0.0,0.0,0.0,0.0,0.0,0.0,0.0,0.0,0.0,0.0,0.0,0.0,0.0,0.0,0.0,0.0,0.0,0.0,0.0,0.0,0.0,0.0,0.0,0.0,0.0,0.0,0.0,0.0,0.0,0.0,0.0,0.0,0.0,0.0,0.0,0.0,0.0,0.0,0.0,0.0,0.0,0.0,0.0,0.0,0.0,0.1971,0.2022,0.2074,0.2129,0.2102,0.2072,0.2044,0.2029,0.1979,0.0,0.0,0.0,0.0,0.0,0.0,0.0,0.0,0.0,0.0,0.0,0.0,0.0,0.0,0.0,0.0,0.0,0.0,0.0,0.0,0.0,0.0,0.0,0.0,0.0,0.0,0.0,0.0,0.0,0.0,0.0,0.0,0.0,0.0,0.0,0.0,0.0,0.0,0.0,0.0,-0.4594,-0.315,-0.0413,0.0,0.0,0.0,0.0,0.0,0.0,0.0951,0.0413,0.0,0.0,0.0,0.0,0.0,0.0,0.0,0.0,0.0,0.0,0.0,0.0,0.0,0.0,0.0,0.0,0.0,0.0,0.0,0.0,0.0,0.0,0.0,0.0,0.0,0.0,0.0,0.0,0.0,0.0,0.0,0.0,0.0,0.0,0.0,0.0,0.0,0.0,0.0,0.0,0.0,0.0,0.0,0.0,0.0,0.0,0.0,0.0,0.0,0.0,0.0,0.0,0.0,0.0,0.0,0.1975,0.2057,0.2121,0.2161,0.214,0.211,0.2075,0.2079,0.202,0.0,0.0,0.0,0.0,0.0,0.0,0.0,0.0,0.0,0.0,0.0,0.0,0.0,0.0,0.0,0.0,0.0,0.0,0.0,0.0,0.0,0.0,0.0,0.0,0.0,0.0,0.0,0.0,0.0,0.0,0.0,0.0,0.0,0.0,0.0,0.0,0.0,0.0,0.0,0.0,0.0,-0.3465,-0.0428,0.0221,0.0,0.0,0.0,0.0,0.1337,0.1645,0.0,0.0,0.0,0.0,0.0,0.0,0.0,0.0,0.0,0.0,0.0,0.0,0.0,0.0,0.0,0.0,0.0,0.0,0.0,0.0,0.0,0.0,0.0,0.0,0.0,0.0,0.0,0.0,0.0,0.0,0.0,0.0,0.0,0.0,0.0,0.0,0.0,0.0,0.0,0.0,0.0,0.0,0.0,0.0,0.0,0.0,0.0,0.0,0.0,0.0,0.0,0.0,0.0,0.0,0.0,0.0,0.1974,0.2038,0.211,0.2189,0.2192,0.2162,0.2106,0.2131,0.2063,0.0,0.0,0.0,0.0,0.0,0.0,0.0,0.0,0.0,0.0,0.0,0.0,0.0,0.0,0.0,0.0,0.0,0.0,0.0,0.0,0.0,0.0,0.0,0.0,0.0,0.0,0.0,0.0,0.0,0.0,0.0,0.0,0.0,0.0,0.0,0.0,0.0,0.0,0.0,0.0,0.0,-0.0536,-0.0111,0.102,0.1381,0.0,0.0,0.0,0.0234,0.1153,0.0,0.0,0.0,0.0,0.0,0.0,0.0,0.0,0.0,0.0,0.0,0.0,0.0,0.0,0.0,0.0,0.0,0.0,0.0,0.0,0.0,0.0,0.0,0.0,0.0,0.0,0.0,0.0,0.0,0.0,0.0,0.0,0.0,0.0,0.0,0.0,0.0,0.0,0.0,0.0,0.0,0.0,0.0,0.0,0.0,0.0,0.0,0.0,0.0,0.0,0.0,0.0,0.0,0.0,0.0,0.1914,0.2,0.2093,0.2169,0.2223,0.2226,0.2196,0.2136,0.2165,0.2112,0.0,0.0,0.0,0.0,0.0,0.0,0.0,0.0,0.0,0.0,0.0,0.0,0.0,0.0,0.0,0.0,0.0,0.0,0.0,0.0,0.0,0.0,0.0,0.0,0.0,0.0,0.0,0.0,0.0,0.0,0.0,0.0,0.0,0.0,0.0,0.0,0.0,0.0,0.0,0.0,0.0,0.0,0.0,0.0465,0.0,0.0,0.0,0.0963,0.0591,0.0,0.0,0.0,0.0,0.0,0.0,0.0,0.0,0.0,0.0,0.0,0.0,0.0,0.0,0.0,0.0,0.0,0.0,0.0,0.0,0.0,0.0,0.0,0.0,0.0,0.0,0.0,0.0,0.0,0.0,0.0,0.0,0.0,0.0,0.0,0.0,0.0,0.0,0.0,0.0,0.0,0.0,0.0,0.0,0.0,0.0,0.0,0.0,0.0,0.0,0.0,0.0,0.0,0.0,0.0,0.0,0.0,0.203,0.2142,0.2222,0.2264,0.226,0.2236,0.2191,0.2204,0.0,0.0,0.0,0.0,0.0,0.0,0.0,0.0,0.0,0.0,0.0,0.0,0.0,0.0,0.0,0.0,0.0,0.0,0.0,0.0,0.0,0.0,0.0,0.0,0.0,0.0,0.0,0.1292,0.0,0.0,0.0,0.0,0.0,0.0,0.0,0.0,0.0,0.0,0.0,0.0,0.0,0.0,0.0443,0.0349,0.0359,0.0848,0.0,0.0,0.1732,0.1325,0.1713,0.1847,0.0,0.0,0.0,0.0,0.0,0.0,0.0,0.0,0.0,0.0,0.0,0.0,0.0,0.0,0.0,0.0,0.0,0.0,0.0,0.0,0.0,0.0,0.0,0.0,0.0,0.0,0.0,0.0,0.0,0.0,0.0,0.0,0.0,0.0,0.0,0.0,0.0,0.0,0.0,0.0,0.0,0.0,0.0,0.0,0.0,0.0,0.0,0.0,0.0,0.0,0.0,0.0,0.0,0.0,0.2003,0.2061,0.2153,0.2243,0.2323,0.2301,0.2286,0.2282,0.2256,0.2185,0.0,0.0,0.0,0.0,0.0,0.0,0.0,0.0,0.0,0.0,0.0,0.0,0.0,0.0,0.0,0.0,0.0,0.0,0.0,0.0,0.0,0.0,0.0,0.0,0.0,0.0,0.0,0.0,0.0,0.0,0.0,0.0,0.0,0.0,0.0,0.0,0.0,0.0,0.0,0.0,0.0,0.1631,0.1099,0.1478,0.1743,0.0,0.1284,0.1536,0.1892,0.2016,0.2008,0.2099,0.0,0.0,0.0,0.0,0.0,0.0,0.0,0.0,0.0,0.0,0.0,0.0,0.0,0.0,0.0,0.0,0.0,0.0,0.0,0.0,0.0,0.0,0.0,0.0,0.0,0.0,0.0,0.0,0.0,0.0,0.0,0.0,0.0,0.0,0.0,0.0,0.0,0.0,0.0,0.0,0.0,0.0,0.0,0.0,0.0,0.0,0.0,0.0,0.0,0.0,0.0,0.0,0.0,0.2069,0.2093,0.2217,0.2308,0.2358,0.2368,0.2354,0.2318,0.2289,0.2243,0.0,0.0,0.0,0.0,0.0,0.0,0.0,0.0,0.0,0.0,0.0,0.0,0.0,0.0,0.0,0.0,0.0,0.0,0.0,0.0,0.0,0.0,0.0,0.0,0.0,0.0,0.0,0.0,0.1528,0.1545,0.1538,0.0,0.0,0.0,0.0,0.0,0.0,0.0,0.0,0.0,0.0,0.1915,0.16,0.1897,0.0,0.0,0.1833,0.1977,0.208,0.2123,0.2138,0.2199,0.2231,0.0,0.0,0.0,0.0,0.0,0.0,0.0,0.0,0.0,0.0,0.0,0.0,0.0,0.0,0.0,0.0,0.0,0.0,0.0,0.0,0.0,0.0,0.0,0.0,0.0,0.0,0.0,0.0,0.0,0.0,0.0,0.0,0.0,0.0,0.0,0.0,0.0,0.0,0.0,0.0,0.0,0.0,0.0,0.0,0.0,0.0,0.0,0.0,0.0,0.0,0.0,0.0,0.2123,0.2124,0.2262,0.2352,0.2391,0.2412,0.2408,0.2373,0.2328,0.2293,0.0,0.0,0.0,0.0,0.0,0.0,0.0,0.0,0.0,0.0,0.0,0.0,0.0,0.0,0.0,0.0,0.0,0.0,0.0,0.0,0.0,0.0,0.0,0.0,0.0,0.0,0.0,0.0,0.1609,0.1641,0.1639,0.0,0.0,0.0,0.0,0.0,0.0,0.0,0.0,0.0,0.0,0.2106,0.2012,0.2084,0.2132,0.2252,0.2169,0.2198,0.2168,0.221,0.2223,0.2159,0.0,0.0,0.0,0.0,0.0,0.0,0.0,0.0,0.0,0.0,0.0,0.0,0.0,0.0,0.0,0.0,0.0,0.0,0.0,0.0,0.0,0.0,0.0,0.0,0.0,0.0,0.0,0.152,0.0,0.0,0.1515,0.0,0.0,0.0,0.0,0.0,0.0,0.0,0.0,0.0,0.0,0.0,0.0,0.0,0.0,0.0,0.0,0.0,0.0,0.0,0.0,0.0,0.0,0.2155,0.2157,0.2274,0.2363,0.242,0.2424,0.2438,0.2461,0.2379,0.2331,0.2328,0.0,0.0,0.0,0.0,0.0,0.0,0.0,0.0,0.0,0.0,0.0,0.0,0.0,0.0,0.0,0.0,0.0,0.0,0.0,0.0,0.0,0.0,0.0,0.0,0.0,0.0,0.1536,0.1635,0.1726,0.0,0.0,0.0,0.0,0.0,0.0,0.0,0.0,0.0,0.2049,0.2061,0.2072,0.2102,0.2159,0.2208,0.2236,0.229,0.2319,0.2289,0.2266,0.2245,0.0,0.0,0.0,0.0,0.0,0.0,0.0,0.0,0.0,0.0,0.0,0.0,0.0,0.0,0.0,0.0,0.0,0.0,0.0,0.0,0.0,0.0,0.0,0.0,0.0,0.0,0.0,0.1674,0.1671,0.0,0.0,0.0,0.0,0.0,0.0,0.0,0.0,0.0,0.0,0.0,0.1964,0.2022,0.0,0.0,0.0,0.0,0.0,0.0,0.0,0.0,0.0,0.0,0.0,0.0,0.2264,0.2251,0.2343,0.2413,0.2453,0.2473,0.2478,0.2469,0.242,0.2373,0.2333,0.0,0.0,0.0,0.0,0.0,0.0,0.0,0.0,0.0,0.0,0.0,0.0,0.0,0.0,0.0,0.0,0.0,0.0,0.0,0.0,0.0,0.0,0.0,0.0,0.0,0.1592,0.0,0.0,0.0,0.0,0.0,0.0,0.0,0.0,0.0,0.0,0.0,0.1999,0.2056,0.2098,0.2128,0.2138,0.2225,0.2285,0.0,0.0,0.0,0.0,0.0,0.0,0.0,0.0,0.0,0.0,0.0,0.0,0.0,0.0,0.2199,0.215,0.2132,0.2261,0.2139,0.0,0.0,0.0,0.0,0.0,0.0,0.0,0.0,0.0,0.0,0.0,0.0,0.0,0.0,0.1828,0.1825,0.1797,0.0,0.0,0.0,0.0,0.0,0.0,0.0,0.0,0.2056,0.2071,0.2072,0.2129,0.2142,0.2117,0.2154,0.2132,0.0,0.0,0.0,0.0,0.0,0.0,0.0,0.0,0.2345,0.2311,0.2394,0.2448,0.2469,0.2499,0.2504,0.2485,0.2455,0.2416,0.2365,0.2316,0.2289,0.0,0.0,0.0,0.0,0.0,0.0,0.0,0.0,0.0,0.0,0.0,0.0,0.0,0.0,0.0,0.0,0.0,0.0,0.0,0.0,0.0,0.0,0.0,0.1865,0.0,0.0,0.0,0.0,0.0,0.0,0.0,0.0,0.0,0.2001,0.2029,0.2072,0.212,0.2162,0.2185,0.2187,0.0,0.0,0.0,0.0,0.0,0.0,0.0,0.2478,0.2418,0.2425,0.2428,0.2399,0.2369,0.2356,0.2376,0.0,0.0,0.2274,0.2253,0.2249,0.226,0.223,0.2218,0.2266,0.2278,0.2297,0.0,0.0,0.0,0.0,0.2097,0.0,0.0,0.0,0.1981,0.1982,0.0,0.1954,0.0,0.0,0.0,0.0,0.2108,0.2106,0.0,0.0,0.2225,0.2244,0.2244,0.2243,0.2259,0.2288,0.2286,0.2288,0.2283,0.2203,0.0,0.0,0.0,0.0,0.0,0.0,0.2397,0.2343,0.2424,0.2469,0.2473,0.2502,0.2515,0.2515,0.2642,0.2612,0.2425,0.2491,0.2439,0.2435,0.3813,0.0,0.0,0.0,0.0,0.0,0.0,0.0,0.0,0.0,0.0,0.0,0.0,0.0,0.0,0.0,0.0,0.0,0.0,0.0,0.0,0.1928,0.0,0.0,0.0,0.0,0.0,0.0,0.0,0.0,0.0,0.2148,0.2121,0.2162,0.2211,0.2241,0.0,0.0,0.0,0.0,0.2382,0.2383,0.2459,0.2517,0.2517,0.2495,0.2477,0.2474,0.0,0.0,0.2425,0.2405,0.2406,0.2462,0.2448,0.2418,0.2391,0.2357,0.2343,0.2369,0.2373,0.2369,0.235,0.2383,0.2414,0.6098,0.0,0.0,0.0,0.0,0.3858,0.3109,0.2104,0.2104,0.2116,0.2135,0.2127,0.0,0.0,0.0,0.0,0.0,0.0,0.2187,0.226,0.2229,0.2236,0.2277,0.2256,0.2251,0.2259,0.2281,0.2301,0.232,0.2316,0.2323,0.2339,0.0,0.0,0.0,0.0,0.2447,0.2433,0.2455,0.2491,0.2533,0.2542,0.2547,0.2547,0.38,0.4243,0.4345,0.5328,0.5522,0.4679,0.5723,0.0,0.0,0.0,0.0,0.0,0.0,0.0,0.0,0.0,0.0,0.0,0.0,0.0,0.0,0.0,0.0,0.0,0.0,0.0,0.1932,0.2038,0.2114,0.0,0.0,0.0,0.0,0.0,0.0,0.0,0.0,0.0,0.2267,0.2228,0.2219,0.0,0.0,0.2293,0.2334,0.2399,0.2451,0.2472,0.2533,0.0,0.2577,0.2587,0.2589,0.2567,0.2548,0.2541,0.2549,0.2527,0.2519,0.2556,0.254,0.2523,0.253,0.2459,0.2406,0.241,0.2428,0.2448,0.2461,0.2478,0.2499,1.009,0.9868,0.8035,0.6715,0.5836,0.5705,0.4658,0.3196,0.3196,0.2793,0.2252,0.2252,0.2243,0.2225,0.2225,0.0,0.0,0.0,0.2262,0.2323,0.2275,0.2273,0.2305,0.2301,0.2304,0.2316,0.2335,0.2358,0.2387,0.2394,0.2409,0.2432,0.0,0.2451,0.2487,0.2499,0.2506,0.2504,0.2506,0.2529,0.2575,0.2577,0.2897,0.3701,0.4663,0.5442,0.6194,0.703,0.7374,0.6951,0.773,0.815,0.0,0.0,0.0,0.0,0.0,0.0,0.0,0.0,0.0,0.0,0.0,0.1814,0.2067,0.0,0.0,0.0,0.2007,0.203,0.2079,0.2159,0.0,0.0,0.0,0.0,0.0,0.0,0.0,0.2198,0.2259,0.2313,0.233,0.2297,0.2285,0.232,0.2335,0.236,0.2408,0.0,0.2511,0.253,0.2582,0.262,0.262,0.2645,0.2658,0.2641,0.2638,0.2638,0.2638,0.2623,0.2619,0.2631,0.2623,0.2617,0.2634,0.2578,0.2521,0.2499,0.2508,0.2527,0.2545,0.2557,0.2578,1.3717,1.3271,0.9619,0.797,0.7558,0.7558,0.6463,0.4947,0.4802,0.3932,0.2478,0.2335,0.2338,0.2339,0.2339,0.0,0.2418,0.2364,0.2354,0.238,0.2353,0.2341,0.2345,0.2369,0.2397,0.2423,0.2424,0.2439,0.2466,0.2443,0.2461,0.2517,0.2519,0.2521,0.2519,0.2545,0.256,0.256,0.2562,0.2739,0.2771,0.2774,0.3752,0.5544,0.5703,0.6509,0.811,0.8102,0.8471,0.9392,0.9796,1.0524,1.1603,0.0,0.0,0.0,0.0,0.0,0.0,0.0,0.0,0.0,0.0,0.0,0.0,0.0,0.0,0.2124,0.2177,0.0,0.2243,0.2275,0.0,0.0,0.0,0.2331,0.233,0.2331,0.2313,0.2262,0.0,0.0,0.2343,0.2368,0.2387,0.2393,0.2413,0.244,0.2474,0.253,0.2568,0.2578,0.2623,0.2658,0.2665,0.2686,0.2702,0.2701,0.2699,0.2699,0.2699,0.2695,0.2695,0.2699,0.2698,0.2697,0.2698,0.2694,0.2683,0.2626,0.2613,0.2612,0.2616,0.2638,0.2658,1.4179,1.3847,1.3015,1.1497,0.9672,0.9098,0.7963,0.6391,0.5235,0.4511,0.408,0.2946,0.238,0.2402,0.2402,0.2397,0.239,0.2398,0.2406,0.2412,0.2405,0.2414,0.2436,0.2421,0.2416,0.2423,0.2424,0.2439,0.2469,0.2485,0.2512,0.2548,0.257,0.257,0.2551,0.2556,0.256,0.256,0.2581,0.327,0.4828,0.487,0.5735,0.7581,0.8923,0.9682,1.0014,1.1259,1.1892,1.1746,1.1811,1.1352,1.022,1.1347,0.0,0.0,0.0,0.0,0.0,0.0,0.0,0.0,0.0,0.2121,0.2245,0.0,0.2271,0.0,0.2281,0.2286,0.2249,0.2292,0.0,0.0,0.232,0.2324,0.2303,0.2319,0.2335,0.2346,0.2358,0.2384,0.2431,0.2443,0.2465,0.2508,0.2482,0.2485,0.2557,0.2601,0.2643,0.2687,0.2725,0.2751,0.2752,0.2757,0.2763,0.2762,0.2762,0.2762,0.2762,0.2742,0.2735,0.2754,0.2742,0.2737,0.2759,0.2762,0.2758,0.2742,0.2721,0.2706,0.2706,0.2729,0.275,1.434,1.4279,1.4137,1.3215,1.1942,1.1495,1.0351,0.8855,0.7959,0.7211,0.6462,0.5449,0.4426,0.3536,0.3536,0.3218,0.244,0.2443,0.2444,0.2443,0.2444,0.2453,0.247,0.248,0.2484,0.2485,0.2497,0.2511,0.2527,0.2545,0.2562,0.2578,0.2594,0.2607,0.2617,0.2605,0.2612,0.2639,0.2668,0.3203,0.4263,0.4289,0.5698,0.8527,0.9311,1.0619,1.2307,1.2919,1.322,1.3105,1.2969,1.2476,1.1311,1.2024,1.2132,0.0,0.0,0.0,0.0,0.0,0.0,0.0,0.0,0.0,0.0,0.0,0.2382,0.2353,0.2339,0.2319,0.2288,0.2326,0.2352,0.235,0.2376,0.2393,0.239,0.2393,0.2405,0.2435,0.2427,0.2442,0.25,0.2508,0.2532,0.259,0.2593,0.2607,0.2653,0.2688,0.2725,0.2772,0.2804,0.2834,0.2857,0.2863,0.2861,0.2863,0.2863,0.2863,0.2861,0.2849,0.2844,0.2857,0.2849,0.2841,0.2859,0.2863,0.2863,0.286,0.2849,0.2823,0.2788,0.2803,0.2826,1.457,1.457,1.4271,1.4121,1.4145,1.3992,1.2972,1.1503,1.1195,1.0263,0.8566,0.8274,0.7041,0.5338,0.5347,0.4564,0.3145,0.3274,0.3258,0.3254,0.2949,0.2796,0.2799,0.2698,0.2566,0.2567,0.2594,0.2608,0.2608,0.2615,0.2619,0.2619,0.2623,0.2653,0.2706,0.2684,0.2694,0.2743,0.2777,0.3145,0.3673,0.3678,0.5475,0.933,0.9347,1.0729,1.4095,1.3777,1.3587,1.379,1.3553,1.3322,1.3152,1.3064,1.2827,0.0,1.2393,0.0,0.0,0.0,0.0,0.0,0.0,0.0,0.0,0.2431,0.2454,0.2431,0.2384,0.2354,0.235,0.2375,0.2401,0.2427,0.2453,0.2481,0.2508,0.2491,0.2487,0.2517,0.2496,0.2504,0.2568,0.2579,0.2605,0.2672,0.2725,0.2758,0.2769,0.2787,0.2811,0.2841,0.2867,0.29,0.2941,0.2956,0.2954,0.2958,0.2953,0.2962,0.2956,0.2956,0.2958,0.2958,0.2951,0.2956,0.2961,0.2958,0.2958,0.2953,0.295,0.2927,0.287,0.2867,0.2893,1.5309,1.5309,1.5152,1.5152,1.516,1.5224,1.4299,1.2742,1.1521,0.991,0.8162,0.7937,0.755,0.7148,0.7377,0.721,0.6832,0.6883,0.6868,0.681,0.5439,0.4826,0.4665,0.3234,0.2593,0.2596,0.2624,0.2638,0.2639,0.2688,0.2712,0.2713,0.2736,0.2766,0.2801,0.0,0.0,0.0,0.2829,0.4474,0.7743,0.7809,0.9716,1.3713,1.3563,0.0,1.4299,1.4075,1.3858,1.3675,1.3498,0.0,0.0,0.0,0.0,0.0,0.0,0.0,0.0,0.0,0.0,0.0,0.5842,0.2442,0.2384,0.2412,0.244,0.2458,0.2472,0.247,0.2446,0.2448,0.2454,0.2461,0.2465,0.2481,0.251,0.251,0.2517,0.2547,0.2547,0.2575,0.2654,0.2688,0.2735,0.2811,0.286,0.2891,0.2913,0.2898,0.2902,0.293,0.2941,0.2949,0.296,0.2966,0.2973,0.2962,0.2962,0.2965,0.2968,0.2966,0.2964,0.2966,0.2962,0.2965,0.2965,0.2962,0.2969,0.2962,0.2964,0.2957,0.2939,0.2941,0.2946,1.5512,1.5512,1.5512,1.5512,0.0,1.5512,1.52,1.447,1.3605,1.2522,1.1491,1.1245,1.0685,0.9786,0.9848,0.9035,0.7549,0.808,0.7455,0.6003,0.5581,0.4804,0.4001,0.3186,0.2691,0.2692,0.2707,0.2714,0.2716,0.2744,0.2761,0.2761,0.2776,0.2812,0.2871,0.3805,0.4326,0.4238,0.4303,0.5971,0.8717,0.8986,1.0397,1.3554,1.337,0.0,0.0,0.0,0.0,0.0,0.0,0.0,0.0,1.3431,0.0,1.2881,1.2915,1.2888,1.2745,1.2745,1.2732,1.2351,0.7893,0.4222,0.2597,0.2458,0.2474,0.2491,0.2506,0.2508,0.2493,0.2504,0.2514,0.2514,0.2526,0.2547,0.2574,0.2579,0.2598,0.2641,0.2661,0.2695,0.2751,0.2787,0.2827,0.2886,0.2934,0.2972,0.2995,0.2966,0.295,0.298,0.3013,0.3029,0.3031,0.3043,0.305,0.3051,0.3051,0.3051,0.3051,0.3051,0.3051,0.3051,0.3051,0.3051,0.3051,0.3051,0.3051,0.3051,0.3051,0.3051,0.3048,0.3016,0.2994,1.5707,1.5707,1.5707,1.5707,1.5707,1.5699,1.578,1.5902,1.5538,0.0,0.0,1.4991,1.4033,1.2404,1.2268,1.0969,0.8684,0.9178,0.8077,0.5832,0.6218,0.5597,0.4284,0.3979,0.3827,0.3834,0.3842,0.3849,0.3855,0.3863,0.3866,0.3866,0.3866,0.3917,0.4014,0.576,0.6666,0.6874,0.6565,0.7516,0.936,0.9636,1.0698,1.2779,1.2562,1.3264,1.5126,1.4624,1.4394,1.4496,1.4231,1.3946,1.3688,1.3695,1.3451,1.2908,1.2874,1.282,1.2678,1.2779,1.2702,1.2562,1.0153,0.6879,0.2829,0.2518,0.2522,0.2522,0.2532,0.2538,0.2538,0.2566,0.2586,0.259,0.2612,0.2638,0.2667,0.2676,0.2699,0.2747,0.2777,0.2815,0.2855,0.2882,0.2913,0.2953,0.3005,0.3039,0.3055,0.3031,0.301,0.3035,0.3073,0.3103,0.3108,0.3119,0.3142,0.3133,0.3137,0.3142,0.3142,0.3142,0.3142,0.3133,0.3142,0.3138,0.3141,0.3134,0.3142,0.3142,0.3142,0.3142,0.3137,0.3084,0.3051,1.6422,1.643,1.643,1.643,1.643,1.643,1.6446,1.6438,1.5782,1.5311,1.5319,1.5135,1.4862,1.4536,1.4337,1.4055,1.3539,1.32,1.2866,1.2374,1.1014,1.0174,1.0017,0.8482,0.7838,0.791,0.7979,0.8048,0.8121,0.8008,0.8046,0.8042,0.8046,0.8061,0.8102,0.8567,0.9529,1.1161,0.9581,0.9857,1.2037,1.1957,1.3,1.4983,1.5017,1.4831,1.5004,1.4672,1.4489,1.4502,1.4231,1.3994,1.3831,1.3933,1.3797,1.3356,1.3431,1.3437,1.3281,1.3295,1.3144,1.2972,1.284,1.004,0.3349,0.2549,0.2553,0.2556,0.26,0.2628,0.263,0.2656,0.2682,0.2705,0.2716,0.2731,0.2761,0.2785,0.2806,0.2821,0.2842,0.2896,0.2962,0.2984,0.3017,0.3086,0.3104,0.3123,0.3126,0.3125,0.3119,0.3122,0.313,0.3137,0.3137,0.314,0.3148,0.3142,0.3146,0.3149,0.315,0.315,0.315,0.3145,0.3149,0.3148,0.3146,0.3142,0.3148,0.3149,0.315,0.3148,0.3149,0.3131,0.3126,1.6779,1.686,1.6868,1.6868,1.6877,1.6974,1.7023,1.7015,1.6768,1.6339,1.6013,1.5916,1.5947,1.5794,1.5786,1.5347,1.483,1.5082,1.429,1.2771,1.2419,1.1748,1.0738,0.9669,0.9339,0.9204,0.9067,0.8928,0.8973,0.9015,0.9036,0.904,0.9086,0.9666,1.0601,1.0885,1.1914,1.3876,1.2031,1.2085,1.4062,1.4192,1.4661,1.5635,1.5567,1.5472,1.5337,1.5038,1.4835,1.4767,1.4468,1.4211,1.3987,1.4034,1.3905,1.3559,1.3593,1.3566,1.341,1.3478,1.3385,1.3283,1.3675,1.2752,0.9359,0.5982,0.3815,0.2823,0.2697,0.2721,0.2721,0.2733,0.2747,0.2761,0.2763,0.2788,0.2844,0.2867,0.2894,0.2942,0.2976,0.3011,0.3051,0.307,0.3091,0.3138,0.3155,0.3171,0.3187,0.3189,0.3178,0.3152,0.3156,0.3167,0.3168,0.3182,0.3189,0.319,0.319,0.319,0.319,0.319,0.3189,0.319,0.319,0.319,0.3189,0.319,0.319,0.319,0.319,0.319,0.319,0.319,0.3185,1.7112,1.7226,1.7226,1.7226,1.7242,1.738,1.7445,1.7461,1.7575,1.7331,1.686,1.682,1.682,1.6836,1.6792,1.6331,1.5462,1.6103,1.5148,1.3083,1.345,1.2963,1.1764,1.1044,1.0876,1.0896,1.0538,1.0368,1.0387,1.0387,1.0392,1.0402,1.0497,1.1304,1.2999,1.2956,1.3853,1.5499,1.4186,1.3994,1.5513,1.5628,1.5689,1.5689,1.5883,1.5669,1.5628,1.5533,1.532,1.5011,1.4726,1.4462,1.4245,1.4224,1.4116,1.3905,1.3878,1.3831,1.3722,1.3633,1.3574,1.3674,1.4068,1.4451,1.4089,0.9952,0.5888,0.3799,0.3478,0.3328,0.2988,0.2821,0.2823,0.2823,0.2823,0.2857,0.2923,0.2942,0.2975,0.3051,0.3089,0.3107,0.312,0.3138,0.3155,0.3165,0.3183,0.3206,0.3225,0.323,0.3209,0.3183,0.3183,0.3195,0.32,0.3213,0.3225,0.323,0.3228,0.3224,0.3225,0.3228,0.323,0.3225,0.3227,0.3224,0.3228,0.3228,0.3227,0.3224,0.3223,0.3227,0.3224,0.3225,0.3223,1.7575,1.7591,1.7591,1.7591,1.7591,1.7616,1.7624,1.7624,1.764,1.7616,1.7526,1.7543,1.7526,1.7362,1.701,1.6837,1.6657,1.6325,1.6152,1.5804,1.5433,1.5258,1.4922,1.4375,1.4441,1.4375,1.4395,1.428,1.4377,1.4384,1.4571,1.4591,1.4721,1.4977,1.5574,1.5628,1.5784,1.6405,1.5954,1.5756,1.5818,1.5825,1.5832,1.5832,1.6426,1.6363,1.5655,1.573,1.5744,1.514,1.4882,1.4524,1.4679,1.4672,1.4477,1.4618,1.4618,1.4631,1.4423,1.4256,1.4243,1.4282,1.4443,1.4645,1.4672,1.263,0.9581,0.6567,0.5509,0.4843,0.3082,0.3105,0.3297,0.3477,0.33,0.296,0.3179,0.3022,0.3054,0.3088,0.3125,0.3148,0.3171,0.318,0.3193,0.321,0.3216,0.3223,0.3228,0.323,0.323,0.3221,0.3224,0.3224,0.3224,0.3227,0.323,0.323,0.323,0.323,0.323,0.323,0.323,0.323,0.323,0.323,0.323,0.323,0.323,0.323,0.323,0.323,0.323,0.323,0.3227,1.7867,1.7957,1.7957,1.7957,1.7957,1.7957,1.7957,1.7957,1.7957,1.7957,1.7973,1.807,1.7949,1.7656,1.7571,1.7445,1.7453,1.7356,1.7403,1.7403,1.7219,1.7026,1.7042,1.6584,1.6479,1.6545,1.6074,1.5772,1.582,1.5643,1.5452,1.5459,1.552,1.554,1.5746,1.5856,1.5959,1.6643,1.6511,1.6553,1.6778,1.6383,1.5988,1.5988,1.6186,1.6165,1.5879,1.5808,1.5643,1.5432,1.516,1.4964,1.4882,1.4882,1.4835,1.4753,1.474,1.474,1.474,1.4551,1.4551,1.474,1.4929,1.4943,1.495,1.401,1.2301,0.988,0.8391,0.7306,0.6422,0.5529,0.5172,0.6097,0.5569,0.4879,0.4768,0.5007,0.4675,0.3365,0.3186,0.3197,0.3209,0.3213,0.3217,0.3228,0.323,0.323,0.323,0.323,0.323,0.323,0.323,0.323,0.323,0.323,0.323,0.323,0.323,0.323,0.323,0.323,0.323,0.323,0.323,0.323,0.323,0.323,0.323,0.323,0.323,0.323,0.323,0.323,0.323,1.8208,1.8322,1.8322,1.8322,1.8322,1.8322,1.8322,1.8322,1.833,1.8322,1.8338,1.8468,1.8314,1.7989,1.8079,1.8135,1.816,1.8273,1.8322,1.8322,1.8134,1.8134,1.815,1.7694,1.7566,1.7398,1.6914,1.6594,1.6401,1.6022,1.5828,1.5642,1.5683,1.589,1.6091,1.6119,1.6398,1.7086,1.6904,1.7159,1.7452,1.6878,1.6481,1.6481,1.6679,1.6672,1.6474,1.6223,1.6084,1.589,1.5445,1.5242,1.5106,1.5092,1.5025,1.4882,1.4862,1.4862,1.4862,1.4862,1.4862,1.5243,1.5271,1.5306,1.5313,1.5149,1.428,1.304,1.1662,1.0487,0.893,0.7628,0.7635,0.8772,0.7712,0.7046,0.7178,0.7244,0.6722,0.5226,0.5432,0.4638,0.4236,0.4235,0.4035,0.3431,0.323,0.323,0.323,0.323,0.323,0.323,0.323,0.323,0.323,0.323,0.323,0.323,0.323,0.323,0.323,0.323,0.323,0.323,0.323,0.323,0.323,0.323,0.3234,0.3231,0.3232,0.3234,0.323,0.3231,0.3235,1.8696,1.8696,1.8696,1.868,1.8696,1.8688,1.8688,1.8663,1.868,1.8688,1.8671,1.8704,1.8696,1.8647,1.8655,1.868,1.868,1.8663,1.8663,1.8663,1.8288,1.8112,1.7927,1.755,1.7365,1.7365,1.721,1.7024,1.643,1.6415,1.6015,1.5655,1.637,1.6825,1.7231,1.7348,1.784,1.8228,1.7833,1.7657,1.7665,1.7672,1.7672,1.7672,1.8061,1.8061,1.765,1.7501,1.7013,1.6629,1.5676,1.5334,1.5404,1.5194,1.512,1.5181,1.5167,1.516,1.516,1.516,1.516,1.5181,1.5471,1.5568,1.5547,1.5445,1.5321,1.5395,1.495,1.331,1.0275,0.9299,0.9138,0.9585,0.9232,0.9128,0.9284,0.891,0.936,0.8836,0.8252,0.7251,0.6045,0.6246,0.504,0.3633,0.323,0.323,0.323,0.323,0.323,0.323,0.323,0.323,0.3231,0.323,0.323,0.323,0.323,0.3231,0.3231,0.323,0.3231,0.3232,0.3236,0.3236,0.3232,0.3234,0.3239,0.3242,0.3245,0.3245,0.3253,0.3238,0.3245,1.8728,1.8728,1.8728,1.8728,1.8728,1.8728,1.8728,1.8728,1.8728,1.8728,1.8744,1.8842,1.8891,1.8899,1.9013,1.8939,1.8736,1.8728,1.8728,1.8728,1.8528,1.8528,1.8536,1.8447,1.8309,1.8324,1.8223,1.769,1.7297,1.7297,1.71,1.6911,1.7159,1.7385,1.759,1.7635,1.7863,1.8457,1.8259,1.8457,1.8671,1.8663,1.8663,1.8663,1.8267,1.7863,1.7665,1.7508,1.7223,1.6643,1.5897,1.5401,1.5567,1.5554,1.5533,1.5486,1.5479,1.5472,1.5274,1.5274,1.5274,1.5281,1.552,1.5753,1.5767,1.5801,1.5635,1.5642,1.5642,1.4597,1.3578,1.2187,1.1818,1.283,1.1149,0.9644,0.9316,0.8378,0.7023,0.5841,0.5443,0.5242,0.5047,0.4438,0.4035,0.3431,0.3231,0.3232,0.3231,0.3231,0.3234,0.3231,0.3231,0.3238,0.3258,0.324,0.323,0.323,0.3231,0.3232,0.3234,0.3238,0.3239,0.326,0.326,0.3265,0.3269,0.3277,0.3277,0.3279,0.328,0.3275,0.329,0.3276,0.3284,1.8899,1.8899,1.8899,1.8899,1.8899,1.8899,1.8899,1.8899,1.8899,1.8899,1.8923,1.9021,1.9069,1.9094,1.9207,1.9142,1.8907,1.8899,1.8899,1.8899,1.8899,1.8899,1.8915,1.9021,1.9102,1.9175,1.894,1.8628,1.8221,1.8221,1.8021,1.7829,1.8029,1.8029,1.8221,1.8229,1.8621,1.8828,1.8828,1.9028,1.9427,1.9427,1.9427,1.9427,1.8828,1.8367,1.8275,1.7947,1.7697,1.7093,1.6398,1.573,1.571,1.5662,1.5635,1.5635,1.5635,1.5442,1.5435,1.5241,1.5435,1.5442,1.5683,1.5911,1.6112,1.5952,1.5798,1.5839,1.5859,1.5866,1.5716,1.4731,1.4477,1.5178,1.3268,1.1768,1.1604,1.0498,0.8929,0.7322,0.6309,0.5494,0.4477,0.4276,0.4076,0.3462,0.326,0.326,0.326,0.326,0.326,0.326,0.3264,0.3272,0.3285,0.3279,0.3475,0.3475,0.3264,0.3257,0.3253,0.3254,0.3261,0.3281,0.3295,0.3303,0.3311,0.332,0.3322,0.3324,0.3313,0.3303,0.3311,0.3315,0.3322,1.9248,1.9232,1.9256,1.9224,1.9216,1.9207,1.924,1.9216,1.9224,1.9199,1.9191,1.924,1.9232,1.9248,1.9248,1.9248,1.9216,1.9216,1.9216,1.9207,1.9232,1.924,1.924,1.9248,1.9313,1.9435,1.9662,1.9541,1.8893,1.8901,1.8714,1.8338,1.8714,1.8901,1.8948,1.933,1.976,1.9743,1.9735,1.9752,1.9784,1.9752,1.9743,1.9752,1.9752,1.9404,1.9305,1.8877,1.848,1.8275,1.7048,1.6172,1.6083,1.598,1.5683,1.5716,1.5683,1.5669,1.5683,1.571,1.5744,1.5952,1.6014,1.611,1.6138,1.622,1.6137,1.6232,1.6266,1.6327,1.6422,1.6232,1.6091,1.5967,1.5228,1.495,1.5467,1.6009,1.5277,1.2369,1.0304,0.8678,0.7241,0.6608,0.5984,0.4338,0.3722,0.3515,0.3306,0.3306,0.3315,0.3315,0.3306,0.3303,0.3313,0.3321,0.3528,0.3527,0.331,0.3303,0.3296,0.3296,0.33,0.3317,0.3333,0.3341,0.3343,0.335,0.3344,0.3343,0.3335,0.3336,0.3343,0.335,0.3351,1.9264,1.9264,1.9264,1.9264,1.9264,1.9264,1.9264,1.9264,1.9264,1.9264,1.9264,1.9264,1.9264,1.9264,1.9264,1.9264,1.9272,1.937,1.937,1.9305,1.9378,1.9435,1.9435,1.9435,1.9402,1.9378,1.9516,1.9605,1.9436,1.9533,1.9386,1.9378,1.9386,1.9581,1.9597,1.9792,1.9792,1.9792,1.9792,1.9792,1.9792,1.9792,1.9792,1.9792,1.9792,1.9727,1.963,1.942,1.9219,1.88,1.8598,1.7761,1.6696,1.6675,1.6654,1.6246,1.6246,1.6045,1.6038,1.6024,1.6018,1.6038,1.6279,1.6313,1.6313,1.6341,1.6395,1.6449,1.6456,1.6483,1.651,1.6517,1.6456,1.6327,1.5132,1.4351,1.4404,1.3211,1.1979,1.1161,1.0334,0.9716,0.9102,0.8899,0.7876,0.6016,0.5604,0.519,0.3945,0.3742,0.3321,0.3321,0.3322,0.4374,0.5219,0.5859,0.6071,0.565,0.4806,0.4173,0.3959,0.3336,0.334,0.335,0.3366,0.3374,0.3377,0.3375,0.3371,0.3377,0.338,0.3381,0.3382,0.3382,0.3381,1.9264,1.9264,1.9264,1.9264,1.9264,1.9264,1.9264,1.9264,1.9264,1.9264,1.9264,1.9264,1.9297,1.9345,1.9354,1.9394,1.9459,1.9573,1.9557,1.9475,1.9557,1.9613,1.963,1.9695,1.967,1.9613,1.9735,1.9808,1.9817,1.9922,1.9987,1.9987,1.9987,1.9995,1.9987,1.9987,1.9987,1.9987,1.9995,1.9987,1.9987,1.9987,1.9987,1.9987,1.9987,1.9987,1.9987,1.9987,1.9718,1.9402,1.9174,1.8768,1.7953,1.7749,1.7144,1.6939,1.6517,1.651,1.6312,1.6279,1.6312,1.6517,1.6524,1.6728,1.6728,1.6524,1.6537,1.6592,1.6605,1.6632,1.668,1.6693,1.6693,1.6693,1.5596,1.4565,1.4382,1.273,1.1692,1.1493,1.0657,1.0232,1.0232,1.0024,0.9608,0.8361,0.7944,0.7736,0.6277,0.6071,0.5857,0.5857,0.6499,0.7357,0.7792,0.8226,0.8661,0.7808,0.6744,0.5893,0.5256,0.4,0.3373,0.338,0.3393,0.3393,0.3396,0.34,0.3399,0.3411,0.3411,0.3405,0.3399,0.3401,0.3401,1.9264,1.9264,1.9264,1.9264,1.9264,1.9281,1.9297,1.9289,1.9313,1.9329,1.9321,1.9337,1.9402,1.9508,1.9532,1.9605,1.976,1.9792,1.98,1.9792,1.9825,1.9833,1.9825,1.9938,1.9963,1.9987,2.0141,2.0239,2.0182,2.0239,2.032,2.0279,2.0263,2.0304,2.0271,2.0304,2.0279,2.0263,2.0288,2.0279,2.0288,2.0296,2.0288,2.0288,2.0279,2.0279,2.0263,2.0263,2.0141,1.9873,1.9449,1.9465,1.9653,1.8406,1.761,1.7207,1.6769,1.6578,1.6564,1.6598,1.6592,1.681,1.7016,1.6967,1.7009,1.6824,1.6653,1.6748,1.6761,1.6815,1.6917,1.6937,1.6944,1.6951,1.6627,1.6406,1.6735,1.5042,1.3957,1.3548,1.1882,1.061,1.1226,1.1226,1.1015,1.0382,1.0378,1.0159,0.9526,0.8882,0.9757,0.9538,0.8878,0.9511,0.994,1.0361,1.0796,1.1428,0.994,0.8246,0.6766,0.5294,0.4241,0.4039,0.3408,0.3411,0.3411,0.3411,0.3411,0.3411,0.3411,0.3411,0.3412,0.3412,0.3415,1.9264,1.9264,1.9264,1.9264,1.9281,1.9386,1.9443,1.9459,1.9589,1.9613,1.9638,1.9646,1.9662,1.9711,1.9719,1.9752,1.9825,1.9938,1.9995,2.002,2.0133,2.0101,2.002,2.0036,2.0003,1.993,2.0085,2.0133,2.0141,2.0263,2.032,2.032,2.032,2.032,2.032,2.032,2.032,2.032,2.032,2.032,2.032,2.032,2.032,2.032,2.032,2.032,2.032,2.032,2.0296,2.0198,1.9967,1.956,1.9122,1.8499,1.7869,1.7252,1.7058,1.6856,1.6849,1.6849,1.6849,1.7071,1.7037,1.7071,1.7071,1.6856,1.6876,1.6917,1.6917,1.6931,1.6971,1.6978,1.6978,1.6978,1.6931,1.6924,1.6965,1.6558,1.6131,1.5914,1.5283,1.4856,1.4856,1.4645,1.4218,1.3158,1.252,1.2309,1.1464,1.1042,1.1253,1.0619,1.0179,1.124,1.1877,1.2515,1.3364,1.4633,1.3569,1.1235,0.9326,0.7217,0.6372,0.5955,0.4047,0.3411,0.3411,0.3411,0.3411,0.3415,0.3416,0.3419,0.3415,0.3414,0.3419,1.9264,1.9264,1.9264,1.9297,1.9362,1.9394,1.9443,1.9524,1.9622,1.967,1.9687,1.976,1.9833,1.9906,1.9906,1.9955,2.0028,2.0125,2.0166,2.0182,2.0263,2.0255,2.019,2.0174,2.0109,2.0036,2.0117,2.0174,2.019,2.0271,2.0312,2.032,2.032,2.032,2.032,2.032,2.032,2.032,2.032,2.032,2.032,2.032,2.032,2.032,2.032,2.032,2.032,2.032,2.032,2.032,2.032,1.9686,1.8843,1.8634,1.8222,1.7398,1.7188,1.6971,1.6978,1.6978,1.6978,1.6978,1.6978,1.6978,1.6971,1.6978,1.6978,1.6971,1.6978,1.6978,1.6978,1.6978,1.6978,1.6978,1.6978,1.6978,1.6978,1.6978,1.6978,1.6978,1.6978,1.6978,1.6978,1.6978,1.6341,1.5493,1.506,1.4429,1.3797,1.3158,1.2736,1.2525,1.2525,1.358,1.4218,1.4639,1.4639,1.6131,1.5914,1.3791,1.1464,0.9133,0.7653,0.6592,0.4685,0.3412,0.3415,0.3418,0.3422,0.3425,0.3426,0.3435,0.344,0.3437,0.3438,1.9272,1.9289,1.9264,1.937,1.95,1.9386,1.9459,1.9565,1.9654,1.9662,1.9695,1.9792,1.9963,2.0093,2.0093,2.0166,2.0296,2.0288,2.0304,2.0304,2.032,2.0304,2.0296,2.0288,2.0279,2.0271,2.0312,2.0312,2.0296,2.0312,2.032,2.032,2.032,2.032,2.032,2.032,2.032,2.032,2.032,2.032,2.032,2.032,2.032,2.032,2.032,2.032,2.032,2.032,2.032,2.032,2.032,1.9686,1.8835,1.8634,1.8222,1.7811,1.7188,1.6978,1.6978,1.6978,1.6978,1.6978,1.6978,1.6978,1.6978,1.6978,1.6978,1.6978,1.6978,1.6978,1.6978,1.6978,1.6978,1.6978,1.6978,1.6978,1.6978,1.6978,1.6978,1.6978,1.6978,1.6978,1.6978,1.6978,1.6978,1.6341,1.6335,1.5914,1.5493,1.5277,1.5493,1.5704,1.5914,1.6551,1.6551,1.6761,1.6551,1.6768,1.6768,1.5277,1.2948,1.083,0.871,0.7019,0.5974,0.449,0.3426,0.3429,0.3438,0.3449,0.346,0.3475,0.3487,0.3479,0.3476,1.9337,1.9451,1.9321,1.9443,1.9695,1.9695,1.9776,1.9938,2.0076,2.0085,2.0141,2.0182,2.0214,2.0255,2.0255,2.0296,2.032,2.032,2.032,2.032,2.032,2.032,2.032,2.032,2.032,2.032,2.032,2.032,2.032,2.032,2.032,2.032,2.032,2.032,2.032,2.032,2.032,2.032,2.032,2.032,2.032,2.032,2.032,2.032,2.032,2.032,2.032,2.032,2.032,2.032,2.032,1.9895,1.9268,1.885,1.8432,1.7811,1.7398,1.6978,1.6978,1.6978,1.6978,1.6978,1.6978,1.6978,1.6978,1.6978,1.6978,1.6978,1.6978,1.6978,1.6978,1.6978,1.6978,1.6978,1.6978,1.6978,1.6978,1.6978,1.6978,1.6978,1.6978,1.6978,1.6978,1.6978,1.6978,1.6978,1.6978,1.6978,1.6978,1.6978,1.6978,1.6978,1.6978,1.6978,1.6992,1.7005,1.7032,1.7053,1.706,1.7066,1.4715,1.3206,1.152,0.9401,0.7491,0.6221,0.4521,0.3464,0.3478,0.3486,0.3494,0.3504,0.3512,0.351,0.3514,1.9362,1.95,1.9419,1.9589,1.9873,1.9833,1.9898,2.006,2.0158,2.0198,2.0223,2.0279,2.032,2.032,2.032,2.032,2.032,2.032,2.032,2.032,2.032,2.032,2.032,2.032,2.032,2.032,2.032,2.032,2.032,2.032,2.032,2.032,2.032,2.032,2.032,2.032,2.032,2.032,2.032,2.032,2.032,2.032,2.032,2.032,2.032,2.032,2.032,2.032,2.032,2.032,2.032,2.0119,1.9702,1.9276,1.8649,1.7811,1.7601,1.7188,1.7188,1.6978,1.6978,1.6978,1.6978,1.6978,1.6978,1.6978,1.6978,1.6978,1.6978,1.6978,1.6978,1.6978,1.6978,1.6978,1.6978,1.6978,1.6978,1.6978,1.6978,1.6978,1.6978,1.6978,1.6978,1.6978,1.6978,1.6978,1.6978,1.6978,1.6978,1.6978,1.6978,1.6978,1.6978,1.6985,1.6998,1.7039,1.71,1.7148,1.7202,1.7229,1.6389,1.5277,1.4602,1.2035,0.9472,0.7356,0.5647,0.4589,0.3733,0.3519,0.3524,0.3531,0.3539,0.3549,0.3553,1.941,1.9589,1.9565,1.9768,2.0044,1.9914,1.9946,2.0101,2.0101,2.015,2.0133,2.0263,2.032,2.032,2.032,2.032,2.032,2.032,2.032,2.032,2.032,2.032,2.032,2.032,2.032,2.032,2.032,2.032,2.032,2.032,2.032,2.032,2.032,2.032,2.032,2.032,2.032,2.032,2.032,2.032,2.032,2.032,2.032,2.032,2.032,2.032,2.032,2.032,2.032,2.032,2.032,2.0328,2.0136,1.971,1.9075,1.802,1.802,1.7601,1.7188,1.7188,1.6978,1.6978,1.6978,1.6978,1.6978,1.6978,1.6978,1.6978,1.6978,1.6978,1.6978,1.6978,1.6978,1.6978,1.6978,1.6978,1.6978,1.6978,1.6978,1.6978,1.6978,1.6978,1.6978,1.6978,1.6978,1.6985,1.6992,1.6998,1.7012,1.7026,1.7053,1.7107,1.7141,1.7154,1.7168,1.7168,1.7222,1.7263,1.7331,1.7365,1.7405,1.6753,1.5625,1.3632,1.1272,0.915,0.723,0.5722,0.4862,0.3989,0.3553,0.3557,0.357,0.3587,0.3584,1.9662,1.9963,1.9808,1.9955,2.0223,2.0093,2.0125,2.0263,2.0288,2.0279,2.0288,2.0312,2.0336,2.0328,2.032,2.032,2.032,2.032,2.032,2.032,2.032,2.032,2.032,2.032,2.032,2.032,2.032,2.032,2.032,2.032,2.032,2.032,2.032,2.032,2.032,2.032,2.032,2.032,2.032,2.032,2.032,2.032,2.032,2.032,2.032,2.032,2.032,2.032,2.032,2.032,2.032,2.032,2.0119,1.9911,1.9493,1.9067,1.823,1.7811,1.7601,1.7188,1.6978,1.6978,1.6978,1.6978,1.6978,1.6978,1.6978,1.6978,1.6978,1.6978,1.6978,1.6978,1.6978,1.6978,1.6992,1.6992,1.6992,1.7012,1.7026,1.7046,1.7019,1.6998,1.7019,1.7039,1.7053,1.7073,1.7093,1.7127,1.7161,1.7182,1.7209,1.7283,1.7365,1.7372,1.7372,1.7365,1.7385,1.7392,1.7439,1.746,1.7507,1.7568,1.6455,1.4879,1.3352,1.1435,0.9499,0.7538,0.6226,0.5571,0.4691,0.3806,0.4033,0.4261,0.3589,1.9817,2.0052,1.9971,2.0085,2.0296,2.0336,2.0385,2.0466,2.0556,2.0596,2.0572,2.0507,2.0466,2.0442,2.0344,2.032,2.0328,2.032,2.032,2.032,2.032,2.032,2.032,2.032,2.032,2.032,2.032,2.032,2.032,2.032,2.032,2.032,2.032,2.032,2.032,2.032,2.032,2.032,2.032,2.032,2.032,2.032,2.032,2.032,2.032,2.032,2.032,2.032,2.032,2.032,2.032,2.032,2.0111,2.0111,1.9702,1.9485,1.8649,1.802,1.7811,1.7398,1.6978,1.6978,1.6978,1.6978,1.6978,1.6978,1.6985,1.6985,1.6978,1.6978,1.6978,1.6992,1.6978,1.6992,1.7046,1.7087,1.7107,1.7161,1.7175,1.7154,1.708,1.706,1.71,1.7121,1.7148,1.7168,1.7188,1.7243,1.7297,1.7331,1.7351,1.7412,1.748,1.748,1.75,1.7528,1.7534,1.7541,1.7568,1.7589,1.7623,1.769,1.7492,1.6589,1.507,1.3302,1.2218,1.0242,0.8711,0.7164,0.6267,0.5598,0.5153,0.4933,0.4036,2.0003,2.0174,2.0214,2.0304,2.0442,2.058,2.0645,2.0669,2.0734,2.0767,2.0775,2.0621,2.0547,2.0564,2.0499,2.0442,2.0426,2.0442,2.0434,2.0393,2.0393,2.0377,2.0328,2.032,2.032,2.032,2.032,2.032,2.032,2.032,2.032,2.032,2.032,2.032,2.032,2.032,2.032,2.032,2.032,2.032,2.032,2.032,2.032,2.032,2.032,2.032,2.032,2.032,2.032,2.032,2.032,2.032,2.032,2.032,2.0111,1.9694,1.9067,1.8649,1.802,1.7391,1.6971,1.6978,1.6978,1.6978,1.6998,1.7012,1.7032,1.7026,1.7073,1.7093,1.7114,1.708,1.7087,1.7107,1.7182,1.7243,1.7263,1.7304,1.7344,1.7283,1.7161,1.7161,1.7236,1.7243,1.727,1.7283,1.7311,1.7385,1.7439,1.746,1.7487,1.7528,1.7561,1.7568,1.7602,1.7663,1.7677,1.769,1.7717,1.7751,1.7785,1.7833,1.7599,1.7352,1.6703,1.5145,1.4065,1.2733,1.0508,0.8947,0.8057,0.6719,0.5155,0.4485,0.3814,2.0369,2.0547,2.0694,2.0775,2.0775,2.0807,2.0815,2.0799,2.0702,2.0629,2.0686,2.0474,2.0483,2.0596,2.0734,2.0767,2.0767,2.0734,2.0661,2.0572,2.0564,2.0491,2.0361,2.032,2.0361,2.0369,2.0344,2.032,2.032,2.032,2.032,2.032,2.032,2.032,2.032,2.032,2.032,2.032,2.032,2.032,2.032,2.032,2.032,2.032,2.032,2.0336,2.0353,2.0361,2.0353,2.0361,2.0344,2.0328,2.032,2.032,2.032,2.0111,1.9694,1.9067,1.8454,1.7615,1.7005,1.7026,1.7019,1.6985,1.7046,1.7121,1.7168,1.7175,1.727,1.7324,1.7311,1.7344,1.7358,1.7351,1.7358,1.7385,1.7405,1.748,1.7521,1.7507,1.7405,1.7385,1.7419,1.7405,1.7399,1.7412,1.7439,1.7514,1.7575,1.7602,1.7629,1.767,1.769,1.769,1.7684,1.7751,1.7772,1.7799,1.7826,1.786,1.786,1.786,1.786,1.7626,1.719,1.652,1.5407,1.3626,1.1843,1.0285,0.9174,0.6719,0.4262,0.3814,0.3589,2.0669,2.0742,2.0824,2.0848,2.0848,2.0848,2.0848,2.084,2.0783,2.0799,2.0848,2.0702,2.0669,2.0759,2.0832,2.0848,2.0848,2.0864,2.0824,2.0759,2.0734,2.0694,2.0653,2.0612,2.0596,2.0483,2.0458,2.0409,2.0369,2.0336,2.032,2.032,2.032,2.032,2.032,2.032,2.032,2.032,2.032,2.032,2.032,2.0328,2.0328,2.0328,2.0336,2.0385,2.0458,2.0474,2.0531,2.0588,2.0621,2.0621,2.0621,2.0629,2.0629,1.9993,1.9993,1.9523,1.8805,1.7721,1.7332,1.6982,1.7216,1.7243,1.7243,1.7277,1.7324,1.7324,1.7378,1.7426,1.7433,1.7419,1.7419,1.7439,1.7514,1.7541,1.7568,1.7656,1.7697,1.7677,1.7656,1.7623,1.7589,1.7568,1.7582,1.7629,1.7643,1.769,1.7738,1.7758,1.7785,1.7812,1.7819,1.7826,1.7812,1.7833,1.7819,1.7833,1.784,1.786,1.786,1.786,1.786,1.786,1.7639,1.6969,1.6299,1.5628,1.452,1.2293,1.0289,0.7611,0.5155,0.3814,0.3589,2.0848,2.0848,2.0848,2.0848,2.0848,2.0848,2.0848,2.0848,2.0791,2.088,2.1002,2.0945,2.0913,2.0945,2.0978,2.1027,2.1002,2.0986,2.0954,2.0937,2.0913,2.088,2.0824,2.0815,2.0767,2.0661,2.0661,2.0604,2.0515,2.0458,2.045,2.0328,2.032,2.032,2.032,2.0328,2.0336,2.0409,2.0409,2.0434,2.0474,2.0483,2.0474,2.0466,2.0474,2.0523,2.0637,2.0661,2.0734,2.0791,2.0815,2.0799,2.0799,2.0799,2.0799,2.0372,2.0158,1.9731,1.9021,1.8359,1.7532,1.7372,1.7419,1.7593,1.7399,1.7439,1.7473,1.748,1.7541,1.7548,1.7534,1.7548,1.7568,1.7609,1.765,1.7677,1.7704,1.7758,1.7792,1.7779,1.7772,1.7799,1.7765,1.7731,1.7758,1.7833,1.786,1.786,1.786,1.786,1.786,1.786,1.786,1.786,1.786,1.786,1.786,1.786,1.786,1.786,1.786,1.786,1.786,1.786,1.786,1.7639,1.6969,1.719,1.6969,1.3404,1.0062,0.8504,0.6719,0.4933,0.3814,2.0848,2.0848,2.0848,2.0848,2.0848,2.0848,2.0848,2.084,2.0694,2.0742,2.0937,2.1027,2.1108,2.1132,2.123,2.1295,2.1327,2.1343,2.123,2.114,2.11,2.1027,2.097,2.0921,2.088,2.084,2.084,2.0824,2.0791,2.0718,2.058,2.0377,2.0418,2.0361,2.0361,2.0418,2.0474,2.0547,2.058,2.0645,2.0726,2.0767,2.0767,2.0775,2.0799,2.0824,2.084,2.084,2.0872,2.069,2.0929,2.0929,2.0954,2.0945,2.0945,2.0515,2.0085,1.9684,1.9051,1.8769,1.8072,1.7641,1.7669,1.771,1.7507,1.7582,1.7623,1.7636,1.7697,1.7765,1.7792,1.7826,1.7758,1.7758,1.7758,1.7772,1.7792,1.7812,1.7846,1.7853,1.786,1.786,1.786,1.7806,1.7792,1.7853,1.786,1.786,1.786,1.786,1.786,1.786,1.786,1.786,1.786,1.786,1.786,1.786,1.786,1.786,1.786,1.786,1.786,1.786,1.786,1.786,1.786,1.7639,1.6299,1.2733,1.0285,0.9393,0.7164,0.4709,0.3814,2.0629,2.0539,2.0645,2.0759,2.0848,2.0742,2.0759,2.0815,2.0677,2.0767,2.1027,2.1197,2.1287,2.1311,2.1335,2.1384,2.1384,2.1384,2.1327,2.1311,2.127,2.1238,2.1181,2.114,2.114,2.1051,2.1019,2.0945,2.0848,2.0889,2.0807,2.0677,2.0645,2.0653,2.0653,2.0612,2.0677,2.0718,2.0759,2.0799,2.0824,2.0848,2.0848,2.0848,2.0848,2.0921,2.0994,2.1019,2.1083,2.114,2.1157,2.1148,2.1148,2.1148,2.0931,2.0714,2.0062,1.9672,1.9039,1.8748,1.8255,1.7902,1.7916,1.7902,1.7663,1.7745,1.7772,1.7799,1.7819,1.786,1.786,1.7853,1.784,1.786,1.786,1.786,1.786,1.786,1.786,1.786,1.786,1.786,1.786,1.7853,1.7853,1.786,1.786,1.786,1.786,1.786,1.786,1.786,1.786,1.786,1.786,1.786,1.786,1.786,1.786,1.786,1.786,1.786,1.786,1.786,1.786,1.786,1.786,1.786,1.6299,1.3399,1.1843,1.1176,0.8278,0.4709,0.4038,2.0491,2.0344,2.0458,2.0621,2.0759,2.0702,2.0742,2.0824,2.0734,2.084,2.114,2.1303,2.1384,2.1384,2.1384,2.1384,2.1384,2.1384,2.1384,2.1368,2.1368,2.1384,2.1384,2.136,2.1287,2.1222,2.1197,2.1132,2.1059,2.1019,2.1019,2.1019,2.1002,2.097,2.0832,2.0856,2.088,2.0921,2.0937,2.0978,2.1002,2.1027,2.1027,2.1035,2.1043,2.1092,2.1181,2.1205,2.1246,2.1311,2.1352,2.1368,2.1376,2.1384,2.1164,2.0725,2.0073,1.9412,1.8942,1.8459,1.8197,1.7812,1.7833,1.784,1.786,1.786,1.784,1.7846,1.786,1.786,1.786,1.786,1.786,1.786,1.786,1.786,1.786,1.786,1.786,1.786,1.786,1.786,1.786,1.786,1.786,1.786,1.786,1.786,1.786,1.786,1.786,1.786,1.786,1.786,1.786,1.786,1.786,1.786,1.786,1.786,1.786,1.786,1.786,1.786,1.786,1.786,1.786,1.786,1.652,1.4514,1.2733,1.0508,0.8504,0.5157,0.4038,2.0499,2.0328,2.0353,2.0466,2.0669,2.0783,2.0848,2.0889,2.088,2.0978,2.1165,2.1319,2.1384,2.1384,2.1384,2.1384,2.1384,2.1384,2.1384,2.1384,2.1384,2.1384,2.1384,2.1376,2.1368,2.1376,2.1343,2.1319,2.1327,2.1278,2.1303,2.1311,2.1254,2.1181,2.0889,2.0864,2.0954,2.1092,2.1116,2.1197,2.127,2.1295,2.1287,2.1278,2.1278,2.1303,2.1311,2.1327,2.1352,2.1368,2.1384,2.1384,2.1384,2.1384,2.1384,2.1164,2.0285,1.9632,1.9405,1.8515,1.8074,1.786,1.786,1.786,1.786,1.786,1.786,1.786,1.786,1.786,1.786,1.786,1.786,1.786,1.786,1.786,1.786,1.786,1.786,1.786,1.786,1.786,1.786,1.786,1.786,1.786,1.786,1.786,1.786,1.786,1.786,1.786,1.786,1.786,1.786,1.786,1.786,1.786,1.786,1.786,1.786,1.786,1.786,1.786,1.786,1.786,1.786,1.786,1.6741,1.5407,1.1398,0.895,0.7166,0.5826,0.4709,2.0734,2.0686,2.0807,2.0889,2.0921,2.0751,2.0807,2.1035,2.1148,2.1238,2.1295,2.1368,2.1384,2.1384,2.1384,2.1384,2.1384,2.1384,2.1384,2.1384,2.1384,2.1384,2.1384,2.1384,2.1384,2.1384,2.1384,2.1384,2.1368,2.1384,2.1384,2.1376,2.1376,2.1319,2.1238,2.1205,2.1254,2.1287,2.1303,2.1327,2.1376,2.1384,2.1384,2.1384,2.1384,2.1384,2.1384,2.1384,2.1384,2.1384,2.1384,2.1384,2.1384,2.1384,2.1384,2.1384,2.0505,1.9853,1.9192,1.8302,1.786,1.786,1.786,1.786,1.786,1.786,1.786,1.786,1.786,1.786,1.786,1.786,1.786,1.786,1.786,1.786,1.786,1.786,1.786,1.786,1.786,1.786,1.786,1.786,1.786,1.786,1.786,1.786,1.786,1.786,1.786,1.786,1.786,1.786,1.786,1.786,1.786,1.786,1.786,1.786,1.786,1.786,1.786,1.786,1.786,1.786,1.786,1.786,1.7639,1.5856,1.2955,1.0508,0.9397,0.7834,0.5826,2.0913,2.0872,2.0978,2.1067,2.11,2.0937,2.101,2.1222,2.1335,2.1384,2.1376,2.1376,2.1384,2.1384,2.1384,2.1384,2.1384,2.1384,2.1384,2.1384,2.1384,2.1384,2.1384,2.1384,2.1384,2.1384,2.1384,2.1384,2.1384,2.1384,2.1384,2.1384,2.1384,2.1368,2.136,2.1352,2.136,2.136,2.136,2.1368,2.1384,2.1384,2.1384,2.1384,2.1384,2.1384,2.1384,2.1384,2.1384,2.1384,2.1384,2.1384,2.1384,2.1384,2.1384,2.1164,2.0505,1.9632,1.8971,1.8309,1.786,1.786,1.786,1.786,1.786,1.786,1.786,1.786,1.786,1.786,1.786,1.786,1.786,1.786,1.786,1.786,1.786,1.786,1.786,1.786,1.786,1.786,1.786,1.786,1.786,1.786,1.786,1.786,1.786,1.786,1.786,1.786,1.786,1.786,1.786,1.786,1.786,1.786,1.786,1.786,1.786,1.786,1.786,1.786,1.786,1.786,1.786,1.786,1.7639,1.7418,1.6299,1.407,1.2288,0.9839,0.7166,2.1027,2.088,2.0872,2.0994,2.114,2.127,2.1352,2.1376,2.1384,2.1384,2.1384,2.1384,2.1384,2.1384,2.1384,2.1384,2.1384,2.1384,2.1384,2.1384,2.1384,2.1384,2.1384,2.1384,2.1384,2.1384,2.1384,2.1384,2.1384,2.1384,2.1384,2.1384,2.1384,2.1384,2.1384,2.1384,2.1384,2.1384,2.1384,2.1384,2.1384,2.1384,2.1384,2.1384,2.1384,2.1384,2.1384,2.1384,2.1384,2.1384,2.1384,2.1384,2.1384,2.1384,2.1384,2.1164,2.0293,1.9632,1.8971,1.8309,1.786,1.786,1.786,1.786,1.786,1.786,1.786,1.786,1.786,1.786,1.786,1.786,1.786,1.786,1.786,1.786,1.786,1.786,1.786,1.786,1.786,1.786,1.786,1.786,1.786,1.786,1.786,1.786,1.786,1.786,1.786,1.786,1.786,1.786,1.786,1.786,1.786,1.786,1.786,1.786,1.786,1.786,1.786,1.786,1.786,1.786,1.786,1.786,1.786,1.7639,1.7197,1.5856,1.3626,1.1176,0.8727,2.1278,2.123,2.123,2.1262,2.1311,2.136,2.1384,2.1384,2.1384,2.1384,2.1384,2.1384,2.1384,2.1384,2.1384,2.1384,2.1384,2.1384,2.1384,2.1384,2.1384,2.1384,2.1384,2.1384,2.1384,2.1384,2.1384,2.1384,2.1384,2.1384,2.1384,2.1384,2.1384,2.1384,2.1384,2.1384,2.1384,2.1384,2.1384,2.1384,2.1384,2.1384,2.1384,2.1384,2.1384,2.1384,2.1384,2.1384,2.1384,2.1384,2.1384,2.1384,2.1384,2.1384,2.1384,2.1384,2.0725,2.0065,1.9405,1.8515,1.7853,1.786,1.786,1.786,1.786,1.786,1.786,1.786,1.786,1.786,1.786,1.786,1.786,1.786,1.786,1.786,1.786,1.786,1.786,1.786,1.786,1.786,1.786,1.786,1.786,1.786,1.786,1.786,1.786,1.786,1.786,1.786,1.786,1.786,1.786,1.786,1.786,1.786,1.786,1.786,1.786,1.786,1.786,1.786,1.786,1.786,1.786,1.786,1.786,1.786,1.7639,1.6299,1.4742,1.2511,1.0285,2.1384,2.1384,2.1384,2.1384,2.1384,2.1384,2.1384,2.1384,2.1384,2.1384,2.1384,2.1384,2.1384,2.1384,2.1384,2.1384,2.1384,2.1384,2.1384,2.1384,2.1384,2.1384,2.1384,2.1384,2.1384,2.1384,2.1384,2.1384,2.1384,2.1384,2.1384,2.1384,2.1384,2.1384,2.1384,2.1384,2.1384,2.1384,2.1384,2.1384,2.1384,2.1384,2.1384,2.1384,2.1384,2.1384,2.1384,2.1384,2.1384,2.1384,2.1384,2.1384,2.1384,2.1384,2.1384,2.1384,2.0725,2.0065,1.9405,1.8515,1.8074,1.786,1.786,1.786,1.786,1.786,1.786,1.786,1.786,1.786,1.786,1.786,1.786,1.786,1.786,1.786,1.786,1.786,1.786,1.786,1.786,1.786,1.786,1.786,1.786,1.786,1.786,1.786,1.786,1.786,1.786,1.786,1.786,1.786,1.786,1.786,1.786,1.786,1.786,1.786,1.786,1.786,1.786,1.786,1.786,1.786,1.786,1.786,1.786,1.786,1.786,1.719,1.6077,1.4514,1.2066,2.1384,2.1384,2.1384,2.1384,2.1384,2.1384,2.1384,2.1384,2.1384,2.1384,2.1384,2.1384,2.1384,2.1384,2.1384,2.1384,2.1384,2.1384,2.1384,2.1384,2.1384,2.1384,2.1384,2.1384,2.1384,2.1384,2.1384,2.1384,2.1384,2.1384,2.1384,2.1384,2.1384,2.1384,2.1384,2.1384,2.1384,2.1384,2.1384,2.1384,2.1384,2.1384,2.1384,2.1384,2.1384,2.1384,2.1384,2.1384,2.1384,2.1384,2.1384,2.1384,2.1384,2.1384,2.1384,2.1384,2.0945,2.0285,1.9625,1.8736,1.8295,1.8081,1.786,1.786,1.786,1.786,1.786,1.786,1.786,1.786,1.786,1.786,1.786,1.786,1.786,1.786,1.786,1.786,1.786,1.786,1.786,1.786,1.786,1.786,1.786,1.786,1.786,1.786,1.786,1.786,1.786,1.786,1.786,1.786,1.786,1.786,1.786,1.786,1.786,1.786,1.786,1.786,1.786,1.786,1.786,1.786,1.786,1.786,1.786,1.786,1.786,1.786,1.6969,1.5856,1.407,2.1384,2.1384,2.1384,2.1384,2.1384,2.1384,2.1384,2.1384,2.1384,2.1384,2.1384,2.1384,2.1384,2.1384,2.1384,2.1384,2.1384,2.1384,2.1384,2.1384,2.1384,2.1384,2.1384,2.1384,2.1384,2.1384,2.1384,2.1384,2.1384,2.1384,2.1384,2.1384,2.1384,2.1384,2.1384,2.1384,2.1384,2.1384,2.1384,2.1384,2.1384,2.1384,2.1384,2.1384,2.1384,2.1384,2.1384,2.1384,2.1384,2.1384,2.1384,2.1384,2.1384,2.1384,2.1384,2.1384,2.1164,2.0505,1.9845,1.9184,1.8743,1.8081,1.786,1.786,1.786,1.786,1.786,1.786,1.786,1.786,1.786,1.786,1.786,1.786,1.786,1.786,1.786,1.786,1.786,1.786,1.786,1.786,1.786,1.786,1.786,1.786,1.786,1.786,1.786,1.786,1.786,1.786,1.786,1.786,1.786,1.786,1.786,1.786,1.786,1.786,1.786,1.786,1.786,1.786,1.786,1.786,1.786,1.786,1.786,1.786,1.786,1.786,1.786,1.6969,1.5628,2.1384,2.1384,2.1384,2.1384,2.1384,2.1384,2.1384,2.1384,2.1384,2.1384,2.1384,2.1384,2.1384,2.1384,2.1384,2.1384,2.1384,2.1384,2.1384,2.1384,2.1384,2.1384,2.1384,2.1384,2.1384,2.1384,2.1384,2.1384,2.1384,2.1384,2.1384,2.1384,2.1384,2.1384,2.1384,2.1384,2.1384,2.1384,2.1384,2.1384,2.1384,2.1384,2.1384,2.1384,2.1384,2.1384,2.1384,2.1384,2.1384,2.1384,2.1384,2.1384,2.1384,2.1384,2.1384,2.1384,2.1164,2.0945,2.0285,1.9632,1.9184,1.8302,1.786,1.786,1.786,1.786,1.786,1.786,1.786,1.786,1.786,1.786,1.786,1.786,1.786,1.786,1.786,1.786,1.786,1.786,1.786,1.786,1.786,1.786,1.786,1.786,1.786,1.786,1.786,1.786,1.786,1.786,1.786,1.786,1.786,1.786,1.786,1.786,1.786,1.786,1.786,1.786,1.786,1.786,1.786,1.786,1.786,1.786,1.786,1.786,1.786,1.786,1.786,1.786,1.6969,2.1384,2.1384,2.1384,2.1384,2.1384,2.1384,2.1384,2.1384,2.1384,2.1384,2.1384,2.1384,2.1384,2.1384,2.1384,2.1384,2.1384,2.1384,2.1384,2.1384,2.1384,2.1384,2.1384,2.1384,2.1384,2.1384,2.1384,2.1384,2.1384,2.1384,2.1384,2.1384,2.1384,2.1384,2.1384,2.1384,2.1384,2.1384,2.1384,2.1384,2.1384,2.1384,2.1384,2.1384,2.1384,2.1384,2.1384,2.1384,2.1384,2.1384,2.1384,2.1384,2.1384,2.1384,2.1384,2.1384,2.1384,2.0945,2.0505,2.0073,1.9184,1.8295,1.8081,1.786,1.786,1.786,1.786,1.786,1.786,1.786,1.786,1.786,1.786,1.786,1.786,1.786,1.786,1.786,1.786,1.786,1.786,1.786,1.786,1.786,1.786,1.786,1.786,1.786,1.786,1.786,1.786,1.786,1.786,1.786,1.786,1.786,1.786,1.786,1.786,1.786,1.786,1.786,1.786,1.786,1.786,1.786,1.786,1.786,1.786,1.786,1.786,1.786,1.786,1.786,1.786,2.1384,2.1384,2.1384,2.1384,2.1384,2.1384,2.1384,2.1384,2.1384,2.1384,2.1384,2.1384,2.1384,2.1384,2.1384,2.1384,2.1384,2.1384,2.1384,2.1384,2.1384,2.1384,2.1384,2.1384,2.1384,2.1384,2.1384,2.1384,2.1384,2.1384,2.1384,2.1384,2.1384,2.1384,2.1384,2.1384,2.1384,2.1384,2.1384,2.1384,2.1384,2.1384,2.1384,2.1384,2.1384,2.1384,2.1384,2.1384,2.1384,2.1384,2.1384,2.1384,2.1384,2.1384,2.1384,2.1384,2.1384,2.1164,2.0733,2.0749,1.9853,1.8722,1.8288,1.8074,1.8081,1.786,1.786,1.786,1.786,1.786,1.786,1.786,1.786,1.786,1.786,1.786,1.786,1.786,1.786,1.786,1.786,1.786,1.786,1.786,1.786,1.786,1.786,1.786,1.786,1.786,1.786,1.786,1.786,1.786,1.786,1.786,1.786,1.786,1.786,1.786,1.786,1.786,1.786,1.786,1.786,1.786,1.786,1.786,1.786,1.786,1.786,1.786,1.786,1.786,1.786]}]]